[[{"header":{"parameterUnit":"m.s-1","parameterCategory":1,"la1":30.6,"la2":28.766,"lo1":-90.7593,"lo2":-88.6598,"dy":0.0162,"dx":0.0183,"nx":116,"ny":114,"refTime":"2023-05-25T00:00:00:Z","depth":0,"parameterNumber":2,"parameterNumberName":"U-component_of_WINDS"},"data":[0.0,0.0,0.0,0.0,0.0,0.0,0.0,0.0,0.0,0.0,0.0,0.0,0.0,0.0,0.0,0.0,0.0,0.0,0.0,0.0,0.0,0.0,0.0,0.0,0.0,0.0,0.0,0.0,0.0,0.0,0.0,0.0,0.0,0.0,0.0,0.0,0.0,0.0,0.0,0.0,0.0,0.0,0.0,0.0,0.0,0.0,0.0,0.0,0.0,0.0,0.0,0.0,0.0,0.0,0.0,0.0,0.0,0.0,0.0,0.0,0.0,0.0,0.0,0.0,0.0,0.0,0.0,0.0,0.0,0.0,0.0,0.0,0.0,0.0,0.0,0.0,0.0,0.0,0.0,0.0,0.0,0.0,0.0,0.0,0.0,0.0,0.0,0.0,0.0,0.0,0.0,0.0,0.0,0.0,0.0,0.0,0.0,0.0,0.0,0.0,0.0,0.0,0.0,0.0,0.0,0.0,0.0,0.0,0.0,0.0,0.0,0.0,0.0,0.0,0.0,0.0,0.0,0.0,0.0,0.0,0.0,0.0,0.0,0.0,0.0,0.0,0.0,0.0,0.0,0.0,0.0,0.0,0.0,0.0,0.0,0.0,0.0,0.0,0.0,0.0,0.0,0.0,0.0,0.0,0.0,0.0,0.0,0.0,0.0,0.0,0.0,0.0,0.0,0.0,0.0,0.0,0.0,0.0,0.0,0.0,0.0,0.0,0.0,0.0,0.0,0.0,0.0,0.0,0.0,0.0,0.0,0.0,0.0,0.0,0.0,0.0,0.0,0.0,0.0,0.0,0.0,0.0,0.0,0.0,0.0,0.0,0.0,0.0,0.0,0.0,0.0,0.0,0.0,0.0,0.0,0.0,0.0,0.0,0.0,0.0,0.0,0.0,0.0,0.0,0.0,0.0,0.0,0.0,0.0,0.0,0.0,0.0,0.0,0.0,0.0,0.0,0.0,0.0,0.0,0.0,0.0,0.0,0.0,0.0,0.0,0.0,0.0,0.0,0.0,0.0,0.0,0.0,0.0,0.0,0.0,0.0,0.0,0.0,0.0,0.0,0.0,0.0,0.0,0.0,0.0,0.0,0.0,0.0,0.0,0.0,0.0,0.0,0.0,0.0,0.0,0.0,0.0,0.0,0.0,0.0,0.0,0.0,0.0,0.0,0.0,0.0,0.0,0.0,0.0,0.0,0.0,0.0,0.0,0.0,0.0,0.0,0.0,0.0,0.0,0.0,0.0,0.0,0.0,0.0,0.0,0.0,0.0,0.0,0.0,0.0,0.0,0.0,0.0,0.0,0.0,0.0,0.0,0.0,0.0,0.0,0.0,0.0,0.0,0.0,0.0,0.0,0.0,0.0,0.0,0.0,0.0,0.0,0.0,0.0,0.0,0.0,0.0,0.0,0.0,0.0,0.0,0.0,0.0,0.0,0.0,0.0,0.0,0.0,0.0,0.0,0.0,0.0,0.0,0.0,0.0,0.0,0.0,0.0,0.0,0.0,0.0,0.0,0.0,0.0,0.0,0.0,0.0,0.0,0.0,0.0,0.0,0.0,0.0,0.0,0.0,0.0,0.0,0.0,0.0,0.0,0.0,0.0,0.0,0.0,0.0,0.0,0.0,0.0,0.0,0.0,0.0,0.0,0.0,0.0,0.0,0.0,0.0,0.0,0.0,0.0,0.0,0.0,0.0,0.0,0.0,0.0,0.0,0.0,0.0,0.0,0.0,0.0,0.0,0.0,0.0,0.0,0.0,0.0,0.0,0.0,0.0,0.0,0.0,0.0,0.0,0.0,0.0,0.0,0.0,0.0,0.0,0.0,0.0,0.0,0.0,0.0,0.0,0.0,0.0,0.0,0.0,0.0,0.0,0.0,0.0,0.0,0.0,0.0,0.0,0.0,0.0,0.0,0.0,0.0,0.0,0.0,0.0,0.0,0.0,0.0,0.0,0.0,0.0,0.0,0.0,0.0,0.0,0.0,0.0,0.0,0.0,0.0,0.0,0.0,0.0,0.0,0.0,0.0,0.0,0.0,0.0,0.0,0.0,0.0,0.0,0.0,0.0,0.0,0.0,0.0,0.0,0.0,0.0,0.0,0.0,0.0,0.0,0.0,0.0,0.0,0.0,0.0,0.0,0.0,0.0,0.0,0.0,0.0,0.0,0.0,0.0,0.0,0.0,0.0,0.0,0.0,0.0,0.0,0.0,0.0,0.0,0.0,0.0,0.0,0.0,0.0,0.0,0.0,0.0,0.0,0.0,0.0,0.0,0.0,0.0,0.0,0.0,0.0,0.0,0.0,0.0,0.0,0.0,0.0,0.0,0.0,0.0,0.0,0.0,0.0,0.0,0.0,0.0,0.0,0.0,0.0,0.0,0.0,0.0,0.0,0.0,0.0,0.0,0.0,0.0,0.0,0.0,0.0,0.0,0.0,0.0,0.0,0.0,0.0,0.0,0.0,0.0,0.0,0.0,0.0,0.0,0.0,0.0,0.0,0.0,0.0,0.0,0.0,0.0,0.0,0.0,0.0,0.0,0.0,0.0,0.0,0.0,0.0,0.0,0.0,0.0,0.0,0.0,0.0,0.0,0.0,0.0,0.0,0.0,0.0,0.0,0.0,0.0,0.0,0.0,0.0,0.0,0.0,0.0,0.0,0.0,0.0,0.0,0.0,0.0,0.0,0.0,0.0,0.0,0.0,0.0,0.0,0.0,0.0,0.0,0.0,0.0,0.0,0.0,0.0,0.0,0.0,0.0,0.0,0.0,0.0,0.0,0.0,0.0,0.0,0.0,0.0,0.0,0.0,0.0,0.0,0.0,0.0,0.0,0.0,0.0,0.0,0.0,0.0,0.0,0.0,0.0,0.0,0.0,0.0,0.0,0.0,0.0,0.0,0.0,0.0,0.0,0.0,0.0,0.0,0.0,0.0,0.0,0.0,0.0,0.0,0.0,0.0,0.0,0.0,0.0,0.0,0.0,0.0,0.0,0.0,0.0,0.0,0.0,0.0,0.0,0.0,0.0,0.0,0.0,0.0,0.0,0.0,0.0,0.0,0.0,0.0,0.0,0.0,0.0,0.0,0.0,0.0,0.0,0.0,0.0,0.0,0.0,0.0,0.0,0.0,0.0,0.0,0.0,0.0,0.0,0.0,0.0,0.0,0.0,0.0,0.0,0.0,0.0,0.0,0.0,0.0,0.0,0.0,0.0,0.0,0.0,0.0,0.0,0.0,0.0,0.0,0.0,0.0,0.0,0.0,0.0,0.0,0.0,0.0,0.0,0.0,0.0,0.0,0.0,0.0,0.0,0.0,0.0,0.0,0.0,0.0,0.0,0.0,0.0,0.0,0.0,0.0,0.0,0.0,0.0,0.0,0.0,0.0,0.0,0.0,0.0,0.0,0.0,0.0,0.0,0.0,0.0,0.0,0.0,0.0,0.0,0.0,0.0,0.0,0.0,0.0,0.0,0.0,0.0,0.0,0.0,0.0,0.0,0.0,0.0,0.0,0.0,0.0,0.0,0.0,0.0,0.0,0.0,0.0,0.0,0.0,0.0,0.0,0.0,0.0,0.0,0.0,0.0,0.0,0.0,0.0,0.0,0.0,0.0,0.0,0.0,0.0,0.0,0.0,0.0,0.0,0.0,0.0,0.0,0.0,0.0,0.0,0.0,0.0,0.0,0.0,0.0,0.0,0.0,0.0,0.0,0.0,0.0,0.0,0.0,0.0,0.0,0.0,0.0,0.0,0.0,0.0,0.0,0.0,0.0,0.0,0.0,0.0,0.0,0.0,0.0,0.0,0.0,0.0,0.0,0.0,0.0,0.0,0.0,0.0,0.0,0.0,0.0,0.0,0.0,0.0,0.0,0.0,0.0,0.0,0.0,0.0,0.0,0.0,0.0,0.0,0.0,0.0,0.0,0.0,0.0,0.0,0.0,0.0,0.0,0.0,0.0,0.0,0.0,0.0,0.0,0.0,0.0,0.0,0.0,0.0,0.0,0.0,0.0,0.0,0.0,0.0,0.0,0.0,0.0,0.0,0.0,0.0,0.0,0.0,0.0,0.0,0.0,0.0,0.0,0.0,0.0,0.0,0.0,0.0,0.0,0.0,0.0,0.0,0.0,0.0,0.0,0.0,0.0,0.0,0.0,0.0,0.0,0.0,0.0,0.0,0.0,0.0,0.0,0.0,0.0,0.0,0.0,0.0,0.0,0.0,0.0,0.0,0.0,0.0,0.0,0.0,0.0,0.0,0.0,0.0,0.0,0.0,0.0,0.0,0.0,0.0,0.0,0.0,0.0,0.0,0.0,0.0,0.0,0.0,0.0,0.0,0.0,0.0,0.0,0.0,0.0,0.0,0.0,0.0,0.0,0.0,0.0,0.0,0.0,0.0,0.0,0.0,0.0,0.0,0.0,0.0,0.0,0.0,0.0,0.0,0.0,0.0,0.0,0.0,0.0,0.0,0.0,0.0,0.0,0.0,0.0,0.0,0.0,0.0,0.0,0.0,0.0,0.0,0.0,0.0,0.0,0.0,0.0,0.0,0.0,0.0,0.0,0.0,0.0,0.0,0.0,0.0,0.0,0.0,0.0,0.0,0.0,0.0,0.0,0.0,0.0,0.0,0.0,0.0,0.0,0.0,0.0,0.0,0.0,0.0,0.0,0.0,0.0,0.0,0.0,0.0,0.0,0.0,0.0,0.0,0.0,0.0,0.0,0.0,0.0,0.0,0.0,0.0,0.0,0.0,0.0,0.0,0.0,0.0,0.0,0.0,0.0,0.0,0.0,0.0,0.0,0.0,0.0,0.0,0.0,0.0,0.0,0.0,0.0,0.0,0.0,0.0,0.0,0.0,0.0,0.0,0.0,0.0,0.0,0.0,0.0,0.0,0.0,0.0,0.0,0.0,0.0,0.0,0.0,0.0,0.0,0.0,0.0,0.0,0.0,0.0,0.0,0.0,0.0,0.0,0.0,0.0,0.0,0.0,0.0,0.0,0.0,0.0,0.0,0.0,0.0,0.0,0.0,0.0,0.0,0.0,0.0,0.0,0.0,0.0,0.0,0.0,0.0,0.0,0.0,0.0,0.0,0.0,0.0,0.0,0.0,0.0,0.0,0.0,0.0,0.0,0.0,0.0,0.0,0.0,0.0,0.0,0.0,0.0,0.0,0.0,0.0,0.0,0.0,0.0,0.0,0.0,0.0,0.0,0.0,0.0,0.0,0.0,0.0,0.0,0.0,0.0,0.0,0.0,0.0,0.0,0.0,0.0,0.0,0.0,0.0,0.0,0.0,0.0,0.0,0.0,0.0,0.0,0.0,0.0,0.0,0.0,0.0,0.0,0.0,0.0,0.0,0.0,0.0,0.0,0.0,0.0,0.0,0.0,0.0,0.0,0.0,0.0,0.0,0.0,0.0,0.0,0.0,0.0,0.0,0.0,0.0,0.0,0.0,0.0,0.0,0.0,0.0,0.0,0.0,0.0,0.0,0.0,0.0,0.0,0.0,0.0,0.0,0.0,0.0,0.0,0.0,0.0,0.0,0.0,0.0,0.0,0.0,0.0,0.0,0.0,0.0,0.0,0.0,0.0,0.0,0.0,0.0,0.0,0.0,0.0,0.0,0.0,0.0,0.0,0.0,0.0,0.0,0.0,0.0,0.0,0.0,0.0,0.0,0.0,0.0,0.0,0.0,0.0,0.0,0.0,0.0,0.0,0.0,0.0,0.0,0.0,0.0,0.0,0.0,0.0,0.0,0.0,0.0,0.0,0.0,0.0,0.0,0.0,0.0,0.0,0.0,0.0,0.0,0.0,0.0,0.0,0.0,0.0,0.0,0.0,0.0,0.0,0.0,0.0,0.0,0.0,0.0,0.0,0.0,0.0,0.0,0.0,0.0,0.0,0.0,0.0,0.0,0.0,0.0,0.0,0.0,0.0,0.0,0.0,0.0,0.0,0.0,0.0,0.0,0.0,0.0,0.0,0.0,0.0,0.0,0.0,0.0,0.0,0.0,0.0,0.0,0.0,0.0,0.0,0.0,0.0,0.0,0.0,0.0,0.0,0.0,0.0,0.0,0.0,0.0,0.0,0.0,0.0,0.0,0.0,0.0,0.0,-1.9798,0.0,0.0,0.0,0.0,0.0,0.0,0.0,0.0,0.0,0.0,0.0,0.0,0.0,0.0,0.0,0.0,0.0,0.0,0.0,0.0,0.0,0.0,0.0,0.0,0.0,0.0,0.0,0.0,0.0,0.0,0.0,0.0,0.0,0.0,0.0,0.0,0.0,0.0,0.0,0.0,0.0,0.0,0.0,0.0,0.0,0.0,0.0,0.0,0.0,0.0,0.0,0.0,0.0,0.0,0.0,0.0,0.0,0.0,0.0,0.0,0.0,0.0,0.0,0.0,0.0,0.0,0.0,0.0,0.0,0.0,0.0,0.0,0.0,0.0,0.0,0.0,0.0,0.0,0.0,0.0,0.0,0.0,0.0,0.0,0.0,0.0,0.0,0.0,0.0,0.0,0.0,0.0,0.0,0.0,0.0,0.0,0.0,0.0,0.0,0.0,0.0,0.0,0.0,0.0,0.0,0.0,0.0,0.0,0.0,0.0,0.0,0.0,0.0,0.0,0.0,0.0,-1.9798,0.0,0.0,0.0,0.0,0.0,0.0,0.0,0.0,0.0,0.0,0.0,0.0,0.0,0.0,0.0,0.0,0.0,0.0,0.0,0.0,0.0,0.0,0.0,0.0,0.0,0.0,0.0,0.0,0.0,0.0,0.0,0.0,0.0,0.0,0.0,0.0,0.0,0.0,0.0,0.0,0.0,0.0,0.0,0.0,0.0,0.0,0.0,0.0,0.0,0.0,0.0,0.0,0.0,0.0,0.0,0.0,0.0,0.0,0.0,0.0,0.0,0.0,0.0,0.0,0.0,0.0,0.0,0.0,0.0,0.0,0.0,0.0,0.0,0.0,0.0,0.0,0.0,0.0,0.0,0.0,0.0,0.0,0.0,0.0,0.0,0.0,0.0,0.0,0.0,0.0,0.0,0.0,0.0,0.0,0.0,0.0,0.0,0.0,0.0,0.0,0.0,0.0,0.0,0.0,0.0,0.0,0.0,0.0,-2.01,-2.0351,-2.0857,-2.0857,-2.1054,-2.1443,-2.0501,-2.01,-2.01,-2.01,0.0,0.0,0.0,0.0,0.0,0.0,0.0,0.0,0.0,0.0,0.0,0.0,0.0,0.0,0.0,0.0,0.0,0.0,0.0,0.0,0.0,0.0,0.0,0.0,0.0,0.0,0.0,0.0,0.0,0.0,0.0,0.0,0.0,0.0,0.0,0.0,0.0,-3.6716,-3.7257,-3.7257,-3.7379,-3.7603,-3.6161,0.0,0.0,0.0,0.0,0.0,0.0,0.0,0.0,0.0,0.0,0.0,0.0,0.0,0.0,0.0,0.0,0.0,0.0,0.0,0.0,0.0,0.0,0.0,0.0,0.0,0.0,0.0,0.0,0.0,0.0,0.0,0.0,0.0,0.0,0.0,0.0,0.0,0.0,0.0,0.0,0.0,0.0,0.0,-2.5181,-2.4549,0.0,0.0,0.0,0.0,0.0,0.0,0.0,0.0,0.0,0.0,0.0,0.0,0.0,-2.1378,-2.1267,-2.1267,-2.1267,-2.1267,-2.1267,-2.1305,-2.138,-2.138,-2.1418,-2.1481,-2.133,0.0,-2.1267,-2.1267,0.0,0.0,0.0,0.0,0.0,0.0,0.0,0.0,0.0,0.0,0.0,0.0,0.0,0.0,0.0,0.0,0.0,0.0,0.0,0.0,0.0,0.0,0.0,0.0,0.0,0.0,0.0,0.0,0.0,0.0,0.0,0.0,0.0,0.0,0.0,0.0,-3.6649,-3.6892,-3.7275,-3.7433,-3.7581,-3.7685,-3.6958,-3.6632,-3.6651,-3.635,0.0,0.0,0.0,0.0,0.0,0.0,0.0,0.0,0.0,0.0,0.0,0.0,0.0,0.0,0.0,0.0,0.0,0.0,0.0,0.0,0.0,0.0,0.0,0.0,0.0,0.0,0.0,0.0,0.0,0.0,0.0,0.0,0.0,0.0,0.0,0.0,0.0,0.0,0.0,-2.5193,-2.4621,-2.3955,-2.3598,-2.3547,0.0,0.0,0.0,0.0,0.0,0.0,0.0,0.0,0.0,-2.1898,-2.1648,-2.1493,-2.1493,-2.1493,-2.1493,-2.1493,-2.1493,-2.1656,-2.1945,-2.1945,-2.2121,-2.241,-2.241,-2.241,-2.2372,-2.1744,-2.1493,-2.1493,0.0,0.0,0.0,0.0,-2.0779,-2.0401,0.0,0.0,0.0,0.0,0.0,0.0,0.0,0.0,0.0,0.0,0.0,0.0,0.0,0.0,0.0,-3.119,0.0,0.0,0.0,0.0,0.0,0.0,0.0,0.0,-3.5484,0.0,0.0,-3.7227,-3.727,-3.7455,-3.7743,-3.8041,-3.8156,-3.8156,-3.8156,-3.7946,-3.7545,-3.7152,-3.6878,0.0,0.0,0.0,0.0,0.0,0.0,0.0,0.0,0.0,0.0,0.0,0.0,0.0,0.0,0.0,0.0,0.0,0.0,0.0,0.0,0.0,0.0,0.0,0.0,0.0,0.0,0.0,0.0,0.0,0.0,0.0,0.0,0.0,0.0,0.0,0.0,0.0,0.0,-2.4912,-2.4239,-2.3714,-2.3433,-2.338,0.0,0.0,0.0,0.0,0.0,0.0,-2.1964,-2.2334,-2.239,-2.1907,-2.1907,-2.1907,-2.1907,-2.1907,-2.1907,-2.1907,-2.1907,-2.2121,-2.2523,-2.2523,-2.2749,-2.3078,-2.3078,-2.3078,-2.3015,-2.2246,-2.1907,-2.1907,-2.1907,-2.1907,-2.1907,-2.1907,-2.1793,-2.1555,0.0,0.0,0.0,0.0,0.0,0.0,0.0,0.0,0.0,0.0,0.0,0.0,0.0,0.0,-3.119,-3.119,-3.119,-3.1495,0.0,0.0,0.0,0.0,0.0,-3.6118,-3.7326,-3.8145,-3.8579,-3.8609,-3.886,-3.9151,-3.9467,-3.981,-3.9967,-3.9967,-3.9967,-3.9052,-3.7471,-3.6944,-3.6708,-3.6682,0.0,0.0,0.0,0.0,0.0,0.0,0.0,0.0,0.0,0.0,0.0,0.0,0.0,0.0,0.0,0.0,0.0,0.0,0.0,0.0,0.0,0.0,0.0,0.0,0.0,0.0,0.0,0.0,0.0,0.0,0.0,0.0,0.0,0.0,0.0,0.0,0.0,0.0,0.0,-2.4257,-2.3572,0.0,0.0,0.0,0.0,-2.4142,-2.3513,-2.311,-2.299,-2.305,-2.305,-2.299,-2.299,-2.299,-2.299,-2.299,-2.299,-2.299,-2.299,-2.3002,-2.3027,-2.3027,-2.3053,-2.3078,-2.3078,-2.3078,-2.3125,-2.3015,-2.299,-2.299,-2.299,-2.299,-2.299,-2.299,-2.2555,-2.1868,0.0,0.0,0.0,0.0,0.0,0.0,0.0,0.0,0.0,0.0,0.0,0.0,0.0,-3.0699,-3.1376,-3.185,-3.2205,-3.2724,-3.3481,0.0,0.0,0.0,-3.6381,-3.7457,-3.8248,-3.856,-3.8707,-3.8707,-3.899,-3.916,-3.9289,-3.984,-4.0101,-4.0101,-4.0101,-3.9757,-3.9128,-3.8501,-3.8242,-3.8207,-3.7937,-3.7533,0.0,0.0,0.0,0.0,0.0,0.0,0.0,0.0,0.0,0.0,0.0,0.0,0.0,0.0,0.0,0.0,0.0,0.0,0.0,0.0,0.0,0.0,0.0,0.0,0.0,0.0,0.0,0.0,0.0,0.0,0.0,0.0,0.0,0.0,0.0,0.0,0.0,-2.3603,-2.3245,0.0,-2.3484,-2.3245,-2.3185,-2.3484,-2.3599,-2.369,-2.369,-2.4029,-2.4217,-2.4217,-2.4217,-2.4217,-2.4217,-2.4217,-2.4217,-2.4217,-2.4217,-2.4217,-2.4217,-2.4217,-2.4217,-2.4217,-2.4217,-2.4217,-2.4217,-2.4217,-2.3729,-2.3078,-2.3078,-2.3078,-2.3078,-2.3078,-2.2944,-2.2689,0.0,0.0,0.0,0.0,0.0,0.0,0.0,0.0,0.0,0.0,0.0,-2.9342,-3.0208,-3.1056,-3.1828,-3.2485,-3.3132,-3.3865,-3.4766,0.0,0.0,0.0,-3.7451,-3.835,-3.8707,-3.8773,-3.8844,-3.8844,-3.9249,-3.9438,-3.9438,-3.9964,-4.0177,-4.0101,-4.0101,-4.0022,-3.9901,-3.9457,-3.9264,-3.9238,-3.8952,-3.8512,-3.7995,0.0,0.0,0.0,0.0,0.0,0.0,0.0,0.0,0.0,0.0,0.0,0.0,0.0,0.0,0.0,0.0,0.0,0.0,0.0,0.0,0.0,0.0,0.0,0.0,0.0,0.0,0.0,0.0,0.0,0.0,0.0,0.0,0.0,0.0,0.0,-2.3708,-2.3125,-2.3078,-2.3153,-2.3414,-2.3427,-2.3502,-2.3629,-2.4054,-2.428,-2.428,-2.4619,-2.482,-2.482,-2.482,-2.482,-2.482,-2.482,-2.482,-2.482,-2.482,-2.482,-2.482,-2.482,-2.482,-2.482,-2.482,-2.482,-2.482,-2.482,-2.4381,-2.3703,-2.3703,-2.3703,-2.3616,-2.3489,-2.3427,-2.3401,0.0,0.0,0.0,0.0,0.0,0.0,0.0,0.0,0.0,0.0,-2.8435,-2.8854,-3.0182,-3.1491,-3.2514,-3.3072,-3.3804,-3.4746,-3.5915,-3.6041,0.0,0.0,-3.8382,-3.8658,-3.8707,-3.8961,-3.9099,-3.9099,-3.9754,-4.0081,-4.0101,-4.0356,-4.0356,-4.012,-4.012,-3.9922,-3.9622,-3.9622,-3.9622,-3.9599,-3.9238,-3.908,-3.897,0.0,0.0,0.0,0.0,0.0,0.0,0.0,0.0,0.0,0.0,0.0,0.0,0.0,0.0,0.0,0.0,0.0,0.0,0.0,0.0,0.0,0.0,0.0,0.0,0.0,0.0,0.0,0.0,0.0,0.0,0.0,0.0,0.0,-2.4292,-2.359,-2.3078,-2.3103,-2.3103,-2.3389,-2.3966,-2.4017,-2.4243,-2.4782,-2.4858,-2.487,-2.487,-2.4908,-2.4921,-2.4921,-2.4921,-2.4921,-2.4921,-2.4921,-2.4921,-2.4921,-2.4921,-2.4921,-2.4921,-2.4921,-2.4921,-2.4921,-2.4921,-2.4908,-2.4895,-2.4895,-2.4895,-2.487,-2.4833,-2.482,-2.4757,-2.4217,-2.4017,-2.3941,0.0,0.0,0.0,0.0,0.0,0.0,0.0,0.0,0.0,0.0,-2.9239,-3.0082,-3.1001,-3.1834,-3.2795,-3.4014,-3.4657,-3.537,-3.6237,0.0,0.0,-3.7859,-3.8032,-3.83,-3.8707,-3.8792,-3.8803,-3.8803,-3.9197,-3.9505,-3.9735,-4.0062,-4.0267,-4.0389,-4.0389,-4.0336,-4.0248,-4.0062,-3.9943,-3.9901,-3.9339,-3.8971,-3.8785,0.0,0.0,0.0,0.0,0.0,0.0,0.0,0.0,0.0,0.0,0.0,0.0,0.0,0.0,0.0,0.0,0.0,0.0,0.0,0.0,0.0,0.0,0.0,0.0,0.0,0.0,0.0,0.0,0.0,0.0,0.0,0.0,-2.4292,-2.4292,-2.359,-2.3288,-2.3715,-2.3766,-2.3979,-2.4544,-2.4594,-2.4657,-2.4808,-2.5561,-2.6013,-2.6013,-2.6766,-2.7205,-2.7205,-2.7205,-2.7205,-2.7205,-2.7205,-2.7205,-2.7205,-2.7205,-2.7205,-2.7205,-2.7205,-2.7205,-2.7205,-2.7205,-2.6979,-2.6603,-2.6603,-2.6377,-2.5937,-2.5134,-2.482,-2.4808,-2.4644,-2.4594,-2.4569,0.0,0.0,0.0,0.0,0.0,0.0,0.0,0.0,0.0,0.0,-2.9432,-3.032,-3.1641,-3.2551,-3.3556,-3.4736,-3.5811,-3.6488,-3.6729,0.0,0.0,-3.7911,-3.8117,-3.8382,-3.8707,-3.8833,-3.8855,-3.8855,-3.9506,-3.982,-3.9838,-4.0345,-4.0576,-4.0489,-4.0372,-4.0339,-4.0302,-4.0003,-3.9797,-3.9645,-3.9257,-3.9027,-3.8873,-3.8732,-3.8707,-3.8597,-3.7771,-3.6964,-3.6174,-3.5284,0.0,0.0,0.0,0.0,0.0,0.0,0.0,0.0,0.0,0.0,0.0,0.0,0.0,0.0,0.0,0.0,0.0,0.0,0.0,0.0,0.0,0.0,0.0,0.0,-2.4648,-2.4219,-2.4464,-2.3933,-2.3703,-2.428,-2.4343,-2.4657,-2.5435,-2.5511,-2.5699,-2.6163,-2.6791,-2.7155,-2.7155,-2.7758,-2.8109,-2.8109,-2.8109,-2.8109,-2.8109,-2.8109,-2.8109,-2.8109,-2.8109,-2.8109,-2.8109,-2.8109,-2.8109,-2.8109,-2.8109,-2.7921,-2.7632,-2.7632,-2.7444,0.0,0.0,0.0,0.0,0.0,-2.5008,-2.482,0.0,0.0,0.0,0.0,0.0,0.0,0.0,0.0,0.0,0.0,0.0,-3.0168,-3.2208,-3.3493,-3.4532,-3.5364,-3.6896,-3.7649,0.0,0.0,-3.7893,-3.7893,-3.8415,-3.8707,-3.8707,-3.8961,-3.9136,-3.9229,-4.0297,-4.0662,-4.0406,-4.111,-4.115,-4.0642,-4.0403,-4.0215,-4.0081,-3.9754,-3.9408,-3.9099,-3.9072,-3.9044,-3.9036,-3.8773,-3.8658,-3.8535,-3.7802,-3.6985,-3.612,-3.5279,0.0,0.0,0.0,0.0,0.0,0.0,0.0,0.0,0.0,0.0,0.0,0.0,0.0,0.0,0.0,0.0,0.0,0.0,0.0,0.0,0.0,0.0,0.0,0.0,-2.4551,-2.4305,-2.4921,-2.4582,-2.4456,-2.4946,-2.5008,-2.5435,-2.654,-2.6653,-2.7055,-2.8034,-2.816,-2.8197,-2.8197,0.0,0.0,0.0,0.0,-2.8298,-2.8298,-2.8298,-2.8298,-2.8298,-2.8298,-2.8298,-2.8298,-2.8298,-2.8298,-2.8298,-2.8298,-2.826,-2.8197,-2.8197,-2.816,-2.8009,-2.703,-2.6653,-2.6647,-2.6076,-2.5586,-2.5197,0.0,0.0,0.0,0.0,0.0,0.0,0.0,0.0,0.0,-2.9361,-3.0218,-3.1429,-3.2992,-3.3802,-3.4757,-3.6087,-3.6893,-3.7285,-3.7228,-3.7649,-3.7893,-3.7893,-3.8415,-3.8707,-3.8707,-3.8961,-3.9442,-4.0151,-4.0647,-4.1294,-4.2123,-4.2276,-4.2068,-4.1546,-4.1498,-4.0955,-4.0081,-3.9754,-3.9408,-3.9072,-3.8855,-3.8792,-3.8762,-3.8719,-3.8433,-3.8029,-3.7884,-3.7018,-3.5847,-3.508,-3.404,-3.2912,-3.2266,0.0,0.0,0.0,0.0,0.0,0.0,0.0,0.0,0.0,0.0,0.0,0.0,0.0,0.0,0.0,0.0,0.0,0.0,0.0,0.0,-2.5858,-2.5115,-2.5008,-2.6,-2.605,-2.6025,-2.6138,-2.6138,-2.6578,-2.7682,-2.7783,-2.7871,-2.8084,-2.8511,-2.8775,-2.8775,-2.9214,-2.9465,-2.9465,-2.9465,-2.9465,-2.9465,-2.9465,-2.9465,-2.9465,0.0,0.0,-2.9465,-2.9465,-2.9465,-2.9465,-2.9465,-2.9202,-2.8775,-2.8775,-2.8511,-2.8084,-2.7871,-2.7783,-2.777,-2.7657,-2.7557,-2.7469,0.0,0.0,0.0,0.0,0.0,0.0,0.0,0.0,0.0,0.0,-3.0734,-3.1985,-3.3736,-3.4455,-3.5226,-3.6312,-3.6882,0.0,-3.7913,-3.7911,-3.8013,-3.83,-3.8546,-3.8707,-3.8707,-3.925,-3.9806,-4.0393,-4.1368,-4.2095,-4.26,-4.2581,-4.2279,-4.178,-4.12,-4.054,-3.9819,-3.9486,-3.9171,-3.8884,-3.8762,-3.8546,-3.83,-3.83,-3.8132,-3.7859,-3.7649,-3.6826,-3.5825,-3.5473,-3.43,-3.2934,-3.2535,-3.1854,-3.119,0.0,0.0,0.0,0.0,0.0,0.0,0.0,0.0,0.0,0.0,0.0,0.0,0.0,0.0,-2.8734,0.0,0.0,-2.687,-2.5934,-2.5686,-2.5925,-2.6753,-2.7105,-2.7281,-2.7281,-2.7281,-2.7607,-2.8436,-2.8511,-2.875,-2.9315,-2.9616,-2.9892,-3.0156,-3.0432,-3.0595,-3.0595,-3.0595,-3.0595,-3.0595,-3.0595,-3.0595,-3.0595,-3.0595,-3.0595,-3.0583,-3.0319,-3.0206,-3.0193,-2.9917,-2.9628,-2.9365,-2.9365,-2.9202,-2.895,-2.895,-2.8599,-2.8109,-2.8109,-2.8109,-2.8109,0.0,0.0,0.0,0.0,0.0,0.0,0.0,0.0,0.0,0.0,-3.0941,-3.2137,-3.409,-3.4878,-3.5705,0.0,0.0,-3.7703,-3.8627,-3.83,-3.8267,-3.8676,-3.8707,-3.8707,-3.8707,-3.9448,-4.0065,-4.0483,-4.2077,-4.2786,-4.2699,-4.2794,-4.2469,-4.1761,-4.0768,-4.0074,-3.9576,-3.9238,-3.8933,-3.8707,-3.8707,-3.8433,-3.8013,-3.7843,-3.7685,-3.756,-3.7173,-3.6538,-3.5826,-3.5685,-3.4474,-3.3059,-3.2904,-3.2102,-3.119,-3.119,-3.119,0.0,0.0,0.0,0.0,0.0,0.0,0.0,0.0,0.0,-2.8786,-2.8786,-2.931,-2.9345,-2.7846,-2.7589,-2.7257,-2.6332,-2.6438,-2.6854,-2.7507,-2.7984,-2.831,-2.8423,-2.8335,-2.8524,-2.9189,-2.9252,-2.9679,-3.0683,-3.0771,-3.0947,-3.1361,-3.1386,-3.1386,-3.1386,-3.1386,-3.1386,-3.1386,-3.1386,-3.1386,-3.1386,-3.1386,-3.1386,-3.1373,-3.0959,-3.0771,-3.0733,-3.0294,-3.0043,-2.9955,-2.9955,-2.9892,-2.9792,-2.9792,-2.9239,-2.8436,-2.8436,-2.8436,-2.8436,0.0,0.0,0.0,0.0,0.0,0.0,0.0,0.0,0.0,0.0,0.0,0.0,0.0,0.0,0.0,-3.7578,-3.779,-3.8065,-3.8658,-3.8627,-3.8627,-3.8707,-3.8707,-3.8707,-3.8707,-3.9309,-4.0037,-4.0839,-4.2334,-4.3057,-4.3052,-4.3763,-4.3263,-4.178,-4.1361,-4.0587,-3.9576,-3.9238,-3.8933,-3.8707,-3.8707,-3.8658,-3.8515,-3.7632,-3.6981,-3.6563,-3.6498,-3.6113,-3.5545,-3.4865,-3.4058,-3.3236,-3.2598,-3.1862,-3.119,-3.119,0.0,-3.119,-3.119,-3.0757,-3.0314,-3.0266,-2.9831,-2.9381,0.0,0.0,-2.9475,-2.9475,-2.9968,-3.0107,-2.9217,-2.8942,-2.8671,-2.8264,-2.7652,-2.7557,-2.8599,-2.88,-2.9026,-2.9553,-2.9151,-2.9252,-3.0319,-3.0432,-3.067,-3.126,-3.1298,-3.1336,-3.1386,-3.1386,-3.1386,-3.1386,-3.1386,-3.1386,-3.1386,-3.1386,-3.1386,-3.1386,-3.1386,-3.1386,-3.1386,-3.1336,-3.1298,-3.1298,-3.1235,-3.0947,-3.052,-3.052,-3.0231,-2.9792,-2.9792,-2.9716,-2.9603,-2.9603,-2.9603,-2.9603,0.0,0.0,0.0,0.0,0.0,0.0,0.0,0.0,0.0,0.0,0.0,0.0,0.0,0.0,0.0,-3.7434,-3.7755,-3.8132,-3.8658,-3.8707,-3.8707,-3.8707,-3.8707,-3.8707,-3.8707,-3.9547,-4.029,-4.091,-4.2139,-4.2869,-4.3104,-4.2931,-4.2364,-4.1474,-4.0883,-4.0122,-3.9289,-3.9178,-3.8933,-3.8658,-3.835,-3.8083,-3.7756,-3.702,-3.6416,-3.5941,-3.5941,-3.5783,0.0,0.0,-3.4658,-3.3981,-3.3677,-3.2763,-3.1833,-3.1833,-3.1529,0.0,-3.082,-3.0554,-3.0282,0.0,-2.973,-2.9576,-2.9559,-2.9864,-3.0118,-3.0118,-3.0642,-3.0674,-2.9369,-2.9303,-2.9089,0.0,-2.8012,-2.8398,-2.8863,-2.9214,-2.9641,-3.0206,-3.0055,-3.0093,-3.057,-3.0884,-3.1286,-3.1825,-3.1863,-3.2014,-3.2353,-3.2365,-3.2365,-3.2365,-3.2365,-3.2365,-3.2365,-3.2365,-3.2365,-3.2365,-3.2365,-3.2365,-3.2365,-3.2026,-3.17,-3.1386,-3.1386,-3.1273,-3.1072,-3.1072,-3.0934,-3.0696,-3.0394,-3.0269,-3.0231,-2.9917,-2.9792,-2.9792,0.0,0.0,0.0,0.0,0.0,0.0,0.0,0.0,0.0,0.0,0.0,0.0,0.0,0.0,-3.7038,-3.719,-3.7614,-3.8132,-3.8658,-3.8707,-3.8707,-3.8707,-3.8707,-3.875,-3.8803,-3.9658,-4.0239,-4.0528,-4.1635,-4.2163,-4.2143,-4.1723,-4.1285,-4.08,-4.0127,-3.9534,-3.9099,-3.9008,-3.8884,-3.8658,-3.8117,-3.7685,-3.7323,-3.6643,-3.6182,-3.5827,-3.565,-3.5622,0.0,0.0,-3.4979,-3.4201,-3.4201,-3.3169,-3.2019,-3.2222,-3.2053,-3.1698,-3.1112,-3.0844,0.0,-3.0212,-2.9982,-2.9879,-3.0073,-3.0462,-3.0791,-3.0791,-3.118,-3.1205,-3.0178,-2.9867,-2.9482,-2.8625,-2.8753,-2.8988,-2.9139,-2.9528,-2.9993,-3.0557,-3.0746,-3.0884,-3.1047,-3.1399,-3.1851,-3.2416,-3.2453,-3.2641,-3.3056,-3.3081,-3.3081,-3.3081,-3.3081,-3.3081,-3.3081,-3.3081,-3.3081,-3.3081,-3.3081,-3.3081,-3.3068,-3.2641,-3.224,-3.1851,-3.1851,-3.1763,-3.1625,-3.1625,-3.1524,-3.1348,-3.0972,-3.0834,-3.0783,-3.0382,-3.0043,-2.9792,0.0,0.0,0.0,0.0,0.0,0.0,0.0,0.0,0.0,0.0,0.0,0.0,0.0,0.0,-3.6643,-3.7135,-3.7614,-3.8132,-3.8658,-3.8707,-3.8707,-3.8707,-3.8707,-3.8815,-3.9072,-3.9451,-3.9637,-3.9637,-4.0779,-4.0779,-3.9717,-4.0533,-4.0476,-3.9637,-3.9282,-3.9125,-3.9072,-3.8815,-3.8707,-3.8658,-3.8117,-3.7893,-3.7755,-3.6786,-3.6374,-3.6291,-3.5783,0.0,-3.5622,-3.5622,-3.4641,-3.344,-3.344,-3.2425,0.0,-3.207,-3.278,-3.3212,-3.2524,-3.1897,-3.1469,-3.1353,-3.0928,-3.0657,-3.1258,-3.1437,-3.1437,-3.1437,-3.1467,-3.1661,-3.2303,-3.0988,-3.0154,-3.1323,-3.0019,-2.9126,-2.9691,-2.9779,-2.9993,-3.0557,-3.106,-3.1574,0.0,-3.2177,-3.2428,-3.3006,-3.3056,-3.3056,-3.3081,-3.3081,-3.3081,-3.3081,-3.3081,-3.3081,-3.3081,-3.3081,-3.3081,-3.3081,-3.3081,-3.3081,-3.3081,-3.3056,-3.3043,-3.3031,-3.3031,-3.2704,-3.219,-3.219,-3.1876,-3.1386,-3.1373,-3.1361,-3.1361,-3.1348,-3.0683,-2.9792,0.0,0.0,0.0,0.0,0.0,0.0,0.0,0.0,0.0,0.0,0.0,0.0,0.0,0.0,0.0,0.0,-3.779,-3.8132,-3.8658,-3.8707,-3.8707,-3.8707,-3.8707,-3.8732,-3.8844,-3.9117,-3.9264,-3.9264,-3.9886,-3.9977,-3.9599,-3.9882,-3.9768,-3.9264,-3.9133,-3.8999,-3.8815,-3.875,-3.8496,-3.815,-3.7614,-3.721,-3.6825,-3.6122,-3.5854,-3.5871,0.0,0.0,-3.5622,-3.5622,-3.4962,-3.4218,-3.4726,-3.3527,-3.1984,-3.1782,-3.1873,-3.2026,-3.1799,0.0,-3.1436,-3.1475,-3.1336,-3.124,-3.1422,-3.1482,-3.1482,-3.1482,-3.1884,-3.205,-3.1716,-3.1273,-3.0966,-3.0828,-3.0041,-2.9566,-2.9767,-3.0105,-3.0532,-3.1072,-3.1599,0.0,0.0,0.0,0.0,-3.3056,-3.3081,-3.3081,-3.3081,-3.3081,-3.3081,-3.3081,-3.3081,-3.3081,-3.3081,-3.3081,-3.3081,-3.3081,-3.3081,-3.3081,-3.3081,-3.3081,-3.3081,-3.3081,-3.3081,-3.2968,-3.278,-3.278,-3.2679,-3.2466,-3.2089,-3.1938,-3.1888,-3.1524,-3.116,-3.0796,0.0,0.0,0.0,0.0,0.0,0.0,0.0,0.0,0.0,0.0,0.0,0.0,0.0,0.0,0.0,0.0,0.0,-3.8332,-3.8676,-3.8707,-3.8707,-3.8707,-3.8707,-3.8732,-3.8844,-3.9008,-3.9099,-3.9099,-3.9333,-3.9358,-3.9294,-3.9294,-3.9163,-3.8961,-3.8961,-3.8855,-3.8707,-3.8707,-3.8382,-3.7859,-3.7396,-3.6882,-3.6333,-3.581,-3.5622,0.0,0.0,0.0,-3.5267,-3.552,-3.5115,-3.453,-3.4779,-3.3881,-3.2708,-3.2271,-3.2337,-3.2433,-3.1977,-3.1836,-3.1797,-3.1577,-3.1482,-3.1482,-3.1482,-3.1482,-3.1482,-3.1482,-3.2063,-3.2392,-3.2068,-3.1754,-3.1639,-3.1662,-3.0895,-3.0279,-3.0279,-3.0765,-3.1169,-3.1405,-3.1876,-3.2441,0.0,0.0,0.0,-3.3081,-3.3081,-3.3081,-3.3081,-3.3081,-3.3081,-3.3081,-3.3081,-3.3081,-3.3081,-3.3081,-3.3081,-3.3081,-3.3081,-3.3081,-3.3081,-3.3081,-3.3081,-3.3081,-3.3081,-3.3081,-3.3081,-3.3081,-3.3081,-3.3043,-3.2667,-3.2516,-3.2478,-3.2114,-3.1989,-3.1888,0.0,0.0,0.0,0.0,0.0,0.0,0.0,0.0,0.0,0.0,0.0,0.0,0.0,0.0,0.0,0.0,0.0,0.0,-3.8707,-3.8707,-3.8707,-3.8707,-3.8707,-3.8815,-3.9072,-3.9072,-3.9072,-3.9072,-3.9072,-3.8961,-3.8707,-3.8707,-3.8707,-3.8707,-3.8707,-3.8658,-3.8658,-3.8658,-3.835,-3.779,-3.7323,-3.6843,-3.6291,-3.5766,0.0,0.0,0.0,0.0,-3.4556,-3.5318,-3.5036,-3.4341,-3.3631,-3.3397,-3.343,-3.3383,-3.3906,-3.4186,-3.2895,-3.2532,-3.2382,-3.1682,-3.1482,-3.1482,-3.1482,-3.1482,-3.1482,-3.1482,-3.2063,-3.2706,-3.3335,-3.2434,-3.2097,-3.3665,-3.2294,-3.1106,-3.1106,-3.1632,-3.1837,0.0,0.0,0.0,0.0,0.0,0.0,-3.3081,0.0,-3.3081,-3.3081,-3.3081,-3.3081,-3.3081,-3.3081,-3.3081,-3.3081,-3.3081,-3.3081,-3.3081,-3.3081,-3.3081,-3.3081,-3.3081,-3.3081,-3.3081,-3.3081,-3.3081,-3.3081,-3.3081,-3.3081,-3.3081,-3.3081,-3.3081,-3.3081,-3.3081,-3.3081,-3.293,0.0,0.0,0.0,0.0,0.0,0.0,0.0,0.0,0.0,0.0,0.0,0.0,0.0,0.0,0.0,0.0,0.0,0.0,-3.867,-3.8707,-3.8707,-3.8707,-3.8707,-3.8719,-3.8803,-3.8803,-3.8803,-3.8803,-3.8803,-3.8762,-3.8707,-3.8707,-3.8707,-3.8707,-3.8707,-3.8465,-3.8099,-3.8099,-3.7578,-3.6786,0.0,-3.6291,-3.5783,0.0,0.0,0.0,0.0,0.0,0.0,0.0,0.0,0.0,-3.231,-3.2332,-3.2735,-3.2144,-3.2158,-3.2201,-3.1894,-3.1796,-3.1754,-3.1539,-3.1482,-3.1482,-3.1482,-3.1482,-3.1482,-3.1482,-3.2063,-3.2557,-3.2736,-3.2133,-3.1751,-3.218,-3.1063,0.0,-3.0139,-3.0953,0.0,-3.1455,0.0,-3.2918,-3.3068,-3.3081,0.0,0.0,-3.3081,-3.3081,-3.3081,-3.3081,-3.3081,-3.3081,-3.3081,-3.3081,-3.3081,-3.3081,-3.3081,-3.3081,-3.3081,-3.3081,-3.3081,-3.3081,-3.3081,-3.3081,-3.3081,-3.3081,-3.3081,-3.3081,-3.3081,-3.3081,-3.3081,-3.3081,-3.3081,-3.3081,-3.3081,-3.3031,0.0,0.0,0.0,0.0,0.0,0.0,0.0,0.0,0.0,0.0,0.0,0.0,0.0,0.0,0.0,0.0,0.0,0.0,0.0,-3.815,-3.835,-3.835,-3.8578,-3.8707,-3.8707,-3.8707,-3.8707,-3.8707,-3.8707,-3.8707,-3.8707,-3.8707,-3.8707,-3.8707,-3.8465,-3.8183,-3.7911,-3.7685,0.0,0.0,0.0,0.0,0.0,0.0,0.0,0.0,0.0,0.0,0.0,0.0,0.0,-3.3006,-3.2514,-3.2444,-3.2547,-3.212,0.0,-3.191,-3.1582,-3.1482,-3.1482,-3.1482,-3.1482,-3.1482,-3.1482,-3.1482,-3.1482,-3.1482,-3.2063,-3.2512,-3.2512,-3.2033,-3.1778,0.0,0.0,0.0,-3.0419,-3.1369,-3.1847,0.0,-3.239,0.0,-3.3081,-3.3081,-3.3081,0.0,-3.3081,-3.3081,-3.3081,-3.3081,-3.3081,-3.3081,-3.3081,-3.3081,-3.3081,-3.3081,-3.3081,-3.3081,-3.3081,-3.3081,-3.3081,-3.3081,-3.3081,-3.3081,0.0,-3.3081,-3.3081,-3.3081,-3.3081,-3.3081,-3.3081,-3.3081,-3.3081,-3.3081,-3.3081,-3.3081,0.0,0.0,0.0,0.0,0.0,0.0,0.0,0.0,0.0,0.0,0.0,0.0,0.0,0.0,0.0,0.0,0.0,0.0,0.0,0.0,0.0,-3.7662,-3.8245,-3.8578,-3.8578,-3.8578,-3.8627,-3.8707,-3.8707,-3.8658,-3.8578,-3.8578,-3.8546,0.0,0.0,0.0,0.0,0.0,0.0,0.0,0.0,0.0,0.0,0.0,0.0,0.0,0.0,0.0,0.0,0.0,-3.188,-3.2555,-3.3151,-3.2933,-3.2437,-3.2437,-3.2437,-3.2327,-3.1682,-3.1482,-3.1482,-3.1482,-3.1482,-3.1482,-3.1482,-3.1482,-3.1482,-3.1482,0.0,-3.2377,-3.2377,-3.1911,-3.1776,-3.2644,0.0,-3.1014,-3.1031,-3.1952,-3.229,-3.1468,-3.239,-3.3081,-3.3081,-3.3081,-3.3081,-3.3081,-3.3081,-3.3081,-3.3081,-3.3081,-3.3081,-3.3081,-3.3081,-3.3081,-3.3081,-3.3081,-3.3081,-3.3081,-3.3081,-3.3081,-3.3081,-3.3081,-3.3081,-3.3081,-3.3081,-3.3081,-3.3081,-3.3081,-3.3081,-3.3081,-3.3081,-3.3081,-3.3081,-3.3081,-3.3081,-3.3081,0.0,0.0,0.0,0.0,0.0,0.0,0.0,0.0,0.0,0.0,-3.1252,-3.1329,0.0,0.0,0.0,0.0,0.0,0.0,0.0,0.0,0.0,0.0,-3.7448,-3.8032,-3.8032,-3.8032,-3.8267,-3.8707,-3.8707,-3.8465,-3.8032,-3.8032,-3.7843,0.0,0.0,0.0,0.0,0.0,0.0,0.0,0.0,0.0,0.0,0.0,0.0,0.0,0.0,0.0,0.0,0.0,-3.1483,-3.1636,-3.181,-3.1796,-3.1697,-3.1697,-3.1697,-3.164,-3.1524,-3.1482,-3.1482,-3.1482,-3.1482,-3.1482,-3.1482,-3.1482,0.0,0.0,-3.1556,-3.1646,-3.1646,-3.1416,-3.1168,-3.1015,-3.064,-3.0285,-3.0075,-3.0934,-3.1618,0.0,-3.239,-3.3081,-3.3081,-3.3081,0.0,0.0,0.0,-3.3081,-3.3081,-3.3081,-3.3081,-3.3081,-3.3081,-3.3081,-3.3081,-3.3081,-3.3081,-3.3081,-3.3081,-3.3081,-3.3081,-3.3081,-3.3081,-3.3081,-3.3081,0.0,-3.3081,-3.3081,-3.3081,-3.3081,-3.3081,-3.3081,-3.3081,-3.3081,-3.3081,-3.3081,0.0,0.0,0.0,0.0,0.0,0.0,0.0,-3.0081,-3.0477,-3.1112,-3.119,-3.1291,-3.1507,-3.1696,0.0,0.0,0.0,0.0,0.0,0.0,0.0,0.0,0.0,0.0,0.0,-3.6898,0.0,0.0,0.0,0.0,0.0,0.0,0.0,0.0,0.0,0.0,0.0,0.0,0.0,0.0,0.0,0.0,0.0,0.0,0.0,0.0,0.0,0.0,0.0,0.0,-3.1399,-3.1455,-3.1477,-3.1482,-3.1482,-3.1482,-3.1482,-3.1482,-3.1482,-3.1482,-3.1482,-3.1482,-3.1482,-3.1482,-3.1482,0.0,0.0,0.0,-3.1482,-3.1482,-3.1482,-3.1304,0.0,-3.0876,-3.0485,-3.0137,-3.0005,-3.0823,0.0,-3.1386,-3.239,-3.3081,0.0,-3.3081,-3.3081,0.0,0.0,-3.3081,-3.3081,-3.3081,-3.3081,-3.3081,-3.3081,-3.3081,-3.3081,-3.3081,-3.3081,-3.3081,-3.3081,-3.3081,-3.3081,-3.3081,-3.3081,-3.3081,-3.3081,0.0,-3.3081,-3.3081,-3.3081,-3.3081,-3.3081,-3.3081,-3.3081,-3.3081,-3.3081,-3.3081,0.0,0.0,0.0,0.0,0.0,0.0,0.0,-2.9447,-2.9943,-3.1038,-3.119,-3.1312,-3.164,-3.166,-3.1842,0.0,0.0,0.0,0.0,0.0,0.0,0.0,0.0,0.0,0.0,0.0,0.0,0.0,0.0,0.0,0.0,0.0,0.0,0.0,0.0,0.0,0.0,0.0,0.0,0.0,0.0,0.0,0.0,0.0,0.0,0.0,0.0,0.0,0.0,0.0,-3.1458,-3.1482,-3.1482,-3.1482,-3.1482,-3.1482,-3.1482,-3.1482,-3.1482,-3.1482,-3.1482,-3.1482,-3.1482,-3.1482,-3.1482,-3.1482,0.0,-3.1482,-3.1482,-3.1482,-3.1482,-3.1322,-3.1185,0.0,-3.0812,-3.0521,-3.0237,-3.1074,-3.1618,0.0,-3.239,0.0,-3.3081,-3.3081,0.0,0.0,0.0,0.0,-3.3081,-3.3081,-3.3081,-3.3081,-3.3081,-3.3081,-3.3081,-3.3081,-3.3081,-3.3081,-3.3081,-3.3081,-3.3081,-3.3081,-3.3081,-3.3081,-3.3081,0.0,0.0,-3.3081,-3.3081,-3.3081,-3.3081,-3.3081,-3.3081,-3.3081,-3.3081,-3.3081,0.0,0.0,0.0,0.0,0.0,0.0,0.0,-2.9676,-3.0314,-3.1106,-3.119,-3.123,-3.1252,-3.1269,-3.1252,0.0,0.0,0.0,0.0,0.0,0.0,0.0,0.0,0.0,0.0,0.0,0.0,0.0,0.0,0.0,0.0,0.0,0.0,0.0,0.0,0.0,0.0,0.0,0.0,0.0,0.0,0.0,0.0,0.0,0.0,0.0,0.0,0.0,0.0,0.0,0.0,-3.1482,-3.1482,-3.1482,-3.1482,-3.1482,0.0,0.0,-3.1482,-3.1482,-3.1482,-3.1482,-3.1482,-3.1482,-3.1482,0.0,-3.1482,-3.1482,-3.1482,-3.1482,-3.1482,-3.1453,-3.1368,-3.1118,0.0,-3.1545,-3.0374,-3.1662,-3.2369,-3.1468,0.0,0.0,-3.3081,-3.3081,0.0,0.0,0.0,0.0,-3.3081,-3.3081,-3.3081,-3.3081,-3.3081,-3.3081,-3.3081,-3.3081,-3.3081,-3.3081,-3.3081,-3.3081,-3.3081,-3.3081,-3.3081,-3.3081,-3.3081,0.0,0.0,-3.3081,-3.3081,-3.3081,-3.3081,-3.3081,-3.3081,-3.3081,-3.3081,-3.3081,0.0,0.0,0.0,0.0,0.0,0.0,-2.8354,-2.8738,-2.9142,-2.9783,-3.026,-3.0548,-3.0548,-3.092,-3.119,0.0,0.0,0.0,0.0,0.0,0.0,0.0,0.0,0.0,0.0,0.0,0.0,0.0,0.0,0.0,0.0,0.0,0.0,0.0,0.0,0.0,0.0,0.0,0.0,0.0,0.0,0.0,0.0,0.0,0.0,0.0,0.0,0.0,0.0,0.0,0.0,0.0,-3.1482,-3.1482,0.0,0.0,-3.1482,-3.1482,-3.1482,-3.1482,-3.1482,-3.1482,-3.1482,-3.1482,-3.1482,0.0,-3.1482,-3.1482,-3.1482,-3.1482,-3.1482,-3.1482,-3.1498,-3.1368,0.0,0.0,-3.1386,-3.2746,-3.3349,-3.2369,-3.3325,0.0,0.0,0.0,-3.3081,0.0,0.0,0.0,-3.3081,-3.3081,-3.3081,-3.3081,-3.3081,-3.3081,-3.3081,-3.3081,-3.3081,-3.3081,-3.3081,-3.3081,-3.3081,-3.3081,-3.3081,-3.3081,-3.3081,0.0,0.0,-3.3081,-3.3081,-3.3081,-3.3081,-3.3081,-3.3081,-3.3081,-3.3081,-3.3081,0.0,0.0,0.0,0.0,0.0,-2.6461,-2.7633,-2.7899,-2.8265,-2.8904,-2.9448,-2.977,-2.977,-3.0243,-3.0632,-3.0852,0.0,0.0,0.0,0.0,0.0,0.0,0.0,0.0,0.0,0.0,0.0,-3.2763,0.0,0.0,0.0,0.0,0.0,0.0,0.0,0.0,0.0,0.0,0.0,0.0,0.0,0.0,0.0,0.0,0.0,0.0,0.0,0.0,0.0,0.0,0.0,0.0,0.0,0.0,0.0,0.0,-3.1482,-3.1482,-3.1482,-3.1482,-3.1482,-3.1482,-3.1482,-3.1482,0.0,0.0,-3.1482,-3.1482,-3.1482,-3.1482,-3.1482,-3.1482,-3.1482,-3.1482,0.0,-3.2411,-3.2141,-3.3677,-3.4491,0.0,0.0,-3.4733,0.0,-3.3326,-3.3081,0.0,0.0,0.0,-3.3081,-3.3081,-3.3081,-3.3081,-3.3081,-3.3081,-3.3081,-3.3081,-3.3081,-3.3081,-3.3081,-3.3081,-3.3081,-3.3081,-3.3081,-3.3081,-3.3081,0.0,0.0,-3.3081,-3.3081,-3.3081,-3.3081,-3.3081,-3.3081,-3.3081,-3.3081,-3.3081,0.0,0.0,0.0,0.0,0.0,0.0,-2.6928,-2.7487,-2.8076,-2.8873,-2.9028,-2.8991,-2.8991,-2.9045,-2.9313,-3.0057,0.0,0.0,0.0,0.0,0.0,0.0,0.0,0.0,0.0,0.0,0.0,-3.1207,-3.1207,-3.1207,-3.1207,0.0,0.0,0.0,0.0,0.0,0.0,0.0,0.0,0.0,0.0,0.0,0.0,0.0,0.0,0.0,0.0,0.0,0.0,0.0,0.0,0.0,0.0,0.0,0.0,0.0,-3.1482,-3.1482,-3.1482,-3.1482,-3.1482,-3.1482,-3.1482,-3.1482,0.0,0.0,-3.1482,-3.1482,-3.1482,-3.1482,-3.1482,-3.1482,-3.1482,-3.1482,-3.2632,0.0,-3.2219,-3.4275,0.0,0.0,0.0,-3.5814,-3.4746,-3.3713,0.0,0.0,0.0,0.0,-3.3081,-3.3081,-3.3081,-3.3081,-3.3081,-3.3081,-3.3081,-3.3081,-3.3081,-3.3081,-3.3081,-3.3081,-3.3081,-3.3081,-3.3081,-3.3081,0.0,0.0,0.0,-3.3081,-3.3081,-3.3081,-3.3081,-3.3081,-3.3081,-3.3081,-3.3081,-3.3081,0.0,0.0,0.0,0.0,0.0,0.0,0.0,-2.594,-2.6096,-2.6379,-2.7172,-2.769,-2.769,-2.8471,-2.9076,-2.9313,0.0,0.0,0.0,0.0,0.0,0.0,0.0,0.0,0.0,0.0,-3.119,-3.119,-3.119,-3.119,-3.119,-3.119,-3.119,0.0,0.0,0.0,0.0,0.0,0.0,0.0,0.0,0.0,0.0,0.0,0.0,0.0,0.0,0.0,0.0,0.0,0.0,0.0,0.0,0.0,0.0,-3.1482,-3.1482,0.0,-3.1482,-3.1482,-3.1482,-3.1482,-3.1482,-3.1482,-3.1482,-3.1482,-3.1482,-3.1482,-3.1482,-3.1482,-3.1482,-3.1482,-3.1482,-3.1482,-3.2647,0.0,0.0,0.0,0.0,-3.443,-3.4179,-3.394,0.0,0.0,0.0,0.0,0.0,0.0,-3.3081,-3.3081,-3.3081,-3.3081,-3.3081,-3.3081,-3.3081,-3.3081,-3.3081,-3.3081,-3.3081,-3.3081,-3.3081,-3.3081,-3.3081,0.0,0.0,0.0,0.0,-3.3081,-3.3081,-3.3081,-3.3081,-3.3081,-3.3081,-3.3081,-3.3081,-3.3081,0.0,0.0,0.0,0.0,0.0,0.0,0.0,-2.5373,-2.5577,-2.5746,-2.6465,-2.6945,-2.6945,-2.7683,-2.8159,-2.8283,0.0,0.0,0.0,0.0,0.0,0.0,0.0,0.0,0.0,-3.0518,-3.0518,-3.0518,-3.0518,-3.0518,-3.0518,-3.0518,-3.0518,-3.0518,-3.0123,0.0,0.0,0.0,0.0,0.0,0.0,0.0,-2.9945,0.0,0.0,0.0,0.0,0.0,0.0,0.0,0.0,0.0,0.0,0.0,0.0,0.0,-3.1482,-3.1482,0.0,-3.1482,-3.1482,-3.1482,-3.1482,0.0,0.0,-3.1482,-3.1482,-3.1482,-3.1482,-3.1482,-3.1482,-3.1482,-3.1556,-3.1869,-3.2796,-3.3451,0.0,0.0,0.0,-3.5065,0.0,0.0,0.0,0.0,0.0,0.0,0.0,0.0,-3.3081,-3.3081,-3.3081,-3.3081,-3.3081,-3.3081,-3.3081,-3.3081,-3.3081,-3.3081,-3.3081,-3.3081,-3.3081,-3.3081,-3.3081,0.0,0.0,0.0,0.0,-3.3081,-3.3081,-3.3081,-3.3081,-3.3081,-3.3081,-3.3081,-3.3081,-3.3081,0.0,0.0,0.0,0.0,0.0,0.0,0.0,0.0,-2.6104,-2.6556,-2.6624,-2.6657,-2.6657,-2.6657,-2.6756,-2.7044,0.0,0.0,0.0,0.0,0.0,0.0,0.0,0.0,0.0,-2.9406,-2.9406,-2.9406,-2.9406,-2.9406,-2.9406,-2.9406,-2.9406,-2.9406,-2.9361,0.0,0.0,0.0,0.0,0.0,0.0,0.0,0.0,0.0,0.0,0.0,0.0,0.0,0.0,0.0,0.0,0.0,0.0,0.0,0.0,0.0,0.0,0.0,0.0,-3.1482,-3.1482,-3.1482,0.0,0.0,0.0,-3.1482,0.0,-3.1482,-3.1482,-3.1482,-3.1482,-3.1482,-3.1691,-3.2407,-3.3066,-3.3413,0.0,-3.4679,0.0,0.0,-3.5197,0.0,-3.4664,0.0,0.0,0.0,0.0,0.0,-3.3081,-3.3081,-3.3081,-3.3081,-3.3081,-3.3081,-3.3081,-3.3081,-3.3081,-3.3081,-3.3081,-3.3081,-3.3081,-3.3081,-3.3081,0.0,0.0,0.0,0.0,-3.3081,-3.3081,-3.3081,-3.3081,-3.3081,-3.3081,-3.3081,-3.3081,-3.3081,0.0,0.0,0.0,0.0,0.0,0.0,0.0,0.0,0.0,0.0,-2.5908,-2.6139,-2.6139,-2.6139,-2.6329,0.0,0.0,0.0,0.0,0.0,0.0,0.0,0.0,0.0,0.0,-2.9406,-2.9406,-2.9406,-2.9406,-2.9406,-2.9406,-2.9406,-2.9406,-2.9361,-2.8919,0.0,0.0,0.0,0.0,0.0,0.0,0.0,0.0,0.0,0.0,0.0,-3.1106,-3.1405,0.0,0.0,0.0,0.0,0.0,0.0,0.0,0.0,-3.1482,-3.1482,-3.1482,0.0,-3.1482,-3.1482,-3.1482,-3.1482,0.0,0.0,0.0,0.0,0.0,-3.1482,-3.1482,-3.1482,-3.1691,-3.2407,-3.3066,-3.3561,-3.3653,0.0,0.0,-3.4967,-3.4108,-3.3797,0.0,0.0,0.0,0.0,0.0,-3.3081,-3.3081,-3.3081,-3.3081,-3.3081,-3.3081,-3.3081,-3.3081,-3.3081,-3.3081,-3.3081,-3.3081,-3.3081,-3.3081,-3.3081,-3.3081,0.0,0.0,0.0,-3.3081,-3.3081,-3.3081,-3.3081,-3.3081,-3.3081,-3.3081,-3.3081,-3.3081,-3.3081,0.0,0.0,0.0,0.0,0.0,0.0,0.0,0.0,0.0,0.0,0.0,0.0,0.0,0.0,0.0,0.0,0.0,0.0,0.0,0.0,0.0,0.0,0.0,0.0,-2.8591,-2.8575,-2.8575,-2.8575,-2.8575,-2.8575,-2.8575,-2.8575,-2.8575,-2.8543,-2.8222,-2.8091,-2.8091,0.0,0.0,0.0,-2.9062,0.0,0.0,0.0,0.0,0.0,-3.1405,-3.1482,0.0,-3.1482,-3.1482,-3.1482,0.0,0.0,0.0,0.0,-3.1482,-3.1482,-3.1482,-3.1482,-3.1482,-3.1482,-3.1482,-3.1482,-3.1482,0.0,0.0,0.0,0.0,-3.1482,-3.1482,-3.1397,-3.1677,-3.2796,-3.2771,0.0,0.0,0.0,0.0,-3.468,-3.4191,-3.3869,0.0,0.0,0.0,0.0,0.0,-3.3081,-3.3081,-3.3081,-3.3081,-3.3081,-3.3081,-3.3081,-3.3081,-3.3081,-3.3081,-3.3081,-3.3081,-3.3081,-3.3081,-3.3081,-3.3081,0.0,0.0,0.0,-3.3081,-3.3081,-3.3081,-3.3081,-3.3081,-3.3081,-3.3081,-3.3081,-3.3081,-3.3081,0.0,0.0,0.0,0.0,0.0,0.0,0.0,0.0,0.0,0.0,0.0,0.0,0.0,0.0,0.0,0.0,0.0,0.0,0.0,0.0,0.0,0.0,0.0,-2.8033,-2.761,-2.7625,-2.7625,-2.7625,-2.7625,-2.7625,-2.7625,-2.7625,-2.7625,-2.7625,-2.7625,-2.7625,-2.7625,-2.7679,0.0,0.0,-2.8816,0.0,0.0,0.0,0.0,0.0,0.0,0.0,0.0,-3.1482,-3.1482,-3.1482,-3.1482,0.0,0.0,0.0,0.0,0.0,-3.1482,-3.1482,-3.1482,-3.1482,-3.1482,-3.1482,-3.1482,0.0,0.0,0.0,0.0,0.0,-3.1601,-3.1483,0.0,0.0,0.0,0.0,-3.3957,-3.464,-3.4979,-3.4775,-3.4594,0.0,0.0,0.0,0.0,0.0,0.0,-3.3081,-3.3081,-3.3081,-3.3081,-3.3081,-3.3081,-3.3081,-3.3081,-3.3081,-3.3081,-3.3081,-3.3081,-3.3081,-3.3081,-3.3081,-3.3081,-3.3081,0.0,0.0,-3.3081,-3.3081,-3.3081,-3.3081,-3.3081,-3.3081,-3.3081,-3.3081,-3.3081,-3.3081,0.0,0.0,0.0,0.0,0.0,0.0,0.0,0.0,0.0,0.0,0.0,0.0,0.0,0.0,0.0,0.0,0.0,0.0,0.0,0.0,0.0,0.0,-2.6522,-2.709,-2.761,-2.7625,-2.7625,-2.7625,-2.7625,-2.7625,-2.7625,-2.7625,-2.7625,-2.7625,-2.7625,-2.7625,-2.7655,-2.8203,-2.8502,-2.8697,-2.9774,0.0,0.0,0.0,0.0,0.0,0.0,0.0,0.0,-3.1482,-3.1482,-3.1482,-3.1482,0.0,0.0,0.0,0.0,0.0,-3.1482,-3.1482,-3.1482,-3.1482,-3.1482,-3.1482,-3.1482,0.0,0.0,0.0,0.0,0.0,0.0,-3.2318,-3.272,0.0,0.0,-3.3663,0.0,0.0,-3.3779,-3.4581,0.0,0.0,0.0,0.0,0.0,0.0,0.0,-3.3081,-3.3081,-3.3081,-3.3081,-3.3081,-3.3081,-3.3081,-3.3081,-3.3081,-3.3081,-3.3081,-3.3081,-3.3081,-3.3081,-3.3081,-3.3081,-3.3081,0.0,-3.3081,-3.3081,-3.3081,-3.3081,-3.3081,-3.3081,-3.3081,-3.3081,-3.3081,-3.3081,-3.3081,0.0,0.0,0.0,0.0,0.0,0.0,0.0,0.0,0.0,0.0,0.0,0.0,0.0,0.0,0.0,0.0,0.0,0.0,0.0,0.0,0.0,-2.557,-2.5899,-2.6527,-2.7595,-2.7625,-2.7625,-2.7625,-2.7625,-2.7625,-2.7625,-2.7625,-2.7625,-2.764,-2.7964,-2.8128,-2.8173,-2.8846,-2.9325,-2.9684,0.0,0.0,0.0,0.0,0.0,0.0,0.0,0.0,0.0,0.0,-3.1482,-3.1482,-3.1482,0.0,0.0,0.0,0.0,0.0,-3.0837,-3.1161,-3.1278,-3.0389,-3.0524,-3.0837,-3.0837,0.0,0.0,0.0,0.0,0.0,0.0,0.0,-3.1724,-3.2553,0.0,-3.4864,-3.3797,-3.4763,0.0,0.0,0.0,0.0,0.0,0.0,0.0,0.0,0.0,0.0,-3.3081,-3.3081,-3.3081,-3.3081,-3.3081,-3.3081,-3.3081,-3.3081,-3.3081,-3.3081,-3.3081,-3.3081,-3.3081,-3.3081,-3.3081,-3.3081,0.0,-3.3081,-3.3081,-3.3081,-3.3081,-3.3081,-3.3081,-3.3081,-3.3081,-3.3081,-3.3081,-3.3081,0.0,0.0,0.0,0.0,0.0,0.0,0.0,0.0,0.0,0.0,0.0,0.0,0.0,0.0,0.0,0.0,0.0,0.0,0.0,0.0,-2.4373,-2.5555,-2.5749,-2.6378,-2.7595,-2.7625,-2.7625,-2.7625,-2.7625,-2.7625,-2.7625,-2.779,-2.7814,-2.7844,-2.8532,-2.8831,-2.8876,-2.952,-3.0073,-3.0507,0.0,0.0,0.0,0.0,0.0,0.0,0.0,0.0,0.0,0.0,0.0,0.0,0.0,0.0,0.0,-3.1219,-3.0777,-3.0011,-3.0269,-3.0777,-3.0837,-2.938,0.0,0.0,0.0,0.0,0.0,0.0,0.0,0.0,0.0,-3.1861,0.0,-3.1988,-3.3859,-3.5054,-3.4369,0.0,0.0,0.0,0.0,0.0,0.0,0.0,0.0,0.0,0.0,0.0,-3.3081,-3.3081,-3.3081,-3.3081,-3.3081,-3.3081,-3.3081,-3.3081,-3.3081,-3.3081,-3.3081,-3.3081,-3.3081,-3.3081,-3.3081,-3.3081,-3.3081,-3.3081,-3.3081,-3.3081,-3.3081,-3.3081,-3.3081,-3.3081,-3.3081,-3.3081,-3.3081,-3.3081,0.0,0.0,0.0,0.0,0.0,0.0,0.0,0.0,0.0,0.0,0.0,0.0,0.0,0.0,0.0,0.0,0.0,0.0,0.0,0.0,-2.4866,-2.557,-2.6198,-2.6841,-2.761,-2.7625,-2.7625,-2.7625,-2.7625,-2.7625,-2.7625,-2.8233,-2.8532,-2.8562,-2.922,-2.9505,-2.9549,-3.0178,-3.0462,-3.0552,-3.121,0.0,0.0,0.0,0.0,0.0,0.0,0.0,0.0,0.0,0.0,0.0,0.0,0.0,-2.938,-3.1029,-3.0329,-2.9254,-3.0072,-3.0329,-3.0147,-2.9254,-3.0208,0.0,-3.0464,-3.0896,0.0,-3.0524,0.0,0.0,0.0,-3.3062,-3.3962,-3.4636,-3.3751,-3.3237,0.0,0.0,0.0,0.0,0.0,0.0,0.0,0.0,0.0,0.0,0.0,0.0,-3.3081,-3.3081,-3.3081,-3.3081,-3.3081,-3.3081,-3.3081,-3.3081,-3.3081,-3.3081,-3.3081,-3.3081,-3.3081,-3.3081,-3.3081,-3.3081,-3.3081,-3.3081,-3.3081,-3.3081,-3.3081,-3.3081,-3.3081,-3.3081,-3.3081,-3.3081,-3.3081,-3.3081,0.0,0.0,0.0,0.0,0.0,0.0,0.0,0.0,0.0,0.0,0.0,0.0,0.0,0.0,0.0,0.0,0.0,0.0,0.0,0.0,-2.4881,-2.5585,-2.6243,-2.6901,-2.761,-2.7625,-2.7625,-2.7625,-2.7625,-2.7784,-2.8218,-2.8472,-2.8816,-2.9235,-2.9879,-3.0163,-3.0193,-3.0866,-3.115,-3.1165,-3.1377,-3.1482,0.0,0.0,0.0,0.0,0.0,0.0,0.0,0.0,-3.0524,-3.0269,-3.0011,-2.9129,-2.8427,-2.9566,-2.9129,-2.8247,-2.862,-2.9066,-2.9192,-2.7802,-2.9129,0.0,0.0,-2.9752,-3.0111,-3.0744,-3.1326,0.0,0.0,0.0,-3.4229,-3.4862,-3.4894,-3.4774,0.0,0.0,0.0,0.0,0.0,0.0,0.0,0.0,0.0,0.0,0.0,0.0,-3.3154,-3.3081,-3.3081,-3.3081,-3.3081,-3.3081,-3.3081,-3.3081,-3.3081,-3.3081,-3.3081,-3.3081,-3.3081,-3.3081,-3.3081,-3.3081,-3.3081,-3.3081,-3.3081,-3.3081,-3.3081,-3.3081,-3.3081,-3.3081,-3.3081,-3.3081,-3.3081,-3.3081,0.0,0.0,0.0,0.0,0.0,0.0,0.0,0.0,0.0,0.0,0.0,0.0,0.0,0.0,0.0,0.0,0.0,0.0,0.0,-2.4448,-2.5136,-2.5585,-2.6437,-2.7111,-2.761,-2.7625,-2.7625,-2.7625,-2.7784,-2.8143,-2.8607,-2.9011,-2.9445,-2.9909,-3.0552,-3.0836,-3.0866,-3.133,-3.1482,-3.1482,-3.1482,-3.1482,0.0,0.0,0.0,0.0,0.0,0.0,0.0,0.0,-2.969,-2.9442,-2.9129,-2.8247,-2.7537,-2.8684,-2.8182,-2.7351,-2.7604,-2.8117,-2.8298,-2.7162,0.0,0.0,-2.8812,-2.9408,-3.0225,-3.07,-3.1352,-3.224,-3.358,0.0,0.0,0.0,-3.5625,0.0,0.0,0.0,0.0,0.0,0.0,0.0,0.0,0.0,0.0,0.0,0.0,0.0,0.0,-3.3081,-3.3081,-3.3081,-3.3081,-3.3081,-3.3081,-3.3081,-3.3081,-3.3081,-3.3081,-3.3081,-3.3081,-3.3081,-3.3081,-3.3081,-3.3081,-3.3081,-3.3081,-3.3081,-3.3081,-3.3081,-3.3081,-3.3081,-3.3081,-3.3081,-3.3081,-3.3081,0.0,0.0,0.0,0.0,0.0,0.0,0.0,0.0,0.0,0.0,0.0,0.0,0.0,0.0,0.0,0.0,0.0,0.0,-2.361,-2.4866,-2.5615,-2.5615,-2.6871,-2.7625,-2.7625,-2.7625,-2.7625,-2.7625,-2.8263,-2.8607,-2.8652,-2.9909,-3.0507,-3.0537,-3.1225,-3.1482,-3.1482,-3.1482,-3.1482,-3.1482,-3.1482,-3.1482,-3.1482,0.0,0.0,0.0,0.0,0.0,0.0,0.0,-2.8427,-2.7855,-2.8684,-2.7868,-2.685,-2.8492,-2.7802,-2.6658,-2.7484,-2.767,-2.767,-2.767,0.0,0.0,-2.792,-3.0171,-3.2001,-3.0367,-3.1744,-3.3718,-3.524,-3.4691,0.0,-3.7044,0.0,0.0,0.0,0.0,0.0,0.0,0.0,0.0,0.0,0.0,0.0,0.0,0.0,0.0,0.0,-3.3081,-3.3081,-3.3081,-3.3081,-3.3081,-3.3081,-3.3081,-3.3081,-3.3081,-3.3081,-3.3081,-3.3081,-3.3081,-3.3081,-3.3081,-3.3081,-3.3081,-3.3081,-3.3081,-3.3081,-3.3081,-3.3081,-3.3081,-3.3081,-3.3081,-3.3081,-3.3081,0.0,0.0,0.0,0.0,0.0,0.0,0.0,0.0,0.0,0.0,0.0,0.0,0.0,0.0,0.0,0.0,0.0,0.0,-2.4298,-2.5136,-2.5809,-2.6273,-2.7126,-2.7625,-2.7625,-2.7625,-2.7814,-2.8293,-2.8502,-2.9056,-2.9939,-3.0328,-3.0761,-3.124,-3.1377,-3.1482,-3.1482,-3.1482,-3.1482,-3.1482,-3.1482,-3.1482,-3.1482,0.0,0.0,0.0,0.0,0.0,0.0,0.0,0.0,0.0,-2.7351,-2.6905,-2.6589,-2.7095,-2.6905,-2.6521,-2.6782,-2.685,0.0,-2.685,0.0,0.0,0.0,-2.9278,0.0,0.0,-3.3192,-3.475,-3.4499,0.0,0.0,-3.7127,0.0,0.0,0.0,0.0,0.0,0.0,0.0,0.0,0.0,0.0,0.0,0.0,0.0,0.0,0.0,-3.3081,-3.3081,-3.3081,-3.3081,-3.3081,-3.3081,-3.3081,-3.3081,-3.3081,-3.3081,-3.3081,-3.3081,-3.3081,-3.3081,-3.3081,-3.3081,-3.3081,-3.3081,-3.3081,-3.3081,-3.3081,-3.3081,-3.3081,-3.3081,-3.3081,-3.3081,-3.3081,0.0,0.0,0.0,0.0,0.0,0.0,0.0,0.0,0.0,0.0,0.0,0.0,0.0,0.0,0.0,0.0,0.0,0.0,0.0,0.0,-2.6183,-2.6572,-2.7215,-2.7625,-2.7625,-2.7844,-2.8308,-2.8996,-2.8996,-2.9505,-3.0507,-3.0791,-3.1135,-3.1482,-3.1482,-3.1482,-3.1467,-3.1161,-3.1029,-3.097,-3.0644,-3.0524,-3.0524,0.0,0.0,0.0,0.0,0.0,0.0,0.0,0.0,0.0,-2.6658,-2.6533,-2.6533,-2.6533,-2.6533,-2.6533,-2.6533,-2.6533,0.0,-2.6533,-2.685,-2.7535,-2.8772,0.0,0.0,0.0,-3.4442,-3.5279,-3.4691,-3.5067,0.0,0.0,0.0,0.0,0.0,0.0,0.0,0.0,0.0,0.0,0.0,0.0,0.0,0.0,0.0,0.0,0.0,-3.3471,-3.3556,-3.3081,-3.3081,-3.3081,-3.3081,-3.3081,-3.3081,-3.3081,-3.3081,-3.3081,-3.3081,-3.3081,-3.3081,-3.3081,-3.3081,-3.3081,-3.3081,-3.3081,-3.3081,-3.3081,-3.3081,-3.3081,-3.3081,-3.3081,-3.3081,-3.3081,0.0,0.0,0.0,0.0,0.0,0.0,0.0,0.0,0.0,0.0,0.0,0.0,0.0,0.0,0.0,0.0,0.0,0.0,0.0,0.0,-2.6568,-2.6677,-2.7195,-2.7539,-2.7715,-2.8226,-2.883,-2.9545,-2.9669,-2.9983,-3.0612,-3.124,-3.1467,-3.1409,-3.1467,-3.1409,-3.1219,-3.0584,-3.0269,-3.0133,-2.9317,-2.9002,-2.9002,-2.9002,0.0,0.0,0.0,0.0,0.0,0.0,0.0,0.0,-2.6533,-2.6533,-2.6533,-2.6533,-2.6533,-2.6533,-2.6533,-2.6533,-2.6533,-2.6533,-2.6589,0.0,-3.0455,-3.1738,-3.2917,-3.4946,0.0,-3.5439,-3.5359,-3.5439,-3.5923,0.0,0.0,0.0,0.0,0.0,0.0,0.0,0.0,0.0,0.0,0.0,0.0,0.0,0.0,0.0,0.0,-3.4191,-3.4191,-3.3154,-3.3081,-3.3081,-3.3081,-3.3081,-3.3081,-3.3081,-3.3081,-3.3081,-3.3081,-3.3081,-3.3081,-3.3081,-3.3081,-3.3081,-3.3081,-3.3081,-3.3081,-3.3081,-3.3081,-3.3081,-3.3081,-3.3081,-3.3081,-3.3081,0.0,0.0,0.0,0.0,0.0,0.0,0.0,0.0,0.0,0.0,0.0,0.0,0.0,0.0,0.0,0.0,0.0,0.0,0.0,0.0,-2.622,-2.7335,-2.696,-2.7231,-2.8368,-2.7944,-2.8286,-2.9363,-3.0018,-3.0657,-3.1315,-3.1407,-3.1161,-3.0584,-3.1219,-3.0777,-2.9566,-3.0072,-2.9889,-2.9254,-2.9066,-2.9002,-2.9002,-2.9002,-2.9002,0.0,0.0,0.0,0.0,0.0,0.0,0.0,-2.6533,-2.6533,-2.6533,-2.6533,-2.6533,-2.6533,-2.6533,-2.6533,0.0,0.0,-2.7484,-2.9063,-3.1389,-3.2616,-3.3454,-3.4199,-3.4986,-3.5279,-3.4461,-3.4986,-3.5923,0.0,0.0,0.0,0.0,0.0,0.0,0.0,0.0,0.0,0.0,0.0,0.0,0.0,0.0,0.0,-3.4428,-3.4594,-3.4191,-3.3154,-3.3081,-3.3081,-3.3081,-3.3081,-3.3081,0.0,-3.3081,-3.3081,-3.3081,-3.3081,-3.3081,-3.3081,-3.3081,-3.3081,-3.3081,-3.3081,-3.3081,-3.3081,-3.3081,-3.3081,-3.3081,-3.3081,-3.3081,-3.3081,0.0,0.0,0.0,0.0,0.0,0.0,0.0,0.0,0.0,0.0,0.0,0.0,0.0,0.0,0.0,0.0,0.0,0.0,0.0,0.0,0.0,-2.7019,-2.6721,-2.6813,-2.7432,-2.7399,-2.778,-2.8651,-2.9856,-3.0558,-3.0896,-3.0896,-3.0896,-3.0896,-3.0896,-3.0563,-3.0003,-3.0003,-2.9725,-2.9147,-2.8758,-2.8554,-2.8554,-2.8554,-2.8383,-2.8145,-2.7699,0.0,0.0,0.0,0.0,0.0,0.0,0.0,-2.6533,-2.6533,-2.6533,-2.6533,-2.6533,0.0,0.0,-2.6973,0.0,-2.9063,-3.1597,-3.2553,-3.3265,-3.4494,-3.5133,-3.5359,-3.4839,-3.5133,0.0,0.0,0.0,0.0,0.0,0.0,0.0,0.0,0.0,0.0,0.0,0.0,0.0,0.0,0.0,-3.7084,-3.5507,-3.544,-3.4966,-3.3869,-3.3398,-3.3081,-3.3081,-3.3081,-3.3081,-3.3081,-3.3081,-3.3081,-3.3081,-3.3081,-3.3081,-3.3081,-3.3081,-3.3081,-3.3081,-3.3081,-3.3081,-3.3081,-3.3081,-3.3081,-3.3081,-3.3081,-3.3081,-3.3081,0.0,0.0,0.0,0.0,0.0,0.0,0.0,0.0,0.0,0.0,0.0,0.0,0.0,0.0,0.0,0.0,0.0,0.0,0.0,0.0,0.0,0.0,-2.6221,-2.6287,-2.6376,-2.6864,-2.7407,-2.7947,-2.9388,-3.0072,-3.0072,-3.0389,-3.0644,-3.0837,-3.0565,-3.0454,-3.0431,-2.9945,-2.9551,-2.9125,-2.8375,-2.8109,-2.8109,-2.8109,-2.7821,-2.7419,-2.7419,-2.7067,-2.6672,-2.6672,0.0,0.0,0.0,0.0,-2.6533,-2.6533,-2.6533,-2.6533,-2.6533,0.0,-2.6739,-2.7589,-2.7815,0.0,-3.1689,-3.2378,-3.2919,-3.5041,-3.5504,-3.5504,-3.5504,0.0,0.0,0.0,0.0,0.0,0.0,0.0,0.0,0.0,0.0,0.0,0.0,0.0,0.0,0.0,0.0,-3.8383,-3.6604,-3.6448,-3.5987,-3.4979,-3.3953,-3.3398,-3.3398,-3.3154,-3.3081,-3.3081,-3.3081,-3.3081,-3.3081,-3.3081,-3.3081,-3.3081,-3.3081,-3.3081,-3.3081,-3.3081,-3.3081,-3.3081,-3.3081,-3.3081,-3.3081,-3.3081,-3.3081,-3.3081,0.0,0.0,0.0,0.0,0.0,0.0,0.0,0.0,0.0,0.0,0.0,0.0,0.0,0.0,0.0,0.0,0.0,0.0,-2.5411,0.0,0.0,-2.4624,-2.5047,-2.5832,-2.7069,-2.7004,-2.7229,-2.7749,-2.8707,-2.9192,0.0,0.0,-3.0208,-2.826,-3.0192,-2.9831,-2.7914,-2.8996,-2.8989,-2.8243,-2.817,-2.8109,-2.8109,-2.8109,-2.8059,-2.7996,-2.7996,-2.7645,-2.7168,-2.7168,-2.6854,0.0,0.0,0.0,-2.6533,-2.6533,-2.6533,-2.6533,-2.6533,0.0,-2.6828,0.0,-2.8368,-2.9215,0.0,0.0,-3.3485,0.0,-3.5504,-3.5504,0.0,0.0,0.0,0.0,0.0,0.0,0.0,0.0,0.0,0.0,0.0,0.0,0.0,0.0,0.0,0.0,-3.8472,-3.7904,-3.7587,-3.7587,-3.7098,-3.6053,-3.5047,-3.4511,-3.4511,-3.3556,-3.3081,-3.3081,-3.3081,-3.3081,-3.3081,-3.3081,-3.3081,-3.3081,-3.3081,-3.3081,-3.3081,-3.3081,-3.3081,-3.3081,-3.3081,-3.3081,-3.3081,-3.3081,-3.3081,-3.3081,0.0,0.0,0.0,0.0,0.0,0.0,0.0,0.0,0.0,0.0,0.0,0.0,0.0,0.0,0.0,-2.4403,-2.4354,-2.4442,-2.4768,-2.4794,-2.4624,-2.4292,-2.4787,-2.5366,-2.5821,-2.6078,-2.6449,-2.704,-2.7855,0.0,0.0,-2.9317,-2.995,0.0,0.0,0.0,-2.897,-2.9562,-2.9512,-2.9051,-2.9051,-2.9051,-2.9051,-2.9051,-2.885,-2.8561,-2.8561,-2.821,-2.7745,-2.7745,-2.7582,-2.7331,-2.7017,0.0,0.0,0.0,-2.6533,-2.6596,-2.6841,-2.6917,-2.731,0.0,-2.8664,-2.9153,-3.2373,0.0,-3.2944,-3.508,-3.5504,0.0,0.0,0.0,0.0,0.0,0.0,0.0,0.0,0.0,0.0,0.0,0.0,0.0,0.0,0.0,0.0,0.0,-3.7834,-3.7605,-3.7605,-3.7389,-3.6741,-3.5728,-3.5571,-3.5278,-3.4746,-3.4191,-3.3713,-3.3081,-3.3081,-3.3081,-3.3081,-3.3081,-3.3081,-3.3081,-3.3081,-3.3081,-3.3081,-3.3081,-3.3081,-3.3081,-3.3081,-3.3081,-3.3081,-3.3081,-3.3081,-3.3081,0.0,0.0,0.0,0.0,0.0,0.0,0.0,0.0,0.0,0.0,0.0,0.0,0.0,0.0,0.0,0.0,-2.4015,-2.4002,-2.4002,-2.4002,-2.4067,-2.4223,-2.4723,-2.4998,-2.5008,-2.5548,-2.6025,-2.6533,0.0,0.0,-2.685,-2.7855,-2.921,0.0,-2.9322,-2.9149,0.0,0.0,-2.9958,-2.9792,-2.9792,-2.9792,-2.9792,-2.9792,-2.9528,-2.9151,-2.9151,-2.8787,-2.831,-2.831,-2.8222,-2.8034,-2.762,-2.7494,0.0,0.0,0.0,-2.6753,0.0,0.0,-2.7657,-2.8951,-2.8784,-2.9143,0.0,0.0,-3.265,0.0,-3.5385,0.0,0.0,0.0,0.0,0.0,0.0,0.0,0.0,0.0,0.0,0.0,0.0,0.0,0.0,0.0,0.0,0.0,-3.7404,-3.7404,-3.7404,-3.7107,-3.6619,-3.5878,-3.5753,-3.5364,-3.4607,-3.4146,-3.3431,-3.2654,-3.2654,-3.2654,-3.2654,-3.2654,-3.2654,-3.2667,-3.2955,-3.3081,-3.3081,-3.3081,-3.3081,-3.3081,-3.3081,-3.3081,-3.3081,-3.3081,-3.3081,-3.3081,0.0,0.0,0.0,0.0,0.0,0.0,0.0,0.0,0.0,0.0,0.0,0.0,0.0,-2.2832,-2.2685,-2.3157,-2.3173,-2.3125,-2.3125,-2.3125,-2.3437,-2.3991,-2.4545,0.0,-2.5548,-2.6126,-2.6496,0.0,0.0,0.0,-2.7604,-2.6973,-2.7618,-2.9469,-2.9412,-2.9197,-2.9038,0.0,0.0,0.0,0.0,-2.9792,-2.9792,-2.9792,-2.9779,-2.9741,-2.9741,-2.9377,-2.8888,-2.8888,-2.8536,-2.8097,-2.8072,-2.8059,-2.8059,0.0,0.0,0.0,0.0,-2.7281,0.0,-2.8612,-2.8875,0.0,0.0,0.0,0.0,0.0,0.0,0.0,0.0,0.0,0.0,0.0,0.0,0.0,0.0,0.0,0.0,0.0,0.0,0.0,0.0,0.0,0.0,0.0,-3.7404,-3.7404,-3.7404,-3.7366,-3.7312,-3.7312,-3.5449,-3.4499,-3.4424,-3.254,-3.1556,-3.1474,-3.1474,-3.1474,-3.1474,-3.1474,-3.1474,-3.1537,-3.2616,-3.3081,-3.3081,-3.3081,-3.3081,-3.3081,-3.3081,-3.3081,-3.3081,-3.3081,-3.3081,-3.3081,0.0,0.0,0.0,0.0,0.0,0.0,0.0,0.0,0.0,0.0,0.0,0.0,0.0,-2.3746,-2.3431,-2.3113,-2.3078,-2.3288,-2.3665,-2.369,-2.3941,-2.4506,-2.5034,-2.541,-2.5598,-2.6163,-2.6533,0.0,0.0,-2.6658,-2.6918,-2.7025,-2.7594,-2.8579,-2.8579,-2.8895,-2.9503,-2.9704,0.0,0.0,0.0,0.0,0.0,0.0,0.0,0.0,0.0,0.0,0.0,-2.9478,-2.9352,-2.9126,-2.875,0.0,0.0,0.0,0.0,0.0,0.0,0.0,0.0,-3.0041,-2.9884,-3.0162,-3.2905,-3.3031,-3.2919,-3.4258,0.0,0.0,0.0,0.0,0.0,0.0,0.0,0.0,0.0,0.0,0.0,0.0,0.0,0.0,0.0,0.0,0.0,0.0,0.0,-3.6193,-3.6193,-3.6582,-3.652,-3.5842,-3.5554,-3.479,-3.353,-3.2778,-3.2089,-3.1386,-3.1386,-3.1386,-3.1386,-3.1386,-3.1386,-3.1411,-3.1813,-3.2001,-3.2001,-3.2001,-3.2001,-3.2001,-3.2001,-3.2001,-3.2001,-3.2001,-3.2001,-3.2001,0.0,0.0,0.0,0.0,0.0,0.0,0.0,0.0,0.0,0.0,0.0,0.0,0.0,0.0,-2.3649,-2.3138,-2.3314,-2.359,-2.3966,-2.4167,-2.4519,-2.5059,-2.541,-2.5686,-2.5887,-2.6076,-2.6332,0.0,0.0,0.0,0.0,-2.703,-2.7582,-2.8109,-2.8298,-2.8913,0.0,0.0,0.0,-2.9792,0.0,0.0,-2.9792,0.0,0.0,0.0,0.0,0.0,0.0,0.0,0.0,0.0,0.0,0.0,0.0,0.0,0.0,0.0,-2.8825,0.0,0.0,0.0,0.0,-3.0846,-3.3031,0.0,-3.2913,0.0,0.0,0.0,0.0,0.0,0.0,0.0,0.0,0.0,0.0,0.0,0.0,0.0,0.0,0.0,0.0,0.0,0.0,0.0,0.0,0.0,-3.5504,-3.5923,-3.5703,-3.4606,-3.4768,-3.4102,-3.2431,-3.2071,-3.1536,-3.0846,-3.0846,-3.0846,-3.0846,-3.0846,-3.0846,-3.0846,-3.0846,-3.106,-3.1386,-3.1386,-3.1386,-3.1386,-3.1386,-3.1386,-3.1386,-3.1386,-3.1386,-3.1386,0.0,0.0,0.0,0.0,0.0,0.0,0.0,0.0,0.0,0.0,0.0,0.0,0.0,0.0,0.0,-2.3103,-2.369,-2.4029,-2.4042,-2.4544,-2.5071,-2.5598,-2.5624,-2.5887,-2.6521,-2.5912,-2.59,0.0,0.0,0.0,0.0,0.0,-2.7595,-2.8134,-2.8699,-2.9264,-2.9792,0.0,-2.9792,-2.9792,0.0,-2.9792,-2.9792,0.0,0.0,0.0,-2.9792,-2.9792,0.0,-2.9792,0.0,0.0,0.0,0.0,0.0,0.0,0.0,0.0,0.0,0.0,0.0,0.0,0.0,0.0,-3.2464,0.0,-3.2961,0.0,0.0,0.0,0.0,0.0,0.0,0.0,0.0,0.0,0.0,0.0,0.0,0.0,0.0,0.0,0.0,0.0,0.0,0.0,-3.5504,-3.5504,-3.5504,-3.5504,-3.5052,-3.4027,-3.3101,-3.2177,-3.1254,-3.0355,-2.9869,-2.9869,-2.9869,-2.9869,-2.9792,-2.9792,-2.9792,-2.9792,-2.9792,-3.0382,-3.1336,-3.1336,-3.1336,-3.1336,-3.1336,-3.1336,-3.1336,-3.1336,-3.1336,-3.1336,0.0,0.0,0.0,0.0,0.0,0.0,0.0,0.0,0.0,0.0,0.0,0.0,0.0,0.0,-2.3753,-2.3753,-2.4268,-2.4757,-2.5134,-2.5297,-2.5636,-2.6269,-2.6214,-2.6302,-2.6533,-2.637,-2.6302,0.0,0.0,0.0,0.0,0.0,0.0,0.0,-2.9126,-2.9641,-2.9792,-2.9792,0.0,-2.9792,-2.9792,-2.9792,0.0,0.0,0.0,0.0,0.0,-2.9792,-2.9792,0.0,-2.9792,-2.9792,0.0,0.0,0.0,0.0,0.0,0.0,-2.9553,0.0,0.0,0.0,0.0,0.0,0.0,0.0,0.0,0.0,0.0,0.0,0.0,0.0,0.0,0.0,0.0,0.0,0.0,0.0,0.0,0.0,0.0,0.0,0.0,0.0,0.0,0.0,-3.5504,-3.5504,-3.5504,-3.5504,-3.5052,-3.4027,-3.3739,-3.3171,-3.2249,-3.1974,-3.1476,-3.0833,-3.0833,-3.0495,-2.9792,-2.9792,-2.9792,-2.9792,-2.9792,-2.9967,-3.0231,-3.0231,-3.0231,-3.0231,-3.0231,-3.0231,-3.0231,-3.0231,-3.0231,-3.0231,0.0,0.0,0.0,0.0,0.0,0.0,0.0,0.0,0.0,0.0,0.0,0.0,0.0,0.0,-2.4343,-2.4343,-2.4833,-2.5272,-2.5573,-2.5824,-2.6101,-2.6508,-2.6533,-2.6533,-2.6533,-2.6226,-2.6214,0.0,0.0,0.0,0.0,0.0,0.0,0.0,0.0,0.0,0.0,0.0,0.0,0.0,-2.9792,0.0,0.0,-2.9792,-2.9792,0.0,0.0,0.0,-2.9792,-2.9792,-2.9792,0.0,0.0,0.0,0.0,0.0,0.0,0.0,0.0,0.0,0.0,0.0,0.0,0.0,-3.3643,-3.3864,0.0,0.0,0.0,0.0,0.0,0.0,0.0,0.0,0.0,0.0,0.0,0.0,0.0,0.0,0.0,0.0,0.0,-3.534,-3.5504,-3.5504,-3.5504,-3.5504,-3.5504,-3.5504,-3.5213,-3.461,-3.4245,-3.3739,-3.3171,-3.282,-3.2321,-3.1742,-3.1389,-3.0895,-3.0343,-3.0011,-2.9792,-2.9792,-2.9792,-2.9792,-2.9792,-2.9792,-2.9792,-2.9792,-2.9792,-2.9792,-2.9792,-2.9792,-2.9792,-2.9792,0.0,0.0,0.0,0.0,0.0,0.0,0.0,0.0,0.0,0.0,0.0,0.0,0.0,0.0,0.0,0.0,-2.5385,-2.5686,-2.5686,-2.6176,-2.6533,-2.6533,-2.6533,-2.6533,-2.6533,-2.595,-2.5937,0.0,0.0,0.0,0.0,0.0,0.0,0.0,0.0,0.0,0.0,0.0,0.0,-2.9792,-2.9792,-2.9792,0.0,0.0,-2.9792,-2.9792,-2.9792,-2.9792,-2.9792,-2.9792,-2.9792,0.0,0.0,0.0,0.0,0.0,-2.9792,0.0,0.0,0.0,0.0,0.0,0.0,0.0,-3.2,-3.2702,-3.3087,0.0,0.0,0.0,0.0,0.0,0.0,0.0,0.0,0.0,0.0,0.0,0.0,0.0,0.0,0.0,-3.4367,-3.4921,-3.528,-3.528,-3.5355,-3.5385,-3.5385,-3.5459,-3.5504,-3.5504,-3.461,-3.4177,-3.4177,-3.331,-3.282,-3.2593,-3.1888,-3.1328,-3.1044,-3.0279,-2.9934,-2.9792,-2.9792,-2.9792,-2.9792,-2.9792,-2.9792,-2.9792,-2.9792,-2.9792,-2.9792,-2.9792,-2.9792,-2.9792,0.0,0.0,0.0,0.0,0.0,0.0,0.0,0.0,0.0,0.0,0.0,0.0,0.0,0.0,0.0,0.0,-2.5963,-2.6289,-2.6289,-2.6402,-2.6533,-2.6533,-2.6533,-2.6533,-2.6533,-2.6352,-2.6352,-2.6533,0.0,0.0,0.0,0.0,0.0,0.0,0.0,0.0,0.0,0.0,0.0,-2.9792,-2.9792,0.0,-2.9792,-2.9792,-2.9792,-2.9792,-2.9792,-2.9792,-2.9792,-2.9792,-2.9792,-2.9792,0.0,0.0,0.0,0.0,0.0,0.0,0.0,0.0,0.0,0.0,0.0,0.0,-3.3377,-3.3379,-3.3165,0.0,0.0,0.0,0.0,0.0,0.0,0.0,0.0,0.0,0.0,0.0,0.0,0.0,0.0,0.0,-3.3694,-3.3799,-3.3888,-3.3888,-3.4382,-3.4681,-3.4681,-3.5205,-3.5504,-3.5504,-3.5294,-3.5213,-3.5213,-3.5067,-3.4124,-3.2593,-3.3171,-3.2263,-3.0075,-3.0696,-3.0482,-2.9792,-2.9792,-2.9792,-2.9792,-2.9792,-2.9792,-2.9792,-2.9792,-2.9792,-2.9792,-2.9792,-2.9792,-2.9792,0.0,0.0,0.0,0.0,0.0,0.0,0.0,0.0,0.0,0.0,0.0,0.0,0.0,0.0,0.0,0.0,0.0,0.0,0.0,0.0,-2.6533,-2.6533,-2.6533,-2.6533,-2.6533,-2.6533,-2.6659,-2.6866,0.0,0.0,0.0,0.0,0.0,0.0,0.0,0.0,0.0,0.0,-2.9792,-2.9792,-2.9792,0.0,-2.9792,-2.9792,-2.9792,-2.9792,-2.9792,-2.9792,-2.9792,-2.9792,-2.9792,0.0,0.0,-2.9792,-2.9792,0.0,-2.9792,-2.9792,0.0,0.0,0.0,-3.0482,0.0,0.0,0.0,-3.3077,-3.3206,-3.3019,-3.2482,-3.1928,-3.1541,-3.1482,-3.1482,0.0,0.0,0.0,0.0,0.0,0.0,0.0,0.0,0.0,-3.3006,-3.3305,-3.3499,-3.3499,-3.3799,-3.3978,-3.3978,-3.4322,-3.4651,-3.4981,-3.4996,-3.516,-3.5504,-3.5504,-3.4773,-3.331,-3.331,-3.2321,-3.0482,-3.0482,-3.0279,-2.9792,-2.9792,-2.9792,-2.9792,-2.9792,-2.9792,-2.9792,-2.9792,-2.9792,-2.9792,-2.9792,-2.9792,-2.9792,-2.3636,0.0,0.0,0.0,0.0,0.0,0.0,0.0,0.0,0.0,0.0,0.0,0.0,0.0,0.0,0.0,0.0,0.0,0.0,0.0,0.0,-2.6533,-2.6533,-2.6533,-2.6533,-2.6634,-2.6841,-2.7281,0.0,0.0,0.0,0.0,0.0,0.0,0.0,0.0,0.0,0.0,0.0,-2.9792,0.0,-2.9792,-2.9792,-2.9792,-2.9792,-2.9792,-2.9792,-2.9792,-2.9792,-2.9792,-2.9792,-2.9792,-2.9792,-2.9792,0.0,0.0,0.0,0.0,0.0,0.0,0.0,0.0,0.0,-3.1956,0.0,0.0,0.0,-3.2587,-3.1988,-3.1482,-3.1482,-3.1482,0.0,0.0,0.0,0.0,0.0,0.0,0.0,0.0,0.0,0.0,-3.2332,-3.2811,-3.311,-3.311,-3.323,-3.3305,-3.3305,-3.3425,-3.3739,-3.4262,-3.4292,-3.4562,-3.5115,-3.525,-3.4794,-3.3854,-3.3338,-3.2536,-3.1462,-3.0846,-3.0432,-3.0075,-3.0075,-3.0011,-2.9792,-2.9792,-2.9792,-2.9792,-2.9792,-2.9792,-2.9792,-2.9792,-2.9792,-2.9792,-2.5728,-2.6176,0.0,0.0,0.0,0.0,0.0,0.0,0.0,0.0,0.0,0.0,0.0,0.0,0.0,0.0,0.0,0.0,-2.6533,0.0,0.0,-2.6533,-2.6533,-2.6533,-2.6533,-2.6942,-2.7218,-2.7281,-2.826,0.0,0.0,0.0,0.0,0.0,-2.9792,0.0,0.0,0.0,-2.9792,0.0,-2.9792,-2.9792,0.0,-2.9792,-2.9792,-2.9792,-2.9792,-2.9792,-2.9792,0.0,-2.9792,-2.9792,0.0,-2.9792,-2.9792,-2.9792,0.0,0.0,0.0,0.0,0.0,0.0,-2.9934,0.0,0.0,0.0,-3.1228,-3.2256,0.0,-3.1482,-3.1482,0.0,0.0,0.0,0.0,0.0,0.0,0.0,0.0,0.0,0.0,0.0,0.0,-3.1661,-3.1764,-3.1764,-3.2302,-3.2617,-3.2617,-3.3185,-3.3529,-3.3604,-3.3604,-3.3649,-3.3724,-3.4307,-3.4115,-3.3249,-3.4508,-3.4192,-3.2464,-3.3171,-3.2607,-3.1044,-3.1044,-3.0558,-2.9792,-2.9792,-2.9792,-2.9792,-2.9792,-2.9792,-2.9792,-2.9792,-2.9792,-2.9792,-2.4845,-2.4834,0.0,0.0,0.0,0.0,0.0,0.0,0.0,0.0,0.0,0.0,0.0,0.0,0.0,0.0,0.0,-2.6533,0.0,0.0,0.0,0.0,0.0,0.0,-2.6999,-2.8216,-2.866,-2.8235,-2.9266,0.0,0.0,0.0,0.0,0.0,-2.9792,0.0,-2.9792,0.0,-2.9792,0.0,0.0,0.0,0.0,-2.9792,-2.9792,-2.9792,-2.9792,-2.9792,-2.9792,0.0,-2.9792,0.0,0.0,0.0,0.0,0.0,0.0,0.0,0.0,0.0,0.0,0.0,0.0,0.0,-3.2275,0.0,-3.23,0.0,0.0,0.0,0.0,0.0,0.0,0.0,-3.1345,0.0,0.0,0.0,0.0,0.0,0.0,0.0,0.0,0.0,0.0,0.0,-3.1735,-3.1943,-3.1943,-3.2213,-3.2527,-3.2916,-3.2931,-3.311,-3.3499,-3.3769,-3.3435,-3.2507,-3.3565,-3.3374,-3.2026,-3.2863,-3.2749,-3.196,-3.1462,-3.097,-3.0558,-2.9998,-2.9792,-2.9792,-2.9792,-2.9792,-2.9792,-2.9792,-2.9792,-2.9792,-2.4494,0.0,0.0,0.0,0.0,0.0,0.0,0.0,0.0,0.0,0.0,0.0,-2.6533,-2.6533,0.0,0.0,-2.6533,-2.6533,0.0,0.0,-2.7095,0.0,0.0,0.0,0.0,-2.9035,-2.9548,-2.9287,-2.996,-3.0108,0.0,0.0,0.0,0.0,0.0,-2.9792,-2.9792,0.0,-2.9792,-2.9792,-2.9792,-2.9792,-2.9792,-2.9792,-2.9792,-2.9792,-2.9792,-2.9792,-2.9792,-2.9792,-2.9792,0.0,-2.9792,0.0,0.0,0.0,0.0,0.0,-3.0139,0.0,0.0,0.0,0.0,0.0,0.0,0.0,0.0,0.0,0.0,0.0,0.0,0.0,-3.1422,0.0,0.0,-3.1407,0.0,0.0,0.0,0.0,0.0,0.0,0.0,0.0,0.0,0.0,0.0,-3.1482,-3.1482,-3.1482,-3.1691,-3.2228,-3.2243,-3.2482,-3.2961,-3.314,-3.2879,-3.2227,-3.2896,-3.2846,-3.2154,-3.2605,-3.2694,-3.2288,-3.1573,-3.1109,-3.0758,-3.0075,-2.9792,-2.9792,-2.9792,-2.9792,-2.9792,-2.9792,-2.9792,-2.9792,-2.5844,-2.7867,0.0,0.0,0.0,0.0,0.0,0.0,0.0,0.0,0.0,0.0,0.0,0.0,0.0,0.0,0.0,-2.6533,-2.6533,0.0,-2.6521,0.0,0.0,-2.7793,0.0,0.0,-2.9385,-3.0362,-2.9998,-2.9767,0.0,0.0,0.0,0.0,-2.9792,-2.9792,-2.9792,-2.9792,-2.9792,-2.9792,-2.9792,-2.9792,-2.9792,0.0,-2.9792,-2.9792,-2.9792,0.0,0.0,-2.9792,-2.9792,0.0,0.0,0.0,0.0,0.0,0.0,0.0,0.0,0.0,0.0,-3.2321,0.0,0.0,0.0,0.0,-3.2063,0.0,0.0,0.0,0.0,-3.1482,0.0,0.0,0.0,0.0,0.0,0.0,0.0,0.0,0.0,0.0,0.0,0.0,0.0,0.0,-3.1482,0.0,-3.1482,-3.1482,-3.1482,-3.1511,-3.1511,-3.1511,-3.1541,-3.2228,-3.2542,-3.2497,-3.3154,-3.3453,-3.3453,-3.3483,-3.2803,-3.1668,-3.1598,-3.0956,-2.9856,-2.9792,-2.9792,-2.9792,-2.9792,-2.9792,-2.9792,-2.9792,-2.9792,-2.9792,0.0,0.0,0.0,0.0,0.0,0.0,0.0,-2.7868,0.0,0.0,0.0,0.0,0.0,-2.6533,-2.6714,0.0,0.0,-2.7537,-2.8117,-2.8182,0.0,0.0,0.0,-2.9295,0.0,0.0,-3.1439,-3.0903,-3.2024,-3.1974,-3.0758,0.0,0.0,0.0,0.0,-3.0343,0.0,0.0,0.0,0.0,0.0,-2.9792,-2.9792,0.0,0.0,-2.9792,-2.9792,-2.9792,0.0,-2.9792,-2.9792,-2.9934,-3.0558,-3.0696,-3.0696,-3.0696,-3.1193,0.0,0.0,0.0,-3.2321,-3.331,0.0,0.0,0.0,0.0,0.0,0.0,0.0,0.0,0.0,0.0,0.0,0.0,0.0,0.0,0.0,0.0,0.0,0.0,0.0,0.0,0.0,0.0,0.0,0.0,-3.1482,0.0,-3.1482,-3.1482,-3.1482,-3.1482,-3.1482,-3.1482,-3.1482,-3.1691,-3.1869,-3.1884,-3.2527,-3.2841,-3.2856,-3.3305,-3.328,-3.2809,-3.2197,-3.1362,-3.0401,-2.9771,-2.9228,-2.8674,-2.8674,-2.8674,-2.8762,-2.9515,-2.9792,-2.9792,-3.097,0.0,0.0,0.0,0.0,0.0,0.0,0.0,0.0,0.0,-2.7095,0.0,-2.7255,0.0,-2.8052,0.0,-2.8677,-2.8702,-2.9168,-2.9045,0.0,-2.8842,-2.969,0.0,0.0,0.0,0.0,-3.2177,-3.3101,-3.289,-3.1669,0.0,0.0,0.0,0.0,-3.0696,-2.9792,0.0,-2.9792,0.0,0.0,-2.9792,0.0,0.0,-2.9792,-2.9856,0.0,-3.0075,-2.9869,-3.0216,-3.0075,-2.9934,-3.0482,-3.0895,-3.118,-3.118,-3.1888,-3.2522,-3.2249,-3.2664,0.0,-3.4022,-3.3886,0.0,-3.3212,0.0,0.0,0.0,0.0,0.0,0.0,0.0,0.0,0.0,0.0,0.0,0.0,-3.1482,0.0,0.0,0.0,0.0,0.0,0.0,0.0,-3.1482,-3.1482,-3.1482,0.0,0.0,-3.1482,-3.1482,-3.1482,-3.1482,-3.1482,-3.1482,-3.1482,-3.1482,-3.1958,-3.2168,-3.2183,-3.2602,-3.2734,-3.2606,-3.2014,-3.1344,-3.0663,-2.9787,-2.9054,-2.8507,-2.8243,-2.8109,-2.8197,-2.8925,-2.9202,-2.9202,0.0,0.0,0.0,0.0,-3.0837,0.0,0.0,0.0,-2.8065,0.0,-2.8287,-2.8,-2.8771,-2.9547,-3.0308,-3.1024,-3.047,-2.9992,-2.9691,-2.9315,0.0,0.0,-3.0079,-3.1278,-3.2263,0.0,0.0,0.0,-3.3171,-3.2749,-3.2664,0.0,0.0,0.0,-3.1315,0.0,-2.9869,-2.9792,-2.9792,-2.9792,-2.9792,-2.9792,-2.9792,-2.9856,-2.9869,-3.0011,-3.0833,-3.0558,-2.9998,-3.0895,-3.0633,-2.9869,-3.0011,-3.0558,-3.1241,-3.1315,-3.2033,-3.2961,-3.3739,-3.4027,-3.4153,-3.4431,0.0,0.0,0.0,0.0,-3.2287,0.0,0.0,0.0,0.0,0.0,0.0,0.0,0.0,0.0,0.0,0.0,0.0,0.0,0.0,0.0,0.0,0.0,-3.1409,-3.1409,-3.1409,-3.1409,0.0,0.0,-3.1482,-3.1482,-3.1482,-3.1482,-3.1482,-3.1482,-3.1482,-3.1482,-3.1482,-3.1482,-3.1482,-3.1482,-3.1353,-3.1099,-3.1099,-3.0906,-3.0446,-2.9707,-2.9302,-2.9162,-2.8359,-2.8021,-2.8034,-2.8084,-2.8109,-2.8109,-3.1087,-3.1029,-3.097,0.0,-3.0837,-3.0329,0.0,0.0,0.0,0.0,-2.8958,-2.8919,-3.024,-3.0643,-3.103,-3.1789,-3.1725,0.0,0.0,0.0,0.0,-3.2198,-3.1312,-3.1754,-3.3858,-3.3758,0.0,-3.4027,0.0,0.0,-3.3671,0.0,0.0,0.0,0.0,0.0,-3.0758,-3.0075,-2.9792,-2.9792,-2.9792,-2.9792,0.0,0.0,-3.0833,-3.0758,-3.0355,-3.0419,-3.0908,-3.1106,-3.1044,-3.1119,-3.2464,-3.2607,-3.2393,-3.3101,-3.3973,-3.4639,-3.4109,-3.4543,-3.505,-3.4573,-3.4113,-3.3529,0.0,0.0,0.0,0.0,0.0,0.0,0.0,0.0,0.0,0.0,0.0,0.0,0.0,0.0,0.0,-3.1482,0.0,0.0,0.0,-3.097,-3.0584,-3.0584,-3.0584,-3.0584,-3.0584,0.0,0.0,-3.1482,-3.1482,-3.1482,-3.1482,-3.1482,-3.1482,-3.1482,-3.1482,-3.1482,-3.1482,-3.1482,-3.144,-3.1397,-3.1397,-3.0661,-2.9394,-2.9214,-2.8372,-2.7201,-2.7019,-2.6879,-2.6979,-2.7808,-2.8109,-2.8109,-3.1409,0.0,0.0,-3.1482,0.0,0.0,-3.0837,0.0,0.0,-3.0489,-3.0318,0.0,-3.1815,-3.2282,-3.2804,-3.3592,-3.3343,0.0,-3.3706,0.0,0.0,-3.3294,-3.2767,-3.3056,-3.4472,-3.4632,0.0,-3.4691,0.0,0.0,-3.4691,0.0,0.0,0.0,0.0,-3.2464,-3.1106,-3.0216,-2.9792,-2.9792,-2.9792,-2.9792,0.0,-3.0419,-3.0833,-3.1106,-3.062,-3.1057,-3.1888,-3.2321,-3.2177,-3.2033,-3.3031,-3.331,-3.331,-3.3808,-3.4691,-3.5359,-3.4839,-3.4845,-3.4891,-3.4218,-3.3559,-3.2901,-3.2243,-3.1735,-3.1482,0.0,0.0,0.0,0.0,0.0,0.0,0.0,0.0,0.0,0.0,0.0,0.0,0.0,-3.1087,0.0,0.0,-3.045,-3.0011,-3.0777,-3.0524,-3.045,0.0,0.0,0.0,-3.1482,-3.1482,-3.1482,-3.1482,-3.1482,-3.1482,-3.1482,-3.1482,-3.1482,-3.1482,-3.1482,-3.1482,-3.1482,-3.1482,-3.097,-3.0072,-2.969,-2.8812,-2.755,-2.6782,-2.6533,-2.6596,-2.7155,-2.7394,-2.7394,0.0,0.0,0.0,0.0,0.0,0.0,0.0,-3.1452,0.0,-3.1579,0.0,-3.2645,-3.3427,-3.4194,-3.4861,-3.5444,0.0,-3.4495,-3.4216,-3.3819,-3.3591,-3.3434,-3.412,-3.4517,-3.4607,-3.519,-3.5504,0.0,0.0,0.0,0.0,0.0,0.0,0.0,0.0,0.0,0.0,-3.0343,-3.0075,-3.0152,-3.0152,-3.0152,-3.0139,-3.0279,-3.0846,-3.1609,-3.1756,-3.2105,-3.2749,-3.3671,-3.338,-3.2664,-3.289,-3.3463,-3.4027,-3.4177,-3.4839,-3.5504,-3.5504,-3.4996,-3.4322,-3.3664,-3.3006,-3.2332,-3.1616,-3.1482,-3.1482,-3.1482,-3.1482,-3.1482,0.0,0.0,0.0,0.0,0.0,0.0,0.0,0.0,0.0,0.0,0.0,0.0,0.0,0.0,-2.9766,-3.1219,-3.0703,-3.0584,0.0,0.0,0.0,-3.1482,-3.1482,-3.1482,-3.1482,0.0,-3.1482,-3.1482,-3.1482,-3.1482,-3.1482,-3.1482,-3.1482,-3.1482,-3.1482,-3.1409,-3.1278,-3.0584,-2.969,-2.8684,-2.7095,-2.6533,-2.6533,-2.6533,-2.6533,-2.6533,0.0,0.0,0.0,0.0,0.0,-3.2527,-3.3066,-3.2038,-3.1864,-3.3698,-3.3396,-3.3587,-3.4961,-3.5245,-3.537,-3.5489,-3.5385,0.0,0.0,0.0,0.0,-3.5085,-3.4707,-3.4741,-3.531,-3.5444,-3.5504,0.0,0.0,0.0,0.0,0.0,0.0,0.0,0.0,0.0,-3.2321,-3.1328,0.0,-3.2105,-3.2105,-3.2105,-3.2177,-3.2961,-3.3394,-3.3602,-3.4476,-3.3837,-3.2749,-3.3671,-3.338,-3.289,-3.4491,-3.4543,-3.4177,-3.4986,-3.5359,-3.5504,-3.5504,-3.4996,-3.4322,-3.3664,-3.3006,-3.2332,-3.1616,-3.1482,-3.1482,-3.1482,-3.1482,-3.1482,-3.1482,0.0,0.0,0.0,0.0,0.0,0.0,0.0,0.0,0.0,0.0,-3.0777,0.0,0.0,0.0,-3.0524,-3.0389,0.0,0.0,0.0,0.0,0.0,-3.1482,0.0,0.0,0.0,-3.1482,-3.1482,-3.1482,-3.1482,-3.1482,-3.1482,-3.1482,-3.1482,-3.1482,-3.1087,-3.0524,-3.0329,-2.938,-2.7868,-2.6837,-2.6533,-2.6533,-2.6533,-2.6533,-2.6533,0.0,0.0,0.0,0.0,0.0,0.0,0.0,-3.3384,0.0,-3.4382,-3.4436,-3.4712,-3.5394,-3.5504,-3.5504,-3.5504,-3.5504,-3.5504,-3.5504,-3.519,-3.516,-3.5489,-3.519,0.0,-3.5489,-3.5504,-3.5504,-3.5504,0.0,0.0,0.0,0.0,0.0,0.0,0.0,-3.3739,0.0,0.0,0.0,-3.2593,-3.2593,-3.2593,-3.2664,-3.3101,-3.3602,-3.4095,-3.4543,-3.4109,-3.3449,-3.4476,-3.4476,-3.4274,-3.5213,-3.5133,-3.4839,-3.5359,-3.5504,-3.5429,-3.507,-3.4487,-3.3814,-3.3155,-3.2497,-3.1928,-3.1541,-3.1482,-3.1482,-3.1482,-3.1482,-3.1482,-3.1482,-3.1482,0.0,0.0,0.0,0.0,0.0,0.0,0.0,0.0,0.0,0.0,0.0,0.0,0.0,0.0,0.0,0.0,0.0,0.0,0.0,0.0,0.0,0.0,0.0,0.0,0.0,-3.1482,-3.1482,-3.1482,-3.1482,-3.1482,-3.1482,-3.1482,-3.1482,-3.1278,-3.0837,-2.995,-2.9129,-2.8247,-2.6973,-2.6533,-2.6533,-2.6533,-2.6533,-2.6533,0.0,-3.2721,0.0,0.0,-3.3709,0.0,-3.4592,-3.4696,-3.4696,-3.4696,-3.516,-3.5504,-3.5504,-3.5504,-3.5504,-3.5504,-3.5504,-3.5504,-3.5504,-3.5504,-3.5504,-3.5504,-3.5504,-3.5504,-3.5504,-3.5504,-3.5504,0.0,0.0,0.0,0.0,0.0,0.0,0.0,0.0,0.0,0.0,0.0,-3.3031,-3.3255,-3.3255,-3.3255,-3.3255,-3.3255,-3.3685,-3.4312,-3.4312,-3.4312,-3.4461,-3.5213,-3.5359,-3.5213,-3.5424,-3.5504,-3.5504,-3.5504,-3.5504,-3.5355,-3.4666,-3.3993,-3.3335,-3.2677,-3.2018,-3.1482,-3.1482,-3.1482,-3.1482,-3.1482,-3.1482,-3.1482,-3.1482,-3.1482,0.0,0.0,0.0,0.0,0.0,0.0,0.0,0.0,0.0,0.0,-3.1482,0.0,0.0,0.0,0.0,0.0,0.0,0.0,0.0,0.0,0.0,-3.1482,-3.1482,0.0,-3.1482,-3.1482,-3.1482,-3.1482,-3.1482,-3.1482,-3.1482,-3.1482,-3.1482,-3.1482,-3.1409,-2.9889,-2.9254,-2.9129,-2.7604,-2.6905,-2.6782,-2.6782,-2.6658,-2.6533,0.0,0.0,0.0,0.0,0.0,0.0,-3.5295,-3.5415,-3.5415,-3.5415,-3.5459,-3.5504,-3.5504,-3.5504,-3.5504,-3.5504,-3.5504,-3.5504,-3.5504,-3.5504,-3.5504,-3.5504,-3.5504,-3.5504,-3.5504,-3.5504,-3.5504,0.0,0.0,-3.519,0.0,0.0,0.0,0.0,0.0,0.0,0.0,-3.4312,-3.4394,-3.5213,-3.5213,-3.5213,-3.5213,-3.5213,-3.5279,-3.5359,-3.5359,-3.5359,-3.5359,-3.5439,-3.4905,-3.4312,-3.5213,-3.5504,-3.5504,-3.5504,-3.5504,-3.5355,-3.4666,-3.3993,-3.3335,-3.2677,-3.2018,-3.1482,-3.1482,-3.1482,-3.1482,-3.1482,-3.1482,-3.1482,-3.1482,-3.1482,-3.1482,0.0,0.0,0.0,0.0,0.0,0.0,0.0,0.0,0.0,0.0,-3.1482,0.0,0.0,-3.1409,0.0,0.0,0.0,0.0,-3.1482,0.0,-3.1482,-3.1482,-3.1482,-3.1482,-3.1482,-3.1482,-3.1482,-3.1482,-3.1482,-3.1482,-3.1482,-3.1482,-3.1482,-3.1409,-3.0524,-3.0208,-3.0072,-2.9129,-2.8298,-2.7604,-2.7604,-2.7095,-2.6533,0.0,0.0,0.0,0.0,0.0,0.0,0.0,-3.5833,-3.6088,-3.6088,-3.6088,-3.6237,-3.6611,-3.6641,-3.6641,-3.6641,-3.6312,-3.6088,-3.6088,-3.5729,-3.5504,-3.5504,-3.5504,-3.5504,-3.5504,-3.5504,-3.5504,0.0,0.0,0.0,0.0,0.0,0.0,0.0,0.0,-3.5133,-3.5504,-3.5067,-3.5133,-3.5504,-3.5504,-3.5504,-3.5504,-3.5504,-3.5504,-3.5504,-3.5504,-3.5504,-3.5504,-3.5504,-3.5213,-3.4986,-3.5359,-3.5504,-3.5504,-3.5504,-3.522,-3.4741,-3.4068,-3.341,-3.2751,-3.2093,-3.1676,-3.1482,-3.1482,-3.1482,-3.1482,-3.1482,-3.1482,-3.1482,-3.1482,-3.1482,-3.1482,0.0,0.0,0.0,0.0,0.0,0.0,0.0,0.0,0.0,0.0,0.0,0.0,0.0,0.0,0.0,0.0,0.0,0.0,-3.1482,0.0,-3.1482,-3.1482,-3.1482,-3.1482,-3.1482,-3.1482,-3.1482,-3.1482,-3.1482,-3.1482,-3.1482,-3.1482,-3.1482,-3.1409,-3.0644,-3.0329,-3.0147,-2.8748,-2.7986,-2.767,-2.7162,-2.6782,-2.6533,-3.4681,0.0,-3.4936,0.0,-3.5669,-3.5789,-3.5789,-3.6342,-3.6836,-3.7015,-3.7045,-3.7135,-3.7389,-3.7404,-3.7404,-3.7404,-3.6851,-3.6492,-3.6492,-3.5863,-3.5504,-3.5504,-3.5504,0.0,-3.5504,-3.5504,-3.5504,-3.5504,-3.5504,0.0,0.0,0.0,0.0,0.0,-3.5504,-3.5504,-3.5504,-3.5504,-3.5504,-3.5504,-3.5504,-3.5504,-3.5504,-3.5504,-3.5504,-3.5504,-3.5504,-3.5504,-3.5504,-3.5504,-3.5504,-3.5504,-3.5504,-3.5504,-3.5504,-3.5504,-3.5026,-3.4322,-3.3679,-3.3021,-3.2362,-3.1704,-3.1482,-3.1482,-3.1482,-3.1482,-3.1482,-3.1482,-3.1482,-3.1482,-3.1482,-3.1482,-3.1482,-3.1482,0.0,0.0,0.0,0.0,0.0,0.0,-3.1482,-3.1482,-3.1482,-3.1482,0.0,0.0,0.0,0.0,0.0,0.0,0.0,0.0,0.0,0.0,-3.1482,-3.1482,-3.1482,-3.1482,-3.1482,-3.1482,-3.1482,-3.1482,-3.1482,-3.1482,-3.1482,-3.1482,-3.1467,-3.0896,-3.0644,-3.0524,-2.9066,-2.8427,-2.8298,-2.7229,-2.685,-2.685,-3.5489,-3.5489,-3.5489,-3.5504,-3.6043,-3.6477,-3.6477,-3.7,-3.7629,-3.8287,-3.8362,-3.8123,-3.7479,-3.7404,-3.7404,-3.7404,-3.6851,-3.6492,-3.6492,-3.5863,-3.5504,0.0,0.0,-3.5504,-3.5504,-3.5504,-3.5504,-3.5504,0.0,0.0,-3.4487,0.0,-3.4861,-3.5504,-3.5504,-3.5504,-3.5504,-3.5504,-3.5504,-3.5504,-3.5504,-3.5504,-3.5504,-3.5504,-3.5504,-3.5504,-3.5504,-3.5504,-3.5504,-3.5504,-3.5504,-3.5504,-3.5504,-3.5504,-3.5504,-3.5504,-3.5026,-3.4322,-3.3679,-3.3021,-3.2362,-3.1704,-3.1482,-3.1482,-3.1482,-3.1482,-3.1482,-3.1482,-3.1482,-3.1482,-3.1482,-3.1482,-3.1482,-3.1482,0.0,0.0,0.0,0.0,0.0,0.0,-3.1482,-3.1482,-3.1482,-3.1482,0.0,0.0,0.0,0.0,0.0,0.0,0.0,-3.1482,-3.1482,0.0,-3.1482,-3.1482,-3.1482,-3.1482,-3.1482,-3.1482,-3.1482,-3.1482,-3.1482,-3.1482,-3.1482,-3.1482,-3.1482,-3.1482,-3.1482,-3.1409,-3.0584,-3.0269,-3.0072,-2.8298,-2.767,-2.7537,-3.5504,-3.5504,-3.5654,-3.6088,-3.6357,-3.6626,-3.7045,-3.7659,-3.8153,-3.8362,-3.8796,-3.9005,-3.8811,-3.8781,-3.8781,0.0,-3.7764,-3.712,0.0,-3.6103,-3.5504,-3.5504,-3.5504,-3.5504,-3.5504,-3.5504,-3.5504,-3.5504,0.0,0.0,0.0,-3.5175,-3.5295,-3.5504,-3.5504,-3.5504,-3.5504,-3.5504,-3.5504,-3.5504,-3.5504,-3.5504,-3.5504,-3.5504,-3.5504,-3.5504,-3.5504,-3.5504,-3.5504,-3.5504,-3.5504,-3.5504,-3.5504,-3.5504,-3.5415,-3.4936,-3.4322,-3.3664,-3.3006,-3.2347,-3.1794,-3.1526,-3.1482,-3.1482,-3.1482,-3.1482,-3.1482,-3.1482,-3.1482,-3.1482,-3.1482,-3.1482,-3.1482,-3.1482,-3.1482,0.0,0.0,0.0,0.0,0.0,-3.1482,-3.1482,-3.1482,-3.1482,0.0,0.0,0.0,0.0,0.0,0.0,0.0,0.0,-3.0836,0.0,-3.0836,-3.0836,-3.1061,-3.1482,-3.1482,-3.1482,-3.1482,-3.1482,-3.1482,-3.1482,-3.1482,-3.1482,-3.1482,-3.1482,-3.1482,-3.1409,-3.0584,-3.0329,-3.0147,-2.9002,-2.8247,-2.767,-3.5833,-3.5878,-3.6073,-3.6731,-3.7045,-3.733,-3.7719,-3.8347,-3.8781,-3.8781,-3.9155,-3.9424,-3.9424,-3.9424,0.0,-3.9424,-3.8182,-3.7404,-3.7404,-3.6222,-3.5504,-3.5504,-3.5504,-3.5504,-3.5504,-3.5504,0.0,-3.5504,-3.5504,-3.5504,-3.5504,-3.5504,-3.5504,-3.5504,-3.5504,-3.5504,-3.5504,-3.5504,-3.5504,-3.5504,-3.5504,-3.5504,-3.5504,-3.5504,-3.5504,-3.5504,-3.5504,-3.5504,-3.5504,-3.5504,-3.5504,-3.5504,-3.5504,-3.5325,-3.504,-3.4607,-3.3844,-3.3036,-3.2617,-3.2033,-3.1482,-3.1482,-3.1482,-3.1482,-3.1482,-3.1482,-3.1482,-3.1482,-3.1482,-3.1482,-3.1482,-3.1482,-3.1482,-3.1482,-3.1482,-3.1482,-3.1482,0.0,0.0,0.0,0.0,0.0,0.0,-3.1482,-3.124,0.0,0.0,0.0,0.0,0.0,0.0,-3.0178,-3.0372,0.0,-3.0507,-3.0761,-3.1106,-3.1482,-3.1482,-3.1482,-3.1482,-3.1482,-3.1482,-3.1482,-3.1482,-3.1482,-3.1482,-3.1482,-3.1482,-3.1409,-3.0584,-3.0464,-3.0584,-2.9066,-2.8363,-2.8117,-3.6372,-3.6522,-3.6746,0.0,-3.7988,0.0,-3.8452,-3.9005,-3.9424,-3.9424,-3.9424,-3.9424,-3.9424,-3.9424,-3.9424,-3.9424,0.0,0.0,0.0,-3.6222,-3.5504,-3.5504,-3.5504,-3.5504,-3.5504,-3.5504,-3.5504,-3.5504,-3.5504,-3.5504,-3.5504,-3.5504,-3.5504,-3.5504,-3.5504,-3.5504,-3.5504,-3.5504,-3.5504,-3.5504,-3.5504,-3.5504,-3.5504,-3.5504,-3.5504,-3.5504,-3.5504,-3.5504,-3.5504,-3.5504,-3.5504,-3.5489,-3.5444,-3.4966,-3.4412,-3.4412,-3.3499,-3.2497,-3.2452,-3.2003,-3.1482,-3.1482,-3.1482,-3.1482,-3.1482,-3.1482,-3.1482,-3.1482,-3.1482,-3.1482,-3.1482,-3.1482,-3.1482,-3.1482,-3.1482,-3.1482,-3.1482,0.0,0.0,0.0,0.0,0.0,0.0,-3.1437,-3.118,0.0,0.0,0.0,0.0,0.0,-2.946,-2.9505,-3.0118,-3.0432,-3.0432,-3.112,-3.1422,-3.1482,-3.1482,-3.1482,-3.1482,-3.1482,-3.1482,-3.1482,-3.1482,-3.1482,-3.1482,-3.1482,-3.1482,-3.1409,-3.0703,-3.0837,-3.1219,-2.8812,-2.8427,-2.8812,0.0,0.0,-3.7389,-3.8048,-3.8287,-3.8571,-3.9095,-3.932,-3.9424,-3.9424,-3.9424,-3.9424,-3.9424,-3.9424,-3.9424,-3.9424,-3.8182,-3.7404,-3.7404,-3.6222,-3.5504,-3.5504,-3.5504,-3.5504,-3.5504,-3.5504,-3.5504,-3.5504,-3.5504,-3.5504,-3.5504,-3.5504,-3.5504,-3.5504,-3.5504,-3.5504,-3.5504,-3.5504,-3.5504,-3.5504,-3.5504,-3.5504,-3.5504,-3.5504,-3.5504,-3.5504,-3.5504,-3.5504,-3.5504,-3.5504,-3.5504,-3.5415,-3.4891,-3.4262,-3.3724,-3.3724,-3.3155,-3.2407,-3.1898,-3.1601,-3.1482,-3.1482,-3.1482,-3.1482,-3.1482,-3.1482,-3.1482,-3.1482,-3.1482,-3.1482,-3.1482,-3.1482,-3.1482,-3.1482,-3.1482,-3.1482,-3.1482,-3.1482,0.0,0.0,-3.1482,-3.1482,-3.1482,-3.1061,-3.0477,0.0,0.0,0.0,0.0,-2.809,-2.8293,-2.8816,-2.946,-2.9804,-2.9804,-3.0432,-3.1001,-3.1482,-3.1482,-3.1482,-3.1482,-3.1482,-3.1482,-3.1482,-3.1482,-3.1482,-3.1482,-3.1482,-3.1482,-3.1467,-3.1278,-3.1351,-3.1409,-3.0837,-2.995,-2.8939,-3.724,-3.7629,-3.8063,-3.8736,-3.8856,-3.899,-3.9364,-3.9424,-3.9424,-3.9424,-3.9424,-3.9424,-3.9424,-3.9424,-3.929,-3.8975,-3.8003,-3.7404,-3.7404,-3.6222,-3.5504,-3.5504,-3.5504,-3.5504,-3.5504,-3.5504,-3.5504,-3.5504,-3.5504,-3.5504,-3.5504,-3.5504,-3.5504,-3.5504,-3.5504,-3.5504,-3.5504,-3.5504,-3.5504,-3.5504,-3.5504,-3.5504,-3.5504,-3.5504,-3.5504,-3.5504,-3.5504,-3.5504,-3.5504,-3.5504,-3.5295,-3.4966,-3.4592,-3.3814,-3.3036,-3.3036,-3.2587,-3.1988,-3.1571,-3.1482,-3.1482,-3.1482,-3.1482,-3.1482,-3.1482,-3.1482,-3.1482,-3.1482,-3.1482,-3.1482,-3.1482,-3.1482,-3.1482,-3.1482,-3.1482,-3.1482,-3.1482,-3.1482,0.0,-3.1482,-3.1482,-3.1347,-3.1091,-3.0717,-3.0118,-2.9205,-2.8801,0.0,-2.7655,-2.7874,-2.8203,-2.8592,-2.9235,-2.9714,-2.9998,-3.0657,-3.1165,-3.1482,-3.1482,-3.1482,-3.1482,-3.1482,-3.1482,-3.1482,-3.1482,-3.1482,-3.1482,-3.1482,-3.1482,-3.1482,-3.1482,-3.1482,-3.1467,-3.1087,-3.0389,-2.9566,-3.8167,-3.8467,-3.8736,-3.932,-3.9424,-3.9424,-3.9424,-3.9424,-3.9424,-3.9424,-3.9424,-3.9379,-3.9275,-3.926,-3.899,-3.8302,-3.7644,-3.727,-3.727,-3.6163,-3.5504,-3.5504,-3.5504,-3.5504,-3.5504,-3.5504,-3.5504,-3.5504,-3.5504,-3.5504,-3.5504,-3.5504,-3.5504,-3.5504,-3.5504,-3.5504,-3.5504,-3.5504,-3.5504,-3.5504,-3.5504,-3.5504,-3.5504,-3.5504,-3.5504,-3.5504,-3.5504,-3.5429,-3.5355,-3.5355,-3.4891,-3.4307,-3.4203,-3.341,-3.2497,-3.2392,-3.1973,-3.1482,-3.1482,-3.1482,-3.1482,-3.1482,-3.1482,-3.1482,-3.1482,-3.1482,-3.1482,-3.1482,-3.1482,-3.1482,-3.1482,-3.1482,-3.1482,-3.1482,-3.1482,-3.1482,-3.1482,0.0,-3.1482,-3.1482,-3.1377,-3.115,-3.0567,-3.0328,-2.9759,-2.8682,-2.8502,-2.8233,-2.7754,-2.8278,-2.8682,-2.8876,-2.943,-3.0028,-3.0657,-3.124,-3.1482,-3.1482,-3.1482,-3.1482,-3.1482,-3.1482,-3.1482,-3.1482,-3.1482,-3.1482,-3.1482,-3.1482,-3.1482,-3.1482,-3.1482,-3.1482,-3.1409,-3.0718,-3.0389,-3.0208,-3.8242,-3.8856,-3.929,-3.9394,-3.9424,-3.9424,-3.9424,-3.9424,-3.9424,-3.9424,-3.9424,-3.92,-3.8616,-3.8556,-3.8287,-3.7614,-3.6985,-3.6626,-3.6626,-3.5923,-3.5504,-3.5504,-3.5504,-3.5504,-3.5504,-3.5504,-3.5504,-3.5504,-3.5504,-3.5504,-3.5504,-3.5504,-3.5504,-3.5504,-3.5504,-3.5504,-3.5504,-3.5504,-3.5504,-3.5504,-3.5504,-3.5504,-3.5504,-3.5504,-3.5504,-3.5504,-3.5504,-3.513,-3.4637,-3.4637,-3.4203,-3.3559,-3.2991,-3.2677,-3.2407,-3.1795,-3.1556,-3.1482,-3.1482,-3.1482,-3.1482,-3.1482,-3.1482,-3.1482,-3.1482,-3.1482,-3.1482,-3.1482,-3.1482,-3.1482,-3.1482,-3.1482,-3.1482,-3.1482,-3.1482,-3.1482,-3.1482,0.0,-3.1482,-3.1482,-3.1016,-3.0612,-3.0507,-2.9535,-2.8816,-2.8607,-2.8068,-2.7934,-2.8412,-2.8547,-2.9101,-3.0178,-3.0313,-3.0687,-3.136,-3.1422,-3.1482,-3.1482,-3.1482,-3.1482,-3.1482,-3.1482,-3.1482,-3.1482,-3.1482,-3.1482,-3.1482,-3.1482,-3.1482,-3.1482,-3.1482,-3.1482,-3.1467,-3.1351,-3.0896,-3.0269,-3.8257,-3.8945,-3.9424,-3.9424,-3.9424,-3.9424,-3.9424,-3.9424,-3.929,-3.8916,-3.8871,-3.8616,-3.7928,-3.7853,-3.7599,-3.6971,-3.6656,-3.6342,-3.5983,-3.5669,-3.5504,-3.5504,-3.5504,-3.5504,-3.5504,-3.5504,-3.5504,-3.5504,-3.5504,-3.5504,-3.5504,-3.5504,-3.5504,-3.5504,-3.5504,-3.5504,-3.5504,-3.5504,-3.5504,-3.5504,-3.5504,-3.5504,-3.5504,-3.5504,-3.5504,-3.5504,-3.5504,-3.5295,-3.4981,-3.4607,-3.4038,-3.338,-3.2721,-3.2273,-3.1928,-3.1556,-3.1482,-3.1482,-3.1482,-3.1482,-3.1482,-3.1482,-3.1482,-3.1482,-3.1482,-3.1482,-3.1482,-3.1482,-3.1482,-3.1482,-3.1482,-3.1482,-3.1482,-3.1482,-3.1482,0.0,0.0,-3.1482,-3.1482,-3.1482,-3.1255,-3.0911,-3.0537,-2.9968,-2.949,-2.9146,-2.8831,-2.8786,-2.9116,-2.9445,-2.9894,-3.0477,-3.0866,-3.121,-3.1482,-3.1482,-3.1482,-3.1482,-3.1482,-3.1482,-3.1482,-3.1482,-3.1482,-3.1482,-3.1482,-3.1482,-3.1482,-3.1482,-3.1482,-3.1482,-3.1482,-3.1482,-3.1482,-3.1482,-3.1055,-3.0425,-3.8348,-3.8852,-3.9159,-3.8945,-3.8945,-3.8945,-3.8945,-3.8945,-3.8766,-3.8227,-3.8167,-3.7913,-3.727,-3.7195,-3.6941,-3.6312,-3.6252,-3.6043,-3.5534,-3.5504,-3.5504,-3.5504,-3.5504,-3.5504,-3.5504,-3.5504,-3.5504,-3.5504,-3.5504,-3.5504,-3.5504,-3.5504,-3.5504,-3.5504,-3.5504,-3.5504,-3.5504,-3.5504,-3.5504,-3.5504,-3.5504,-3.5504,-3.5504,-3.5504,-3.5504,-3.5504,-3.5504,-3.54,-3.516,-3.4472,-3.3814,-3.3155,-3.2497,-3.1943,-3.1482,-3.1482,-3.1482,-3.1482,-3.1482,-3.1482,-3.1482,-3.1482,-3.1482,-3.1482,-3.1482,-3.1482,-3.1482,-3.1482,-3.1482,-3.1482,-3.1482,-3.1482,-3.1482,-3.1482,0.0,0.0,0.0,-3.1482,-3.1482,-3.1482,-3.1332,-3.1091,-3.0552,-3.0372,-3.0088,-2.9609,-2.9579,-2.9639,-2.9789,-3.0253,-3.0567,-3.0731,-3.1255,-3.1482,-3.1482,-3.1482,-3.1482,-3.1482,-3.1482,-3.1482,-3.1482,-3.1482,-3.1482,-3.1482,-3.1482,-3.1482,-3.1482,-3.1482,-3.1482,-3.1482,-3.1482,-3.1377,-3.13,-3.13,-3.0866,-3.0283,-3.8614,-3.862,-3.8387,-3.7691,-3.7554,-3.7554,-3.7554,-3.7554,-3.7539,-3.7479,-3.7479,-3.724,-3.6626,-3.6552,-3.6297,-3.5639,-3.5579,-3.5549,-3.5504,-3.5504,-3.5504,-3.5504,-3.5504,-3.5504,-3.5504,-3.5504,-3.5504,-3.5504,-3.5504,-3.5504,-3.5504,-3.5504,-3.5504,-3.5504,-3.5504,-3.5504,-3.5504,-3.5504,-3.5504,-3.5504,-3.5504,-3.5504,-3.5504,-3.5504,-3.5504,-3.5504,-3.5504,-3.51,-3.4442,-3.3784,-3.3125,-3.2482,-3.1824,-3.1511,-3.1482,-3.1482,-3.1482,-3.1482,-3.1482,-3.1482,-3.1482,-3.1482,-3.1482,-3.1482,-3.1482,-3.1482,-3.1482,-3.1482,-3.1482,-3.1482,-3.1482,-3.1482,-3.1482,-3.1482,0.0,0.0,-3.1482,-3.1482,-3.1482,-3.1482,-3.0971,-3.0552,-3.0507,-2.9983,-2.9624,-2.9579,-2.9579,-2.9834,-3.0402,-3.0477,-3.0791,-3.1377,-3.1452,-3.1482,-3.1482,-3.1482,-3.1482,-3.1482,-3.1482,-3.1482,-3.1482,-3.1482,-3.1482,-3.1482,-3.1482,-3.1482,-3.1482,-3.1482,-3.1482,-3.1482,-3.1482,-3.115,-3.0582,-3.0582,-3.0178,-2.9654,-3.8728,-3.9061,-3.9235,-3.8902,-3.8918,-3.8918,-3.8918,-3.8918,-3.8762,-3.8325,-3.7833,-3.7281,-3.6624,-3.6159,-3.5774,-3.5534,-3.5504,-3.5504,-3.5504,-3.5504,-3.5504,-3.5504,-3.5504,-3.5504,-3.5504,-3.5504,-3.5504,-3.5504,-3.5504,-3.5504,-3.5504,-3.5504,-3.5504,-3.5504,-3.5504,-3.5504,-3.5504,-3.5504,-3.5504,-3.5504,-3.5504,-3.5504,-3.5504,-3.5504,-3.5504,-3.5504,-3.5504,-3.534,-3.4951,-3.3858,-3.332,-3.2931,-3.1869,-3.1482,-3.1482,-3.1482,-3.1482,-3.1482,-3.1482,-3.1482,-3.1482,-3.1482,-3.1482,-3.1482,-3.1482,-3.1482,-3.1482,-3.1482,-3.1482,-3.1482,-3.1482,-3.1482,-3.1482,-3.1482,0.0,-3.1482,-3.1482,-3.1482,-3.1482,-3.1482,-3.13,-3.115,-3.115,-3.0926,-3.0791,-3.0791,-3.0791,-3.0896,-3.1135,-3.115,-3.127,-3.1467,-3.1482,-3.1482,-3.1482,-3.1482,-3.1482,-3.1482,-3.1482,-3.1482,-3.1482,-3.1482,-3.1482,-3.1482,-3.1482,-3.1482,-3.1482,-3.1482,-3.1482,-3.1437,-3.1061,-3.0731,-3.0447,-3.0073,-2.952,-2.8966,-3.8859,-3.9205,-3.9409,-3.9186,-3.9186,-3.9186,-3.9186,-3.9186,-3.9026,-3.8547,-3.7989,-3.7496,-3.7027,-3.6538,-3.6196,-3.6196,-3.6196,-3.6196,-3.6196,-3.5958,-3.5718,-3.5504,-3.5504,-3.5504,-3.5504,-3.5504,-3.5504,-3.5504,-3.5504,-3.5504,-3.5504,-3.5504,-3.5504,-3.5504,-3.5504,-3.5504,-3.5504,-3.5504,-3.5504,-3.5504,-3.5504,-3.5504,-3.5504,-3.5504,-3.5504,-3.5504,-3.5504,-3.5504,-3.531,-3.3948,-3.3499,-3.326,-3.1943,-3.1482,-3.1482,-3.1482,-3.1482,-3.1482,-3.1482,-3.1482,-3.1482,-3.1482,-3.1482,-3.1482,-3.1482,-3.1482,-3.1482,-3.1482,-3.1482,-3.1482,-3.1482,-3.1482,-3.1482,-3.1482,-3.1482,-3.1482,-3.1482,-3.1482,-3.1482,-3.1482,-3.1482,-3.1482,-3.1482,-3.1482,-3.1482,-3.1482,-3.1482,-3.1482,-3.1482,-3.1482,-3.1482,-3.1482,-3.1482,-3.1482,-3.1482,-3.1482,-3.1482,-3.1482,-3.1482,-3.1482,-3.1482,-3.1482,-3.1482,-3.1482,-3.1482,-3.1482,-3.1452,-3.1243,-3.121,-3.115,-3.0477,-3.0088,-2.9849,-2.943,-2.8846,-2.8278,-3.9086,-3.8908,-3.869,-3.7921,-3.7822,-3.7822,-3.7822,-3.7822,-3.7822,-3.7822,-3.7806,-3.7822,-3.7822,-3.7806,-3.7822,-3.7822,-3.7822,-3.7822,-3.7822,-3.7024,-3.6275,-3.5554,-3.5504,-3.5504,-3.5504,-3.5504,-3.5504,-3.5504,-3.5504,-3.5504,-3.5504,-3.5504,-3.5504,-3.5504,-3.5504,-3.5504,-3.5504,-3.5504,-3.5504,-3.5504,-3.5504,-3.5504,-3.5504,-3.5504,-3.5504,-3.5504,-3.5504,-3.5504,-3.531,-3.3948,-3.3499,-3.326,-3.1943,-3.1482,-3.1482,-3.1482,-3.1482,-3.1482,-3.1482,-3.1482,-3.1482,-3.1482,-3.1482,-3.1482,-3.1482,-3.1482,-3.1482,-3.1482,-3.1482,-3.1482,-3.1482,-3.1482,-3.1482,-3.1482,-3.1482,-3.1482,-3.1482,-3.1482,-3.1482,-3.1482,-3.1482,-3.1482,-3.1482,-3.1482,-3.1482,-3.1482,-3.1482,-3.1482,-3.1539,-3.1539,-3.1539,-3.1539,-3.1524,-3.1524,-3.1539,-3.1482,-3.1482,-3.1482,-3.1482,-3.1482,-3.1482,-3.1482,-3.1482,-3.1482,-3.1482,-3.1482,-3.1422,-3.0791,-3.0507,-3.0432,-2.9819,-2.9175,-2.8607,-2.8592,-2.8158,-2.7625,-3.9782,-3.9731,-3.9662,-3.9454,-3.9385,-3.9385,-3.9385,-3.9385,-3.9385,-3.9385,-3.8924,-3.858,-3.858,-3.8092,-3.7822,-3.7822,-3.7822,-3.7822,-3.7822,-3.7573,-3.7338,-3.7115,-3.6085,-3.5504,-3.5504,-3.5504,-3.5504,-3.5504,-3.5504,-3.5504,-3.5504,-3.5504,-3.5504,-3.5504,-3.5504,-3.5504,-3.5504,-3.5504,-3.5504,-3.5504,-3.5504,-3.5504,-3.5504,-3.5504,-3.5504,-3.5504,-3.5504,-3.5504,-3.531,-3.3948,-3.3499,-3.326,-3.1943,-3.1482,-3.1482,-3.1482,-3.1482,-3.1482,-3.1482,-3.1482,-3.1482,-3.1482,-3.1482,-3.1482,-3.1482,-3.1482,-3.1482,-3.1482,-3.1482,-3.1482,-3.1482,-3.1482,-3.1482,-3.1482,-3.1482,-3.1482,-3.1482,-3.1482,-3.1482,-3.1482,-3.1482,-3.1482,-3.1482,-3.1482,-3.1482,-3.1482,-3.1482,-3.1739,-3.2216,-3.2272,-3.2272,-3.2272,-3.2718,-3.2772,-3.2272,-3.1739,-3.1482,-3.1482,-3.1482,-3.1482,-3.1482,-3.1482,-3.1482,-3.1482,-3.1482,-3.1255,-3.0791,-3.0582,-3.0253,-2.9789,-2.9146,-2.8771,-2.8547,-2.8053,-2.779,-2.7625,-4.007,-4.007,-4.007,-4.007,-4.007,-4.007,-4.007,-4.007,-4.007,-4.007,-3.9662,-3.9368,-3.9368,-3.8995,-3.8723,-3.8723,-3.8723,-3.8541,-3.8262,-3.8262,-3.8092,-3.7806,-3.689,-3.6243,-3.5943,-3.5958,-3.5782,-3.5504,-3.5504,-3.5504,-3.5504,-3.5504,-3.5504,-3.5504,-3.5504,-3.5504,-3.5504,-3.5504,-3.5504,-3.5504,-3.5504,-3.5504,-3.5504,-3.5504,-3.5504,-3.5504,-3.5504,-3.5504,-3.531,-3.3948,-3.3155,-3.2587,-3.1779,-3.1482,-3.1482,-3.1482,-3.1482,-3.1482,-3.1482,-3.1682,-3.1966,-3.1966,-3.1697,-3.1482,-3.1482,-3.1482,-3.1482,-3.1482,-3.1482,-3.1482,-3.1482,-3.1482,-3.1482,-3.1482,-3.1482,-3.1582,-3.1894,-3.1682,-3.1582,-3.1894,-3.1697,-3.164,-3.191,-3.1697,-3.164,-3.191,-3.2145,-3.2516,-3.2986,-3.3002,-3.3002,-3.3002,-3.3391,-3.3391,-3.2986,-3.2571,-3.2351,-3.2296,-3.1796,-3.164,-3.191,-3.164,-3.1482,-3.1467,-3.124,-3.0881,-3.0462,-2.9953,-2.9535,-2.9131,-2.8457,-2.8188,-2.8143,-2.7775,-2.7625,-2.7625,-4.007,-4.007,-4.007,-4.007,-4.007,-4.007,-4.007,-4.007,-4.007,-4.007,-4.007,-4.007,-4.007,-4.007,-4.007,-4.007,-4.007,-3.9782,-3.9086,-3.9032,-3.869,-3.8035,-3.7994,-3.7616,-3.6843,-3.6722,-3.6399,-3.5683,-3.5683,-3.5683,-3.5683,-3.5683,-3.5683,-3.5668,-3.5619,-3.5619,-3.5683,-3.5569,-3.5569,-3.5619,-3.5619,-3.5554,-3.5504,-3.5683,-3.5683,-3.5619,-3.5683,-3.5638,-3.5319,-3.3967,-3.2676,-3.1582,-3.1682,-3.1682,-3.1682,-3.1682,-3.1682,-3.1682,-3.1682,-3.216,-3.2695,-3.2695,-3.216,-3.1582,-3.1582,-3.1582,-3.1582,-3.1524,-3.1482,-3.1524,-3.1582,-3.1582,-3.164,-3.1682,-3.1682,-3.1894,-3.2492,-3.2007,-3.1853,-3.2547,-3.2007,-3.191,-3.2641,-3.2048,-3.1951,-3.2641,-3.3235,-3.3633,-3.3684,-3.3684,-3.3684,-3.3684,-3.3735,-3.3735,-3.3684,-3.3633,-3.3598,-3.3495,-3.2201,-3.191,-3.2492,-3.1736,-3.1377,-3.1347,-3.0717,-3.0387,-3.0238,-2.9086,-2.8562,-2.8442,-2.7814,-2.7625,-2.7625,-2.7625,-2.7625,-2.7625,-4.007,-4.007,-4.007,-4.007,-4.007,-4.007,-4.007,-4.007,-4.007,-4.007,-4.007,-4.007,-4.007,-4.007,-4.007,-4.007,-4.007,-4.002,-3.9833,-3.9833,-3.9782,-3.9627,-3.9627,-3.9209,-3.8398,-3.7847,-3.7456,-3.7294,-3.7294,-3.7294,-3.7294,-3.7294,-3.7294,-3.7294,-3.6631,-3.6692,-3.7235,-3.6022,-3.5831,-3.6384,-3.6384,-3.6006,-3.5619,-3.6829,-3.6935,-3.6446,-3.7055,-3.6531,-3.5399,-3.3971,-3.2972,-3.2422,-3.2971,-3.313,-3.313,-3.313,-3.313,-3.313,-3.313,-3.3287,-3.3391,-3.3391,-3.2879,-3.2382,-3.2382,-3.2382,-3.2231,-3.164,-3.1482,-3.1697,-3.2272,-3.2382,-3.2532,-3.3077,-3.313,-3.3039,-3.2641,-3.2437,-3.2437,-3.2602,-3.2437,-3.2625,-3.3339,-3.3235,-3.3235,-3.3391,-3.3547,-3.3836,-3.4333,-3.4382,-3.4382,-3.4382,-3.4894,-3.4894,-3.4382,-3.3836,-3.3339,-3.2788,-3.2492,-3.216,-3.1724,-3.1027,-3.0731,-3.0687,-3.0058,-2.949,-2.8996,-2.8712,-2.8278,-2.7784,-2.7685,-2.7625,-2.7625,-2.7625,-2.7625,-2.7625,-4.007,-4.007,-4.007,-4.007,-4.007,-4.007,-4.007,-4.007,-4.007,-4.007,-4.007,-4.007,-4.007,-4.007,-4.007,-4.007,-4.007,-4.007,-4.007,-4.007,-4.007,-4.007,-4.007,-3.9901,-3.9489,-3.9102,-3.8557,-3.7822,-3.7822,-3.7822,-3.7822,-3.7822,-3.7822,-3.7748,-3.7338,-3.7397,-3.7764,-3.6951,-3.6829,-3.7144,-3.7144,-3.6935,-3.6662,-3.7472,-3.7515,-3.7219,-3.7632,-3.6848,-3.5461,-3.4392,-3.359,-3.3145,-3.3495,-3.3582,-3.3582,-3.3582,-3.3582,-3.3582,-3.3582,-3.3836,-3.4087,-3.4087,-3.4037,-3.3853,-3.3235,-3.2841,-3.2586,-3.2516,-3.2516,-3.261,-3.2986,-3.3093,-3.3093,-3.3145,-3.3391,-3.3495,-3.3145,-3.3093,-3.3198,-3.3547,-3.3287,-3.3182,-3.3598,-3.4202,-3.4399,-3.4087,-3.4399,-3.4704,-3.5052,-3.5098,-3.5098,-3.5098,-3.5424,-3.5424,-3.5098,-3.4752,-3.4202,-3.3531,-3.2571,-3.1896,-3.1521,-3.0824,-3.0342,-3.0028,-2.9385,-2.8921,-2.8577,-2.8248,-2.7904,-2.7625,-2.7625,-2.7625,-2.7625,-2.7625,-2.7625,-2.7625,-4.007,-4.007,-4.007,-4.007,-4.007,-4.007,-4.007,-4.007,-4.007,-4.007,-4.007,-4.007,-4.007,-4.007,-4.007,-4.007,-4.007,-4.007,-4.007,-4.007,-4.007,-4.007,-4.007,-4.007,-4.007,-4.007,-3.9454,-3.8206,-3.8206,-3.8206,-3.8206,-3.8206,-3.8206,-3.8206,-3.8035,-3.8035,-3.8149,-3.7921,-3.7863,-3.7978,-3.7978,-3.7921,-3.7822,-3.8092,-3.8092,-3.8019,-3.802,-3.6996,-3.5567,-3.486,-3.4217,-3.3786,-3.3887,-3.3937,-3.3937,-3.3937,-3.3937,-3.3937,-3.3937,-3.435,-3.4783,-3.4783,-3.5098,-3.5161,-3.4202,-3.3443,-3.3093,-3.3495,-3.3582,-3.3649,-3.3735,-3.3786,-3.3633,-3.3198,-3.3598,-3.3887,-3.3786,-3.3786,-3.3987,-3.4528,-3.4186,-3.3937,-3.3937,-3.4958,-3.5362,-3.4783,-3.5316,-3.5622,-3.5622,-3.5622,-3.5622,-3.5622,-3.5622,-3.5622,-3.5622,-3.547,-3.5098,-3.4431,-3.2431,-3.1551,-3.1579,-3.0867,-3.0093,-2.937,-2.8712,-2.8427,-2.8382,-2.7814,-2.7625,-2.7625,-2.7625,-2.7625,-2.7625,-2.7625,-2.7625,-2.7625,-4.007,-4.007,-4.007,-4.007,-4.007,-4.007,-4.007,-4.007,-4.007,-4.007,-4.007,-4.007,-4.007,-4.007,-4.007,-4.007,-4.007,-4.007,-4.007,-4.007,-4.007,-4.007,-4.007,-4.007,-4.007,-4.007,-4.002,-3.9799,-3.9799,-3.9799,-3.9799,-3.9799,-3.9799,-3.9731,-3.9032,-3.9156,-3.9679,-3.8374,-3.8149,-3.8745,-3.8745,-3.8358,-3.7921,-3.9279,-3.9385,-3.8788,-3.8805,-3.7519,-3.5613,-3.4873,-3.4561,-3.4592,-3.5161,-3.5316,-3.5316,-3.5316,-3.5316,-3.5316,-3.5316,-3.5424,-3.547,-3.547,-3.5098,-3.4847,-3.527,-3.48,-3.4186,-3.3684,-3.3582,-3.3786,-3.4382,-3.4479,-3.464,-3.5115,-3.527,-3.5115,-3.4544,-3.4479,-3.4479,-3.4576,-3.5052,-3.5316,-3.5316,-3.547,-3.556,-3.547,-3.556,-3.5622,-3.5622,-3.5622,-3.5622,-3.5622,-3.5622,-3.5622,-3.5622,-3.5005,-3.4382,-3.3735,-3.2285,-3.1619,-3.1564,-3.0892,-2.9913,-2.8697,-2.8008,-2.776,-2.7709,-2.7655,-2.7625,-2.7625,-2.7625,-2.7625,-2.7625,-2.7625,-2.7625,-2.7625,-4.007,-4.007,-4.007,-4.007,-4.007,-4.007,-4.007,-4.007,-4.007,-4.007,-4.007,-4.007,-4.007,-4.007,-4.007,-4.007,-4.007,-4.007,-4.007,-4.007,-4.007,-4.007,-4.007,-4.007,-4.007,-4.007,-4.007,-4.007,-4.007,-4.007,-4.007,-4.007,-4.007,-4.007,-3.9731,-3.9782,-4.007,-3.9385,-3.9279,-3.9558,-3.9558,-3.9385,-3.9172,-3.985,-3.9649,-3.8857,-3.8063,-3.7155,-3.6229,-3.5412,-3.5161,-3.5207,-3.5515,-3.5622,-3.5622,-3.5622,-3.5622,-3.5622,-3.5622,-3.5622,-3.5622,-3.5622,-3.5362,-3.5253,-3.5515,-3.5362,-3.5052,-3.4752,-3.4704,-3.48,-3.5098,-3.5161,-3.5144,-3.5052,-3.5362,-3.5362,-3.4688,-3.4941,-3.5161,-3.5161,-3.5407,-3.5622,-3.5622,-3.5622,-3.5622,-3.5622,-3.5622,-3.5622,-3.5622,-3.5622,-3.5622,-3.5622,-3.5622,-3.5622,-3.5622,-3.5316,-3.4788,-3.4093,-3.3529,-3.2433,-3.0923,-2.995,-2.9139,-2.8484,-2.7896,-2.7625,-2.7625,-2.7625,-2.7625,-2.7625,-2.7625,-2.7625,-2.7625,-2.7625,-2.7625,-2.7625]},{"header":{"parameterUnit":"m.s-1","parameterCategory":1,"la1":30.6,"la2":28.766,"lo1":-90.7593,"lo2":-88.6598,"dy":0.0162,"dx":0.0183,"nx":116,"ny":114,"refTime":"2023-05-25T00:00:00:Z","depth":0,"parameterNumber":3,"parameterNumberName":"V-component_of_WINDS"},"data":[0.0,0.0,0.0,0.0,0.0,0.0,0.0,0.0,0.0,0.0,0.0,0.0,0.0,0.0,0.0,0.0,0.0,0.0,0.0,0.0,0.0,0.0,0.0,0.0,0.0,0.0,0.0,0.0,0.0,0.0,0.0,0.0,0.0,0.0,0.0,0.0,0.0,0.0,0.0,0.0,0.0,0.0,0.0,0.0,0.0,0.0,0.0,0.0,0.0,0.0,0.0,0.0,0.0,0.0,0.0,0.0,0.0,0.0,0.0,0.0,0.0,0.0,0.0,0.0,0.0,0.0,0.0,0.0,0.0,0.0,0.0,0.0,0.0,0.0,0.0,0.0,0.0,0.0,0.0,0.0,0.0,0.0,0.0,0.0,0.0,0.0,0.0,0.0,0.0,0.0,0.0,0.0,0.0,0.0,0.0,0.0,0.0,0.0,0.0,0.0,0.0,0.0,0.0,0.0,0.0,0.0,0.0,0.0,0.0,0.0,0.0,0.0,0.0,0.0,0.0,0.0,0.0,0.0,0.0,0.0,0.0,0.0,0.0,0.0,0.0,0.0,0.0,0.0,0.0,0.0,0.0,0.0,0.0,0.0,0.0,0.0,0.0,0.0,0.0,0.0,0.0,0.0,0.0,0.0,0.0,0.0,0.0,0.0,0.0,0.0,0.0,0.0,0.0,0.0,0.0,0.0,0.0,0.0,0.0,0.0,0.0,0.0,0.0,0.0,0.0,0.0,0.0,0.0,0.0,0.0,0.0,0.0,0.0,0.0,0.0,0.0,0.0,0.0,0.0,0.0,0.0,0.0,0.0,0.0,0.0,0.0,0.0,0.0,0.0,0.0,0.0,0.0,0.0,0.0,0.0,0.0,0.0,0.0,0.0,0.0,0.0,0.0,0.0,0.0,0.0,0.0,0.0,0.0,0.0,0.0,0.0,0.0,0.0,0.0,0.0,0.0,0.0,0.0,0.0,0.0,0.0,0.0,0.0,0.0,0.0,0.0,0.0,0.0,0.0,0.0,0.0,0.0,0.0,0.0,0.0,0.0,0.0,0.0,0.0,0.0,0.0,0.0,0.0,0.0,0.0,0.0,0.0,0.0,0.0,0.0,0.0,0.0,0.0,0.0,0.0,0.0,0.0,0.0,0.0,0.0,0.0,0.0,0.0,0.0,0.0,0.0,0.0,0.0,0.0,0.0,0.0,0.0,0.0,0.0,0.0,0.0,0.0,0.0,0.0,0.0,0.0,0.0,0.0,0.0,0.0,0.0,0.0,0.0,0.0,0.0,0.0,0.0,0.0,0.0,0.0,0.0,0.0,0.0,0.0,0.0,0.0,0.0,0.0,0.0,0.0,0.0,0.0,0.0,0.0,0.0,0.0,0.0,0.0,0.0,0.0,0.0,0.0,0.0,0.0,0.0,0.0,0.0,0.0,0.0,0.0,0.0,0.0,0.0,0.0,0.0,0.0,0.0,0.0,0.0,0.0,0.0,0.0,0.0,0.0,0.0,0.0,0.0,0.0,0.0,0.0,0.0,0.0,0.0,0.0,0.0,0.0,0.0,0.0,0.0,0.0,0.0,0.0,0.0,0.0,0.0,0.0,0.0,0.0,0.0,0.0,0.0,0.0,0.0,0.0,0.0,0.0,0.0,0.0,0.0,0.0,0.0,0.0,0.0,0.0,0.0,0.0,0.0,0.0,0.0,0.0,0.0,0.0,0.0,0.0,0.0,0.0,0.0,0.0,0.0,0.0,0.0,0.0,0.0,0.0,0.0,0.0,0.0,0.0,0.0,0.0,0.0,0.0,0.0,0.0,0.0,0.0,0.0,0.0,0.0,0.0,0.0,0.0,0.0,0.0,0.0,0.0,0.0,0.0,0.0,0.0,0.0,0.0,0.0,0.0,0.0,0.0,0.0,0.0,0.0,0.0,0.0,0.0,0.0,0.0,0.0,0.0,0.0,0.0,0.0,0.0,0.0,0.0,0.0,0.0,0.0,0.0,0.0,0.0,0.0,0.0,0.0,0.0,0.0,0.0,0.0,0.0,0.0,0.0,0.0,0.0,0.0,0.0,0.0,0.0,0.0,0.0,0.0,0.0,0.0,0.0,0.0,0.0,0.0,0.0,0.0,0.0,0.0,0.0,0.0,0.0,0.0,0.0,0.0,0.0,0.0,0.0,0.0,0.0,0.0,0.0,0.0,0.0,0.0,0.0,0.0,0.0,0.0,0.0,0.0,0.0,0.0,0.0,0.0,0.0,0.0,0.0,0.0,0.0,0.0,0.0,0.0,0.0,0.0,0.0,0.0,0.0,0.0,0.0,0.0,0.0,0.0,0.0,0.0,0.0,0.0,0.0,0.0,0.0,0.0,0.0,0.0,0.0,0.0,0.0,0.0,0.0,0.0,0.0,0.0,0.0,0.0,0.0,0.0,0.0,0.0,0.0,0.0,0.0,0.0,0.0,0.0,0.0,0.0,0.0,0.0,0.0,0.0,0.0,0.0,0.0,0.0,0.0,0.0,0.0,0.0,0.0,0.0,0.0,0.0,0.0,0.0,0.0,0.0,0.0,0.0,0.0,0.0,0.0,0.0,0.0,0.0,0.0,0.0,0.0,0.0,0.0,0.0,0.0,0.0,0.0,0.0,0.0,0.0,0.0,0.0,0.0,0.0,0.0,0.0,0.0,0.0,0.0,0.0,0.0,0.0,0.0,0.0,0.0,0.0,0.0,0.0,0.0,0.0,0.0,0.0,0.0,0.0,0.0,0.0,0.0,0.0,0.0,0.0,0.0,0.0,0.0,0.0,0.0,0.0,0.0,0.0,0.0,0.0,0.0,0.0,0.0,0.0,0.0,0.0,0.0,0.0,0.0,0.0,0.0,0.0,0.0,0.0,0.0,0.0,0.0,0.0,0.0,0.0,0.0,0.0,0.0,0.0,0.0,0.0,0.0,0.0,0.0,0.0,0.0,0.0,0.0,0.0,0.0,0.0,0.0,0.0,0.0,0.0,0.0,0.0,0.0,0.0,0.0,0.0,0.0,0.0,0.0,0.0,0.0,0.0,0.0,0.0,0.0,0.0,0.0,0.0,0.0,0.0,0.0,0.0,0.0,0.0,0.0,0.0,0.0,0.0,0.0,0.0,0.0,0.0,0.0,0.0,0.0,0.0,0.0,0.0,0.0,0.0,0.0,0.0,0.0,0.0,0.0,0.0,0.0,0.0,0.0,0.0,0.0,0.0,0.0,0.0,0.0,0.0,0.0,0.0,0.0,0.0,0.0,0.0,0.0,0.0,0.0,0.0,0.0,0.0,0.0,0.0,0.0,0.0,0.0,0.0,0.0,0.0,0.0,0.0,0.0,0.0,0.0,0.0,0.0,0.0,0.0,0.0,0.0,0.0,0.0,0.0,0.0,0.0,0.0,0.0,0.0,0.0,0.0,0.0,0.0,0.0,0.0,0.0,0.0,0.0,0.0,0.0,0.0,0.0,0.0,0.0,0.0,0.0,0.0,0.0,0.0,0.0,0.0,0.0,0.0,0.0,0.0,0.0,0.0,0.0,0.0,0.0,0.0,0.0,0.0,0.0,0.0,0.0,0.0,0.0,0.0,0.0,0.0,0.0,0.0,0.0,0.0,0.0,0.0,0.0,0.0,0.0,0.0,0.0,0.0,0.0,0.0,0.0,0.0,0.0,0.0,0.0,0.0,0.0,0.0,0.0,0.0,0.0,0.0,0.0,0.0,0.0,0.0,0.0,0.0,0.0,0.0,0.0,0.0,0.0,0.0,0.0,0.0,0.0,0.0,0.0,0.0,0.0,0.0,0.0,0.0,0.0,0.0,0.0,0.0,0.0,0.0,0.0,0.0,0.0,0.0,0.0,0.0,0.0,0.0,0.0,0.0,0.0,0.0,0.0,0.0,0.0,0.0,0.0,0.0,0.0,0.0,0.0,0.0,0.0,0.0,0.0,0.0,0.0,0.0,0.0,0.0,0.0,0.0,0.0,0.0,0.0,0.0,0.0,0.0,0.0,0.0,0.0,0.0,0.0,0.0,0.0,0.0,0.0,0.0,0.0,0.0,0.0,0.0,0.0,0.0,0.0,0.0,0.0,0.0,0.0,0.0,0.0,0.0,0.0,0.0,0.0,0.0,0.0,0.0,0.0,0.0,0.0,0.0,0.0,0.0,0.0,0.0,0.0,0.0,0.0,0.0,0.0,0.0,0.0,0.0,0.0,0.0,0.0,0.0,0.0,0.0,0.0,0.0,0.0,0.0,0.0,0.0,0.0,0.0,0.0,0.0,0.0,0.0,0.0,0.0,0.0,0.0,0.0,0.0,0.0,0.0,0.0,0.0,0.0,0.0,0.0,0.0,0.0,0.0,0.0,0.0,0.0,0.0,0.0,0.0,0.0,0.0,0.0,0.0,0.0,0.0,0.0,0.0,0.0,0.0,0.0,0.0,0.0,0.0,0.0,0.0,0.0,0.0,0.0,0.0,0.0,0.0,0.0,0.0,0.0,0.0,0.0,0.0,0.0,0.0,0.0,0.0,0.0,0.0,0.0,0.0,0.0,0.0,0.0,0.0,0.0,0.0,0.0,0.0,0.0,0.0,0.0,0.0,0.0,0.0,0.0,0.0,0.0,0.0,0.0,0.0,0.0,0.0,0.0,0.0,0.0,0.0,0.0,0.0,0.0,0.0,0.0,0.0,0.0,0.0,0.0,0.0,0.0,0.0,0.0,0.0,0.0,0.0,0.0,0.0,0.0,0.0,0.0,0.0,0.0,0.0,0.0,0.0,0.0,0.0,0.0,0.0,0.0,0.0,0.0,0.0,0.0,0.0,0.0,0.0,0.0,0.0,0.0,0.0,0.0,0.0,0.0,0.0,0.0,0.0,0.0,0.0,0.0,0.0,0.0,0.0,0.0,0.0,0.0,0.0,0.0,0.0,0.0,0.0,0.0,0.0,0.0,0.0,0.0,0.0,0.0,0.0,0.0,0.0,0.0,0.0,0.0,0.0,0.0,0.0,0.0,0.0,0.0,0.0,0.0,0.0,0.0,0.0,0.0,0.0,0.0,0.0,0.0,0.0,0.0,0.0,0.0,0.0,0.0,0.0,0.0,0.0,0.0,0.0,0.0,0.0,0.0,0.0,0.0,0.0,0.0,0.0,0.0,0.0,0.0,0.0,0.0,0.0,0.0,0.0,0.0,0.0,0.0,0.0,0.0,0.0,0.0,0.0,0.0,0.0,0.0,0.0,0.0,0.0,0.0,0.0,0.0,0.0,0.0,0.0,0.0,0.0,0.0,0.0,0.0,0.0,0.0,0.0,0.0,0.0,0.0,0.0,0.0,0.0,0.0,0.0,0.0,0.0,0.0,0.0,0.0,0.0,0.0,0.0,0.0,0.0,0.0,0.0,0.0,0.0,0.0,0.0,0.0,0.0,0.0,0.0,0.0,0.0,0.0,0.0,0.0,0.0,0.0,0.0,0.0,0.0,0.0,0.0,0.0,0.0,0.0,0.0,0.0,0.0,0.0,0.0,0.0,0.0,0.0,0.0,0.0,0.0,0.0,0.0,0.0,0.0,0.0,0.0,0.0,0.0,0.0,0.0,0.0,0.0,0.0,0.0,0.0,0.0,0.0,0.0,0.0,0.0,0.0,0.0,0.0,0.0,0.0,0.0,0.0,0.0,0.0,0.0,0.0,0.0,0.0,0.0,0.0,0.0,0.0,0.0,0.0,0.0,0.0,0.0,0.0,0.0,0.0,0.0,0.0,0.0,0.0,0.0,0.0,0.0,0.0,0.0,0.0,0.0,0.0,0.0,0.0,0.0,0.0,0.0,0.0,0.0,0.0,0.0,0.0,0.0,0.0,0.0,0.0,0.0,0.0,0.0,0.0,0.0,0.0,0.0,0.0,0.0,0.0,0.0,0.0,0.0,0.0,0.0,0.0,0.0,0.0,0.0,0.0,0.0,0.0,0.0,0.0,0.0,0.0,0.0,0.0,0.0,0.0,0.0,0.0,0.0,0.0,0.0,0.0,0.0,0.0,0.0,0.0,0.0,0.0,0.0,0.0,0.0,0.0,0.0,0.0,0.0,0.0,0.0,0.0,0.0,0.0,-2.3595,0.0,0.0,0.0,0.0,0.0,0.0,0.0,0.0,0.0,0.0,0.0,0.0,0.0,0.0,0.0,0.0,0.0,0.0,0.0,0.0,0.0,0.0,0.0,0.0,0.0,0.0,0.0,0.0,0.0,0.0,0.0,0.0,0.0,0.0,0.0,0.0,0.0,0.0,0.0,0.0,0.0,0.0,0.0,0.0,0.0,0.0,0.0,0.0,0.0,0.0,0.0,0.0,0.0,0.0,0.0,0.0,0.0,0.0,0.0,0.0,0.0,0.0,0.0,0.0,0.0,0.0,0.0,0.0,0.0,0.0,0.0,0.0,0.0,0.0,0.0,0.0,0.0,0.0,0.0,0.0,0.0,0.0,0.0,0.0,0.0,0.0,0.0,0.0,0.0,0.0,0.0,0.0,0.0,0.0,0.0,0.0,0.0,0.0,0.0,0.0,0.0,0.0,0.0,0.0,0.0,0.0,0.0,0.0,0.0,0.0,0.0,0.0,0.0,0.0,0.0,0.0,-2.3595,0.0,0.0,0.0,0.0,0.0,0.0,0.0,0.0,0.0,0.0,0.0,0.0,0.0,0.0,0.0,0.0,0.0,0.0,0.0,0.0,0.0,0.0,0.0,0.0,0.0,0.0,0.0,0.0,0.0,0.0,0.0,0.0,0.0,0.0,0.0,0.0,0.0,0.0,0.0,0.0,0.0,0.0,0.0,0.0,0.0,0.0,0.0,0.0,0.0,0.0,0.0,0.0,0.0,0.0,0.0,0.0,0.0,0.0,0.0,0.0,0.0,0.0,0.0,0.0,0.0,0.0,0.0,0.0,0.0,0.0,0.0,0.0,0.0,0.0,0.0,0.0,0.0,0.0,0.0,0.0,0.0,0.0,0.0,0.0,0.0,0.0,0.0,0.0,0.0,0.0,0.0,0.0,0.0,0.0,0.0,0.0,0.0,0.0,0.0,0.0,0.0,0.0,0.0,0.0,0.0,0.0,0.0,0.0,-2.3954,-2.4253,-2.4746,-2.4746,-2.5091,-2.5555,-2.4433,-2.3954,-2.3954,-2.3954,0.0,0.0,0.0,0.0,0.0,0.0,0.0,0.0,0.0,0.0,0.0,0.0,0.0,0.0,0.0,0.0,0.0,0.0,0.0,0.0,0.0,0.0,0.0,0.0,0.0,0.0,0.0,0.0,0.0,0.0,0.0,0.0,0.0,0.0,0.0,0.0,0.0,-1.0269,-0.8089,-0.8089,-0.7605,-0.663,-0.6376,0.0,0.0,0.0,0.0,0.0,0.0,0.0,0.0,0.0,0.0,0.0,0.0,0.0,0.0,0.0,0.0,0.0,0.0,0.0,0.0,0.0,0.0,0.0,0.0,0.0,0.0,0.0,0.0,0.0,0.0,0.0,0.0,0.0,0.0,0.0,0.0,0.0,0.0,0.0,0.0,0.0,0.0,0.0,-2.1129,-2.2007,0.0,0.0,0.0,0.0,0.0,0.0,0.0,0.0,0.0,0.0,0.0,0.0,0.0,-2.5252,-2.5345,-2.5345,-2.5345,-2.5345,-2.5345,-2.539,-2.548,-2.548,-2.5525,-2.56,-2.542,0.0,-2.5345,-2.5345,0.0,0.0,0.0,0.0,0.0,0.0,0.0,0.0,0.0,0.0,0.0,0.0,0.0,0.0,0.0,0.0,0.0,0.0,0.0,0.0,0.0,0.0,0.0,0.0,0.0,0.0,0.0,0.0,0.0,0.0,0.0,0.0,0.0,0.0,0.0,0.0,-1.1908,-1.0928,-0.938,-0.8728,-0.816,-0.7667,-0.7519,-0.7453,-0.7457,-0.8559,0.0,0.0,0.0,0.0,0.0,0.0,0.0,0.0,0.0,0.0,0.0,0.0,0.0,0.0,0.0,0.0,0.0,0.0,0.0,0.0,0.0,0.0,0.0,0.0,0.0,0.0,0.0,0.0,0.0,0.0,0.0,0.0,0.0,0.0,0.0,0.0,0.0,0.0,0.0,-2.1327,-2.2364,-2.3133,-2.3496,-2.3547,0.0,0.0,0.0,0.0,0.0,0.0,0.0,0.0,0.0,-2.5191,-2.5458,-2.5615,-2.5615,-2.5615,-2.5615,-2.5615,-2.5615,-2.5809,-2.6153,-2.6153,-2.6363,-2.6707,-2.6707,-2.6707,-2.6662,-2.5914,-2.5615,-2.5615,0.0,0.0,0.0,0.0,-2.6123,-2.6468,0.0,0.0,0.0,0.0,0.0,0.0,0.0,0.0,0.0,0.0,0.0,0.0,0.0,0.0,0.0,-1.8008,0.0,0.0,0.0,0.0,0.0,0.0,0.0,0.0,-1.5521,0.0,0.0,-1.2276,-1.202,-1.1362,-1.029,-0.9045,-0.8546,-0.8546,-0.8546,-0.8412,-0.8324,-0.9781,-1.0836,0.0,0.0,0.0,0.0,0.0,0.0,0.0,0.0,0.0,0.0,0.0,0.0,0.0,0.0,0.0,0.0,0.0,0.0,0.0,0.0,0.0,0.0,0.0,0.0,0.0,0.0,0.0,0.0,0.0,0.0,0.0,0.0,0.0,0.0,0.0,0.0,0.0,0.0,-2.3029,-2.382,-2.4343,-2.4586,-2.4637,0.0,0.0,0.0,0.0,0.0,0.0,-2.606,-2.5692,-2.5644,-2.6108,-2.6108,-2.6108,-2.6108,-2.6108,-2.6108,-2.6108,-2.6108,-2.6363,-2.6841,-2.6841,-2.7111,-2.7625,-2.7625,-2.7625,-2.755,-2.6512,-2.6108,-2.6108,-2.6108,-2.6108,-2.6108,-2.6108,-2.6204,-2.65,0.0,0.0,0.0,0.0,0.0,0.0,0.0,0.0,0.0,0.0,0.0,0.0,0.0,0.0,-1.8008,-1.8008,-1.8008,-1.8184,0.0,0.0,0.0,0.0,0.0,-1.441,-1.377,-1.3978,-1.4041,-1.3957,-1.2814,-1.169,-1.0575,-0.9374,-0.886,-0.886,-0.886,-0.8658,-0.8565,-1.0681,-1.1662,-1.1742,0.0,0.0,0.0,0.0,0.0,0.0,0.0,0.0,0.0,0.0,0.0,0.0,0.0,0.0,0.0,0.0,0.0,0.0,0.0,0.0,0.0,0.0,0.0,0.0,0.0,0.0,0.0,0.0,0.0,0.0,0.0,0.0,0.0,0.0,0.0,0.0,0.0,0.0,0.0,-2.6357,-2.6997,0.0,0.0,0.0,0.0,-2.6462,-2.7049,-2.7419,-2.752,-2.747,-2.747,-2.752,-2.752,-2.752,-2.752,-2.752,-2.752,-2.752,-2.752,-2.7535,-2.7565,-2.7565,-2.7595,-2.7625,-2.7625,-2.7625,-2.756,-2.755,-2.752,-2.752,-2.752,-2.752,-2.752,-2.752,-2.7853,-2.837,0.0,0.0,0.0,0.0,0.0,0.0,0.0,0.0,0.0,0.0,0.0,0.0,0.0,-1.8721,-1.8115,-1.8389,-1.776,-1.7583,-1.799,0.0,0.0,0.0,-1.6103,-1.4849,-1.3921,-1.4035,-1.4088,-1.4088,-1.2857,-1.2066,-1.1638,-0.9749,-0.889,-0.889,-0.889,-0.8814,-0.8854,-1.1131,-1.2058,-1.223,-1.3341,-1.3661,0.0,0.0,0.0,0.0,0.0,0.0,0.0,0.0,0.0,0.0,0.0,0.0,0.0,0.0,0.0,0.0,0.0,0.0,0.0,0.0,0.0,0.0,0.0,0.0,0.0,0.0,0.0,0.0,0.0,0.0,0.0,0.0,0.0,0.0,0.0,0.0,0.0,-2.7152,-2.7458,0.0,-2.7255,-2.7458,-2.7509,-2.7255,-2.7876,-2.8233,-2.8233,-2.8637,-2.8861,-2.8861,-2.8861,-2.8861,-2.8861,-2.8861,-2.8861,-2.8861,-2.8861,-2.8861,-2.8861,-2.8861,-2.8861,-2.8861,-2.8861,-2.8861,-2.8861,-2.8861,-2.8404,-2.7625,-2.7625,-2.7625,-2.7625,-2.7625,-2.771,-2.7894,0.0,0.0,0.0,0.0,0.0,0.0,0.0,0.0,0.0,0.0,0.0,-2.0546,-1.9431,-1.866,-1.8191,-1.81,-1.7524,-1.7255,-1.7334,0.0,0.0,0.0,-1.5993,-1.4817,-1.4088,-1.373,-1.347,-1.347,-1.1906,-1.1123,-1.1123,-0.9226,-0.854,-0.889,-0.889,-0.9148,-0.9579,-1.1128,-1.1724,-1.1809,-1.3033,-1.3355,-1.3176,0.0,0.0,0.0,0.0,0.0,0.0,0.0,0.0,0.0,0.0,0.0,0.0,0.0,0.0,0.0,0.0,0.0,0.0,0.0,0.0,0.0,0.0,0.0,0.0,0.0,0.0,0.0,0.0,0.0,0.0,0.0,0.0,0.0,0.0,0.0,-2.7034,-2.756,-2.7625,-2.7715,-2.7904,-2.7919,-2.8008,-2.8284,-2.8667,-2.8936,-2.8936,-2.934,-2.9579,-2.9579,-2.9579,-2.9579,-2.9579,-2.9579,-2.9579,-2.9579,-2.9579,-2.9579,-2.9579,-2.9579,-2.9579,-2.9579,-2.9579,-2.9579,-2.9579,-2.9579,-2.9056,-2.8248,-2.8248,-2.8248,-2.8269,-2.7993,-2.7919,-2.7889,0.0,0.0,0.0,0.0,0.0,0.0,0.0,0.0,0.0,0.0,-2.172,-2.106,-1.9507,-1.8922,-1.8209,-1.7216,-1.7503,-1.7418,-1.6843,-1.6711,0.0,0.0,-1.4734,-1.4166,-1.4088,-1.2942,-1.2328,-1.2328,-1.0096,-0.8978,-0.889,-0.7753,-0.7753,-0.8803,-0.8803,-0.9492,-1.0524,-1.0524,-1.0524,-1.0611,-1.1809,-1.2322,-1.2474,0.0,0.0,0.0,0.0,0.0,0.0,0.0,0.0,0.0,0.0,0.0,0.0,0.0,0.0,0.0,0.0,0.0,0.0,0.0,0.0,0.0,0.0,0.0,0.0,0.0,0.0,0.0,0.0,0.0,0.0,0.0,0.0,0.0,-2.651,-2.7137,-2.7625,-2.7655,-2.7655,-2.7874,-2.8562,-2.8622,-2.8891,-2.9535,-2.9624,-2.9639,-2.9639,-2.9684,-2.9699,-2.9699,-2.9699,-2.9699,-2.9699,-2.9699,-2.9699,-2.9699,-2.9699,-2.9699,-2.9699,-2.9699,-2.9699,-2.9699,-2.9699,-2.9684,-2.9669,-2.9669,-2.9669,-2.9639,-2.9594,-2.9579,-2.9505,-2.8861,-2.8622,-2.8532,0.0,0.0,0.0,0.0,0.0,0.0,0.0,0.0,0.0,0.0,-2.076,-1.9911,-1.975,-1.9033,-1.8744,-1.9049,-1.8524,-1.8217,-1.8364,0.0,0.0,-1.5779,-1.5462,-1.4894,-1.4088,-1.3737,-1.3646,-1.3646,-1.2077,-1.0956,-1.0091,-0.8973,-0.8101,-0.7577,-0.7577,-0.7749,-0.8097,-0.8973,-0.9405,-0.9579,-1.1466,-1.2851,-1.3639,0.0,0.0,0.0,0.0,0.0,0.0,0.0,0.0,0.0,0.0,0.0,0.0,0.0,0.0,0.0,0.0,0.0,0.0,0.0,0.0,0.0,0.0,0.0,0.0,0.0,0.0,0.0,0.0,0.0,0.0,0.0,0.0,-2.651,-2.651,-2.7137,-2.7754,-2.8263,-2.8323,-2.8577,-2.925,-2.931,-2.9385,-2.9564,-3.0462,-3.1001,-3.1001,-3.1898,-3.2422,-3.2422,-3.2422,-3.2422,-3.2422,-3.2422,-3.2422,-3.2422,-3.2422,-3.2422,-3.2422,-3.2422,-3.2422,-3.2422,-3.2422,-3.2153,-3.1704,-3.1704,-3.1435,-3.0911,-2.9953,-2.9579,-2.9564,-2.937,-2.931,-2.928,0.0,0.0,0.0,0.0,0.0,0.0,0.0,0.0,0.0,0.0,-2.0417,-1.969,-1.939,-1.8699,-1.8505,-1.9156,-1.7952,-1.7502,-1.8212,0.0,0.0,-1.5703,-1.5304,-1.4734,-1.4088,-1.3561,-1.3379,-1.3379,-1.2267,-1.1137,-0.984,-0.9314,-0.8347,-0.7139,-0.7665,-0.7841,-0.7925,-0.9144,-0.9923,-1.0438,-1.1815,-1.2681,-1.3385,-1.3906,-1.4088,-1.4048,-1.3748,-1.3454,-1.3166,-1.2929,0.0,0.0,0.0,0.0,0.0,0.0,0.0,0.0,0.0,0.0,0.0,0.0,0.0,0.0,0.0,0.0,0.0,0.0,0.0,0.0,0.0,0.0,0.0,0.0,-2.6899,-2.7495,-2.7774,-2.7899,-2.8248,-2.8936,-2.9011,-2.9385,-3.0313,-3.0402,-3.0627,-3.118,-3.1928,-3.2362,-3.2362,-3.308,-3.3499,-3.3499,-3.3499,-3.3499,-3.3499,-3.3499,-3.3499,-3.3499,-3.3499,-3.3499,-3.3499,-3.3499,-3.3499,-3.3499,-3.3499,-3.3275,-3.2931,-3.2931,-3.2706,0.0,0.0,0.0,0.0,0.0,-2.9804,-2.9579,0.0,0.0,0.0,0.0,0.0,0.0,0.0,0.0,0.0,0.0,0.0,-1.9779,-1.8783,-1.8091,-1.7881,-1.8312,-1.6814,-1.6273,0.0,0.0,-1.5696,-1.5696,-1.465,-1.4088,-1.4088,-1.2942,-1.2339,-1.2369,-1.146,-1.0327,-0.8958,-0.9208,-0.8559,-0.7166,-0.822,-0.8823,-0.8978,-1.0096,-1.13,-1.2328,-1.2413,-1.2498,-1.2589,-1.373,-1.4166,-1.4216,-1.3946,-1.3736,-1.3595,-1.3278,0.0,0.0,0.0,0.0,0.0,0.0,0.0,0.0,0.0,0.0,0.0,0.0,0.0,0.0,0.0,0.0,0.0,0.0,0.0,0.0,0.0,0.0,0.0,0.0,-2.8243,-2.8966,-2.9699,-2.9295,-2.9146,-2.9729,-2.9804,-3.0313,-3.1629,-3.1764,-3.2243,-3.341,-3.3559,-3.3604,-3.3604,0.0,0.0,0.0,0.0,-3.3724,-3.3724,-3.3724,-3.3724,-3.3724,-3.3724,-3.3724,-3.3724,-3.3724,-3.3724,-3.3724,-3.3724,-3.3679,-3.3604,-3.3604,-3.3559,-3.338,-3.2213,-3.1764,-3.1616,-3.1076,-3.0492,-3.0028,0.0,0.0,0.0,0.0,0.0,0.0,0.0,0.0,0.0,-2.0655,-1.9344,-1.8606,-1.9144,-1.8258,-1.7997,-1.8786,-1.7696,-1.709,-1.7261,-1.6273,-1.5696,-1.5696,-1.465,-1.4088,-1.4088,-1.2942,-1.2342,-1.2563,-1.1368,-1.0296,-0.9242,-0.9276,-0.8559,-0.7326,-0.7598,-0.8147,-0.8978,-1.0096,-1.13,-1.2413,-1.3379,-1.3737,-1.3822,-1.3997,-1.4657,-1.5365,-1.5306,-1.5713,-1.6148,-1.571,-1.5964,-1.6499,-1.6175,0.0,0.0,0.0,0.0,0.0,0.0,0.0,0.0,0.0,0.0,0.0,0.0,0.0,0.0,0.0,0.0,0.0,0.0,0.0,0.0,-2.8095,-2.8891,-2.9804,-3.0986,-3.1046,-3.1016,-3.115,-3.115,-3.1674,-3.2991,-3.311,-3.3215,-3.3469,-3.3978,-3.4292,-3.4292,-3.4816,-3.5115,-3.5115,-3.5115,-3.5115,-3.5115,-3.5115,-3.5115,-3.5115,0.0,0.0,-3.5115,-3.5115,-3.5115,-3.5115,-3.5115,-3.4801,-3.4292,-3.4292,-3.3978,-3.3469,-3.3215,-3.311,-3.3095,-3.2961,-3.2841,-3.2736,0.0,0.0,0.0,0.0,0.0,0.0,0.0,0.0,0.0,0.0,-1.9769,-1.9123,-1.9576,-1.861,-1.824,-1.8903,-1.7989,0.0,-1.5801,-1.5703,-1.5455,-1.4894,-1.4412,-1.4088,-1.4088,-1.3611,-1.3126,-1.2639,-1.2254,-1.1181,-0.9347,-0.9343,-0.8698,-0.7461,-0.7915,-0.8709,-0.9836,-1.095,-1.2163,-1.3294,-1.3822,-1.4412,-1.4894,-1.4894,-1.5213,-1.5779,-1.6273,-1.6686,-1.6896,-1.6635,-1.6822,-1.7144,-1.6937,-1.7385,-1.8008,0.0,0.0,0.0,0.0,0.0,0.0,0.0,0.0,0.0,0.0,0.0,0.0,0.0,0.0,-2.4759,0.0,0.0,-2.7703,-2.9185,-3.0075,-3.0896,-3.1884,-3.2302,-3.2512,-3.2512,-3.2512,-3.2901,-3.3888,-3.3978,-3.4262,-3.4936,-3.5295,-3.5624,-3.5938,-3.6267,-3.6462,-3.6462,-3.6462,-3.6462,-3.6462,-3.6462,-3.6462,-3.6462,-3.6462,-3.6462,-3.6447,-3.6133,-3.5998,-3.5983,-3.5654,-3.531,-3.4996,-3.4996,-3.4801,-3.4502,-3.4502,-3.4083,-3.3499,-3.3499,-3.3499,-3.3499,0.0,0.0,0.0,0.0,0.0,0.0,0.0,0.0,0.0,0.0,-2.0382,-1.9887,-1.9781,-1.8937,-1.8291,0.0,0.0,-1.6198,-1.425,-1.4894,-1.4977,-1.4173,-1.4088,-1.4088,-1.4088,-1.3873,-1.3212,-1.228,-1.2264,-1.1165,-0.8979,-0.9096,-0.8544,-0.7458,-0.848,-0.9529,-1.0697,-1.1809,-1.3027,-1.4088,-1.4088,-1.4657,-1.5455,-1.5869,-1.6191,-1.6429,-1.7334,-1.7624,-1.757,-1.7501,-1.7565,-1.7578,-1.7495,-1.7703,-1.8008,-1.8008,-1.8008,0.0,0.0,0.0,0.0,0.0,0.0,0.0,0.0,0.0,-2.4155,-2.4155,-2.4594,-2.5397,-2.6891,-2.7349,-2.8226,-3.0291,-3.123,-3.2003,-3.2781,-3.335,-3.3739,-3.3873,-3.3769,-3.3993,-3.4786,-3.4861,-3.537,-3.6567,-3.6671,-3.6881,-3.7375,-3.7404,-3.7404,-3.7404,-3.7404,-3.7404,-3.7404,-3.7404,-3.7404,-3.7404,-3.7404,-3.7404,-3.7389,-3.6896,-3.6671,-3.6626,-3.6103,-3.5804,-3.5699,-3.5699,-3.5624,-3.5504,-3.5504,-3.4846,-3.3888,-3.3888,-3.3888,-3.3888,0.0,0.0,0.0,0.0,0.0,0.0,0.0,0.0,0.0,0.0,0.0,0.0,0.0,0.0,0.0,-1.6242,-1.5944,-1.5379,-1.4166,-1.425,-1.425,-1.4088,-1.4088,-1.4088,-1.4088,-1.2112,-1.1009,-1.1038,-0.9192,-0.8077,-0.7785,-0.7914,-0.7823,-0.7461,-0.8603,-0.9651,-1.0697,-1.1809,-1.3027,-1.4088,-1.4088,-1.4166,-1.4496,-1.6363,-1.7738,-1.863,-1.8798,-1.9404,-2.011,-1.9726,-1.9367,-1.8996,-1.8537,-1.8211,-1.8008,-1.8008,0.0,-1.8008,-1.8008,-1.8664,-1.9592,-2.0996,-2.1974,-2.2955,0.0,0.0,-2.4732,-2.4732,-2.5146,-2.5828,-2.6773,-2.7949,-2.9303,-3.0845,-3.181,-3.2841,-3.4083,-3.4322,-3.4592,-3.522,-3.4741,-3.4861,-3.6133,-3.6267,-3.6552,-3.7255,-3.73,-3.7345,-3.7404,-3.7404,-3.7404,-3.7404,-3.7404,-3.7404,-3.7404,-3.7404,-3.7404,-3.7404,-3.7404,-3.7404,-3.7404,-3.7345,-3.73,-3.73,-3.7225,-3.6881,-3.6372,-3.6372,-3.6028,-3.5504,-3.5504,-3.5415,-3.528,-3.528,-3.528,-3.528,0.0,0.0,0.0,0.0,0.0,0.0,0.0,0.0,0.0,0.0,0.0,0.0,0.0,0.0,0.0,-1.6667,-1.6026,-1.5213,-1.4166,-1.4088,-1.4088,-1.4088,-1.4088,-1.4088,-1.4088,-1.2659,-1.1553,-1.0771,-0.9439,-0.8333,-0.76,-0.757,-0.7852,-0.8438,-0.8783,-0.9911,-1.1638,-1.2072,-1.3027,-1.4166,-1.4817,-1.5387,-1.6124,-1.7658,-1.8957,-1.9923,-1.9923,-2.0245,0.0,0.0,-2.001,-1.9619,-1.9443,-1.8916,-1.8379,-1.8379,-1.8203,0.0,-1.9634,-2.0223,-2.1007,0.0,-2.3648,-2.4057,-2.4693,-2.5059,-2.5272,-2.5272,-2.5711,-2.6547,-2.787,-2.8922,-3.0122,0.0,-3.2943,-3.3844,-3.4397,-3.4816,-3.5325,-3.5998,-3.5818,-3.5863,-3.6432,-3.6806,-3.7285,-3.7928,-3.7973,-3.8153,-3.8556,-3.8571,-3.8571,-3.8571,-3.8571,-3.8571,-3.8571,-3.8571,-3.8571,-3.8571,-3.8571,-3.8571,-3.8571,-3.8167,-3.7778,-3.7404,-3.7404,-3.727,-3.703,-3.703,-3.6866,-3.6582,-3.6222,-3.6073,-3.6028,-3.5654,-3.5504,-3.5504,0.0,0.0,0.0,0.0,0.0,0.0,0.0,0.0,0.0,0.0,0.0,0.0,0.0,0.0,-1.7666,-1.7342,-1.6355,-1.5213,-1.4166,-1.4088,-1.4088,-1.4088,-1.4088,-1.3913,-1.3646,-1.2695,-1.1729,-1.0765,-0.9804,-0.9058,-0.8383,-0.8394,-0.8775,-0.9513,-0.9726,-1.0778,-1.2328,-1.2674,-1.3294,-1.4166,-1.5304,-1.6191,-1.7009,-1.847,-1.9441,-2.0167,-2.0479,-2.0566,0.0,0.0,-2.0195,-1.9746,-1.9746,-1.915,-1.8486,-1.8603,-1.8506,-1.8765,-2.069,-2.1397,0.0,-2.414,-2.4825,-2.5071,-2.5234,-2.5561,-2.5837,-2.5837,-2.6163,-2.6888,-2.8265,-2.9351,-3.053,-3.2072,-3.3517,-3.4547,-3.4726,-3.519,-3.5744,-3.6417,-3.6641,-3.6806,-3.7,-3.7419,-3.7958,-3.8631,-3.8676,-3.8901,-3.9394,-3.9424,-3.9424,-3.9424,-3.9424,-3.9424,-3.9424,-3.9424,-3.9424,-3.9424,-3.9424,-3.9424,-3.9409,-3.8901,-3.8422,-3.7958,-3.7958,-3.7853,-3.7689,-3.7689,-3.7569,-3.736,-3.6911,-3.6746,-3.6686,-3.6207,-3.5804,-3.5504,0.0,0.0,0.0,0.0,0.0,0.0,0.0,0.0,0.0,0.0,0.0,0.0,0.0,0.0,-1.847,-1.7415,-1.6355,-1.5213,-1.4166,-1.4088,-1.4088,-1.4088,-1.4088,-1.3555,-1.2413,-1.1219,-1.0621,-1.0621,-0.9602,-0.9602,-1.0549,-1.0671,-1.0656,-1.0621,-1.1729,-1.2242,-1.2413,-1.3555,-1.4088,-1.4166,-1.5304,-1.5696,-1.6026,-1.8141,-1.9036,-1.9195,-2.0245,0.0,-2.0566,-2.0566,-2.0,-1.9307,-1.9307,-1.8721,0.0,-1.8516,-1.8926,-1.9466,-2.0521,-2.1413,-2.2343,-2.3949,-2.4933,-2.5724,-2.6345,-2.6496,-2.6496,-2.6496,-2.6521,-2.6684,-2.7226,-2.8771,-3.0419,-3.1598,-3.334,-3.4711,-3.5385,-3.5489,-3.5744,-3.6417,-3.7015,-3.7629,0.0,-3.8347,-3.8646,-3.9334,-3.9394,-3.9394,-3.9424,-3.9424,-3.9424,-3.9424,-3.9424,-3.9424,-3.9424,-3.9424,-3.9424,-3.9424,-3.9424,-3.9424,-3.9424,-3.9394,-3.9379,-3.9364,-3.9364,-3.8975,-3.8362,-3.8362,-3.7988,-3.7404,-3.7389,-3.7375,-3.7375,-3.736,-3.6567,-3.5504,0.0,0.0,0.0,0.0,0.0,0.0,0.0,0.0,0.0,0.0,0.0,0.0,0.0,0.0,0.0,0.0,-1.5944,-1.5213,-1.4166,-1.4088,-1.4088,-1.4088,-1.4088,-1.3906,-1.347,-1.2334,-1.1724,-1.1724,-1.0594,-1.0246,-1.0611,-1.0686,-1.1029,-1.1724,-1.2151,-1.2766,-1.3555,-1.3913,-1.4489,-1.522,-1.6355,-1.7253,-1.806,-1.9511,-2.0079,-2.0089,0.0,0.0,-2.0566,-2.0566,-2.0185,-1.9756,-2.0049,-2.0046,-1.9986,-2.0738,-2.1096,-2.1501,-2.2787,0.0,-2.3904,-2.5375,-2.5946,-2.6214,-2.6483,-2.6533,-2.6533,-2.6533,-2.6753,-2.7253,-2.7937,-2.9807,-3.1511,-3.2486,-3.4105,-3.5235,-3.5474,-3.5878,-3.6387,-3.703,-3.7659,0.0,0.0,0.0,0.0,-3.9394,-3.9424,-3.9424,-3.9424,-3.9424,-3.9424,-3.9424,-3.9424,-3.9424,-3.9424,-3.9424,-3.9424,-3.9424,-3.9424,-3.9424,-3.9424,-3.9424,-3.9424,-3.9424,-3.9424,-3.929,-3.9065,-3.9065,-3.8945,-3.8691,-3.8242,-3.8063,-3.8003,-3.7569,-3.7135,-3.6701,0.0,0.0,0.0,0.0,0.0,0.0,0.0,0.0,0.0,0.0,0.0,0.0,0.0,0.0,0.0,0.0,0.0,-1.481,-1.4173,-1.4088,-1.4088,-1.4088,-1.4088,-1.3906,-1.347,-1.2674,-1.2328,-1.2328,-1.1558,-1.1472,-1.1826,-1.1826,-1.2254,-1.2942,-1.2942,-1.3379,-1.4088,-1.4088,-1.4734,-1.5779,-1.6846,-1.7989,-1.9116,-2.0157,-2.0566,0.0,0.0,0.0,-2.0361,-2.0508,-2.0273,-2.0036,-2.0691,-2.0966,-2.114,-2.1767,-2.2017,-2.2499,-2.4096,-2.4539,-2.4843,-2.6146,-2.6533,-2.6533,-2.6533,-2.6533,-2.6533,-2.6533,-2.6904,-2.7544,-2.8247,-3.0265,-3.1917,-3.236,-3.3864,-3.4986,-3.4986,-3.5547,-3.6333,-3.7261,-3.7988,-3.8661,0.0,0.0,0.0,-3.9424,-3.9424,-3.9424,-3.9424,-3.9424,-3.9424,-3.9424,-3.9424,-3.9424,-3.9424,-3.9424,-3.9424,-3.9424,-3.9424,-3.9424,-3.9424,-3.9424,-3.9424,-3.9424,-3.9424,-3.9424,-3.9424,-3.9424,-3.9424,-3.9379,-3.8931,-3.8751,-3.8706,-3.8272,-3.8123,-3.8003,0.0,0.0,0.0,0.0,0.0,0.0,0.0,0.0,0.0,0.0,0.0,0.0,0.0,0.0,0.0,0.0,0.0,0.0,-1.4088,-1.4088,-1.4088,-1.4088,-1.4088,-1.3555,-1.2413,-1.2413,-1.2413,-1.2413,-1.2413,-1.2942,-1.4088,-1.4088,-1.4088,-1.4088,-1.4088,-1.4166,-1.4166,-1.4166,-1.4817,-1.5944,-1.7009,-1.8069,-1.9195,-2.0235,0.0,0.0,0.0,0.0,-1.9951,-2.0391,-2.033,-2.0127,-2.1219,-2.1585,-2.1606,-2.1679,-2.1914,-2.2627,-2.4564,-2.5075,-2.53,-2.6233,-2.6533,-2.6533,-2.6533,-2.6533,-2.6533,-2.6533,-2.6904,-2.7444,-2.7971,-3.0113,-3.1679,-3.1256,-3.2862,-3.4095,-3.4095,-3.4672,-3.5671,0.0,0.0,0.0,0.0,0.0,0.0,-3.9424,0.0,-3.9424,-3.9424,-3.9424,-3.9424,-3.9424,-3.9424,-3.9424,-3.9424,-3.9424,-3.9424,-3.9424,-3.9424,-3.9424,-3.9424,-3.9424,-3.9424,-3.9424,-3.9424,-3.9424,-3.9424,-3.9424,-3.9424,-3.9424,-3.9424,-3.9424,-3.9424,-3.9424,-3.9424,-3.9245,0.0,0.0,0.0,0.0,0.0,0.0,0.0,0.0,0.0,0.0,0.0,0.0,0.0,0.0,0.0,0.0,0.0,0.0,-1.4075,-1.4088,-1.4088,-1.4088,-1.4088,-1.3997,-1.3646,-1.3646,-1.3646,-1.3646,-1.3646,-1.3822,-1.4088,-1.4088,-1.4088,-1.4088,-1.4088,-1.4573,-1.5296,-1.5296,-1.6437,-1.8141,0.0,-1.9195,-2.0245,0.0,0.0,0.0,0.0,0.0,0.0,0.0,0.0,0.0,-2.3047,-2.3815,-2.4223,-2.5001,-2.5238,-2.5499,-2.5943,-2.6094,-2.6176,-2.6465,-2.6533,-2.6533,-2.6533,-2.6533,-2.6533,-2.6533,-2.6904,-2.7318,-2.7469,-2.9834,-3.1751,-3.1623,-3.3604,0.0,-3.5133,-3.6081,0.0,-3.7321,0.0,-3.923,-3.9409,-3.9424,0.0,0.0,-3.9424,-3.9424,-3.9424,-3.9424,-3.9424,-3.9424,-3.9424,-3.9424,-3.9424,-3.9424,-3.9424,-3.9424,-3.9424,-3.9424,-3.9424,-3.9424,-3.9424,-3.9424,-3.9424,-3.9424,-3.9424,-3.9424,-3.9424,-3.9424,-3.9424,-3.9424,-3.9424,-3.9424,-3.9424,-3.9364,0.0,0.0,0.0,0.0,0.0,0.0,0.0,0.0,0.0,0.0,0.0,0.0,0.0,0.0,0.0,0.0,0.0,0.0,0.0,-1.474,-1.4817,-1.4817,-1.4328,-1.4088,-1.4088,-1.4088,-1.4088,-1.4088,-1.4088,-1.4088,-1.4088,-1.4088,-1.4088,-1.4088,-1.4573,-1.5137,-1.5703,-1.6191,0.0,0.0,0.0,0.0,0.0,0.0,0.0,0.0,0.0,0.0,0.0,0.0,0.0,-2.3111,-2.3732,-2.4449,-2.5087,-2.5664,0.0,-2.5955,-2.6383,-2.6533,-2.6533,-2.6533,-2.6533,-2.6533,-2.6533,-2.6533,-2.6533,-2.6533,-2.6904,-2.7281,-2.7281,-2.9741,-3.164,0.0,0.0,0.0,-3.4839,-3.5928,-3.6961,0.0,-3.8601,0.0,-3.9424,-3.9424,-3.9424,0.0,-3.9424,-3.9424,-3.9424,-3.9424,-3.9424,-3.9424,-3.9424,-3.9424,-3.9424,-3.9424,-3.9424,-3.9424,-3.9424,-3.9424,-3.9424,-3.9424,-3.9424,-3.9424,0.0,-3.9424,-3.9424,-3.9424,-3.9424,-3.9424,-3.9424,-3.9424,-3.9424,-3.9424,-3.9424,-3.9424,0.0,0.0,0.0,0.0,0.0,0.0,0.0,0.0,0.0,0.0,0.0,0.0,0.0,0.0,0.0,0.0,0.0,0.0,0.0,0.0,0.0,-1.5793,-1.4873,-1.4328,-1.4328,-1.4328,-1.425,-1.4088,-1.4088,-1.4166,-1.4328,-1.4328,-1.4412,0.0,0.0,0.0,0.0,0.0,0.0,0.0,0.0,0.0,0.0,0.0,0.0,0.0,0.0,0.0,0.0,0.0,-2.3375,-2.4756,-2.4085,-2.448,-2.5229,-2.5229,-2.5229,-2.537,-2.6233,-2.6533,-2.6533,-2.6533,-2.6533,-2.6533,-2.6533,-2.6533,-2.6533,-2.6533,0.0,-2.7168,-2.7168,-2.9499,-3.1226,-3.0575,0.0,-3.3994,-3.4163,-3.5331,-3.6497,-3.7336,-3.8601,-3.9424,-3.9424,-3.9424,-3.9424,-3.9424,-3.9424,-3.9424,-3.9424,-3.9424,-3.9424,-3.9424,-3.9424,-3.9424,-3.9424,-3.9424,-3.9424,-3.9424,-3.9424,-3.9424,-3.9424,-3.9424,-3.9424,-3.9424,-3.9424,-3.9424,-3.9424,-3.9424,-3.9424,-3.9424,-3.9424,-3.9424,-3.9424,-3.9424,-3.9424,-3.9424,0.0,0.0,0.0,0.0,0.0,0.0,0.0,0.0,0.0,0.0,-1.7862,-1.7725,0.0,0.0,0.0,0.0,0.0,0.0,0.0,0.0,0.0,0.0,-1.5799,-1.5462,-1.5462,-1.5462,-1.4977,-1.4088,-1.4088,-1.4573,-1.5462,-1.5462,-1.5869,0.0,0.0,0.0,0.0,0.0,0.0,0.0,0.0,0.0,0.0,0.0,0.0,0.0,0.0,0.0,0.0,0.0,-2.319,-2.4606,-2.5644,-2.6094,-2.6245,-2.6245,-2.6245,-2.6314,-2.6452,-2.6533,-2.6533,-2.6533,-2.6533,-2.6533,-2.6533,-2.6533,0.0,0.0,-2.6596,-2.6672,-2.6672,-2.804,-2.9578,-3.0746,-3.2288,-3.3783,-3.5059,-3.638,-3.7183,0.0,-3.8601,-3.9424,-3.9424,-3.9424,0.0,0.0,0.0,-3.9424,-3.9424,-3.9424,-3.9424,-3.9424,-3.9424,-3.9424,-3.9424,-3.9424,-3.9424,-3.9424,-3.9424,-3.9424,-3.9424,-3.9424,-3.9424,-3.9424,-3.9424,0.0,-3.9424,-3.9424,-3.9424,-3.9424,-3.9424,-3.9424,-3.9424,-3.9424,-3.9424,-3.9424,0.0,0.0,0.0,0.0,0.0,0.0,0.0,-1.9628,-1.9044,-1.8144,-1.8008,-1.7794,-1.7285,-1.6853,0.0,0.0,0.0,0.0,0.0,0.0,0.0,0.0,0.0,0.0,0.0,-1.6236,0.0,0.0,0.0,0.0,0.0,0.0,0.0,0.0,0.0,0.0,0.0,0.0,0.0,0.0,0.0,0.0,0.0,0.0,0.0,0.0,0.0,0.0,0.0,0.0,-2.3661,-2.5586,-2.6296,-2.6533,-2.6533,-2.6533,-2.6533,-2.6533,-2.6533,-2.6533,-2.6533,-2.6533,-2.6533,-2.6533,-2.6533,0.0,0.0,0.0,-2.6533,-2.6533,-2.6533,-2.7695,0.0,-2.9686,-3.1706,-3.347,-3.4215,-3.6089,0.0,-3.7404,-3.8601,-3.9424,0.0,-3.9424,-3.9424,0.0,0.0,-3.9424,-3.9424,-3.9424,-3.9424,-3.9424,-3.9424,-3.9424,-3.9424,-3.9424,-3.9424,-3.9424,-3.9424,-3.9424,-3.9424,-3.9424,-3.9424,-3.9424,-3.9424,0.0,-3.9424,-3.9424,-3.9424,-3.9424,-3.9424,-3.9424,-3.9424,-3.9424,-3.9424,-3.9424,0.0,0.0,0.0,0.0,0.0,0.0,0.0,-2.005,-1.9445,-1.8192,-1.8008,-1.7716,-1.7001,-1.6922,-1.6576,0.0,0.0,0.0,0.0,0.0,0.0,0.0,0.0,0.0,0.0,0.0,0.0,0.0,0.0,0.0,0.0,0.0,0.0,0.0,0.0,0.0,0.0,0.0,0.0,0.0,0.0,0.0,0.0,0.0,0.0,0.0,0.0,0.0,0.0,0.0,-2.4357,-2.6533,-2.6533,-2.6533,-2.6533,-2.6533,-2.6533,-2.6533,-2.6533,-2.6533,-2.6533,-2.6533,-2.6533,-2.6533,-2.6533,-2.6533,0.0,-2.6533,-2.6533,-2.6533,-2.6533,-2.7468,-2.8326,0.0,-3.0812,-3.2587,-3.3143,-3.5433,-3.7183,0.0,-3.8601,0.0,-3.9424,-3.9424,0.0,0.0,0.0,0.0,-3.9424,-3.9424,-3.9424,-3.9424,-3.9424,-3.9424,-3.9424,-3.9424,-3.9424,-3.9424,-3.9424,-3.9424,-3.9424,-3.9424,-3.9424,-3.9424,-3.9424,0.0,0.0,-3.9424,-3.9424,-3.9424,-3.9424,-3.9424,-3.9424,-3.9424,-3.9424,-3.9424,0.0,0.0,0.0,0.0,0.0,0.0,0.0,-1.8185,-1.7767,-1.7959,-1.8008,-1.794,-1.7862,-1.7872,-1.7862,0.0,0.0,0.0,0.0,0.0,0.0,0.0,0.0,0.0,0.0,0.0,0.0,0.0,0.0,0.0,0.0,0.0,0.0,0.0,0.0,0.0,0.0,0.0,0.0,0.0,0.0,0.0,0.0,0.0,0.0,0.0,0.0,0.0,0.0,0.0,0.0,-2.6533,-2.6533,-2.6533,-2.6533,-2.6533,0.0,0.0,-2.6533,-2.6533,-2.6533,-2.6533,-2.6533,-2.6533,-2.6533,0.0,-2.6533,-2.6533,-2.6533,-2.6533,-2.6533,-2.6627,-2.7148,-2.8515,0.0,-3.0596,-3.2858,-3.4857,-3.6426,-3.7336,0.0,0.0,-3.9424,-3.9424,0.0,0.0,0.0,0.0,-3.9424,-3.9424,-3.9424,-3.9424,-3.9424,-3.9424,-3.9424,-3.9424,-3.9424,-3.9424,-3.9424,-3.9424,-3.9424,-3.9424,-3.9424,-3.9424,-3.9424,0.0,0.0,-3.9424,-3.9424,-3.9424,-3.9424,-3.9424,-3.9424,-3.9424,-3.9424,-3.9424,0.0,0.0,0.0,0.0,0.0,0.0,-1.8413,-1.7957,-1.7597,-1.7282,-1.7471,-1.7637,-1.7637,-1.7852,-1.8008,0.0,0.0,0.0,0.0,0.0,0.0,0.0,0.0,0.0,0.0,0.0,0.0,0.0,0.0,0.0,0.0,0.0,0.0,0.0,0.0,0.0,0.0,0.0,0.0,0.0,0.0,0.0,0.0,0.0,0.0,0.0,0.0,0.0,0.0,0.0,0.0,0.0,-2.6533,-2.6533,0.0,0.0,-2.6533,-2.6533,-2.6533,-2.6533,-2.6533,-2.6533,-2.6533,-2.6533,-2.6533,0.0,-2.6533,-2.6533,-2.6533,-2.6533,-2.6533,-2.6533,-2.6665,-2.7267,0.0,0.0,-3.0843,-3.3322,-3.5451,-3.6426,-3.7667,0.0,0.0,0.0,-3.9424,0.0,0.0,0.0,-3.9424,-3.9424,-3.9424,-3.9424,-3.9424,-3.9424,-3.9424,-3.9424,-3.9424,-3.9424,-3.9424,-3.9424,-3.9424,-3.9424,-3.9424,-3.9424,-3.9424,0.0,0.0,-3.9424,-3.9424,-3.9424,-3.9424,-3.9424,-3.9424,-3.9424,-3.9424,-3.9424,0.0,0.0,0.0,0.0,0.0,-1.9137,-1.7945,-1.7603,-1.7236,-1.6772,-1.7002,-1.7187,-1.7187,-1.7461,-1.7686,-1.7812,0.0,0.0,0.0,0.0,0.0,0.0,0.0,0.0,0.0,0.0,0.0,-1.8916,0.0,0.0,0.0,0.0,0.0,0.0,0.0,0.0,0.0,0.0,0.0,0.0,0.0,0.0,0.0,0.0,0.0,0.0,0.0,0.0,0.0,0.0,0.0,0.0,0.0,0.0,0.0,0.0,-2.6533,-2.6533,-2.6533,-2.6533,-2.6533,-2.6533,-2.6533,-2.6533,0.0,0.0,-2.6533,-2.6533,-2.6533,-2.6533,-2.6533,-2.6533,-2.6533,-2.6533,0.0,-2.9183,-2.9451,-3.2098,-3.4341,0.0,0.0,-3.7738,0.0,-3.9192,-3.9424,0.0,0.0,0.0,-3.9424,-3.9424,-3.9424,-3.9424,-3.9424,-3.9424,-3.9424,-3.9424,-3.9424,-3.9424,-3.9424,-3.9424,-3.9424,-3.9424,-3.9424,-3.9424,-3.9424,0.0,0.0,-3.9424,-3.9424,-3.9424,-3.9424,-3.9424,-3.9424,-3.9424,-3.9424,-3.9424,0.0,0.0,0.0,0.0,0.0,0.0,-1.7238,-1.6598,-1.6292,-1.667,-1.6675,-1.6738,-1.6738,-1.6685,-1.6924,-1.7353,0.0,0.0,0.0,0.0,0.0,0.0,0.0,0.0,0.0,0.0,0.0,-1.8018,-1.8018,-1.8018,-1.8018,0.0,0.0,0.0,0.0,0.0,0.0,0.0,0.0,0.0,0.0,0.0,0.0,0.0,0.0,0.0,0.0,0.0,0.0,0.0,0.0,0.0,0.0,0.0,0.0,0.0,-2.6533,-2.6533,-2.6533,-2.6533,-2.6533,-2.6533,-2.6533,-2.6533,0.0,0.0,-2.6533,-2.6533,-2.6533,-2.6533,-2.6533,-2.6533,-2.6533,-2.6533,-2.7381,0.0,-2.9394,-3.1545,0.0,0.0,0.0,-3.6604,-3.7753,-3.8782,0.0,0.0,0.0,0.0,-3.9424,-3.9424,-3.9424,-3.9424,-3.9424,-3.9424,-3.9424,-3.9424,-3.9424,-3.9424,-3.9424,-3.9424,-3.9424,-3.9424,-3.9424,-3.9424,0.0,0.0,0.0,-3.9424,-3.9424,-3.9424,-3.9424,-3.9424,-3.9424,-3.9424,-3.9424,-3.9424,0.0,0.0,0.0,0.0,0.0,0.0,0.0,-1.7251,-1.7191,-1.7295,-1.7144,-1.7052,-1.7052,-1.6854,-1.6787,-1.6924,0.0,0.0,0.0,0.0,0.0,0.0,0.0,0.0,0.0,0.0,-1.8008,-1.8008,-1.8008,-1.8008,-1.8008,-1.8008,-1.8008,0.0,0.0,0.0,0.0,0.0,0.0,0.0,0.0,0.0,0.0,0.0,0.0,0.0,0.0,0.0,0.0,0.0,0.0,0.0,0.0,0.0,0.0,-2.6533,-2.6533,0.0,-2.6533,-2.6533,-2.6533,-2.6533,-2.6533,-2.6533,-2.6533,-2.6533,-2.6533,-2.6533,-2.6533,-2.6533,-2.6533,-2.6533,-2.6533,-2.6533,-2.7394,0.0,0.0,0.0,0.0,-3.443,-3.6814,-3.8531,0.0,0.0,0.0,0.0,0.0,0.0,-3.9424,-3.9424,-3.9424,-3.9424,-3.9424,-3.9424,-3.9424,-3.9424,-3.9424,-3.9424,-3.9424,-3.9424,-3.9424,-3.9424,-3.9424,0.0,0.0,0.0,0.0,-3.9424,-3.9424,-3.9424,-3.9424,-3.9424,-3.9424,-3.9424,-3.9424,-3.9424,0.0,0.0,0.0,0.0,0.0,0.0,0.0,-1.7357,-1.709,-1.68,-1.6618,-1.6512,-1.6512,-1.6307,-1.6422,-1.6827,0.0,0.0,0.0,0.0,0.0,0.0,0.0,0.0,0.0,-1.8977,-1.8977,-1.8977,-1.8977,-1.8977,-1.8977,-1.8977,-1.8977,-1.8977,-1.9562,0.0,0.0,0.0,0.0,0.0,0.0,0.0,-2.0774,0.0,0.0,0.0,0.0,0.0,0.0,0.0,0.0,0.0,0.0,0.0,0.0,0.0,-2.6533,-2.6533,0.0,-2.6533,-2.6533,-2.6533,-2.6533,0.0,0.0,-2.6533,-2.6533,-2.6533,-2.6533,-2.6533,-2.6533,-2.6533,-2.6596,-2.6741,-2.7519,-2.8318,0.0,0.0,0.0,-3.5065,0.0,0.0,0.0,0.0,0.0,0.0,0.0,0.0,-3.9424,-3.9424,-3.9424,-3.9424,-3.9424,-3.9424,-3.9424,-3.9424,-3.9424,-3.9424,-3.9424,-3.9424,-3.9424,-3.9424,-3.9424,0.0,0.0,0.0,0.0,-3.9424,-3.9424,-3.9424,-3.9424,-3.9424,-3.9424,-3.9424,-3.9424,-3.9424,0.0,0.0,0.0,0.0,0.0,0.0,0.0,0.0,-1.6312,-1.5642,-1.5526,-1.5468,-1.5468,-1.5468,-1.5918,-1.6981,0.0,0.0,0.0,0.0,0.0,0.0,0.0,0.0,0.0,-2.059,-2.059,-2.059,-2.059,-2.059,-2.059,-2.059,-2.059,-2.059,-2.0655,0.0,0.0,0.0,0.0,0.0,0.0,0.0,0.0,0.0,0.0,0.0,0.0,0.0,0.0,0.0,0.0,0.0,0.0,0.0,0.0,0.0,0.0,0.0,0.0,-2.6533,-2.6533,-2.6533,0.0,0.0,0.0,-2.6533,0.0,-2.6533,-2.6533,-2.6533,-2.6533,-2.6533,-2.671,-2.7193,-2.7745,-2.8664,0.0,-3.2057,0.0,0.0,-3.7252,0.0,-3.7829,0.0,0.0,0.0,0.0,0.0,-3.9424,-3.9424,-3.9424,-3.9424,-3.9424,-3.9424,-3.9424,-3.9424,-3.9424,-3.9424,-3.9424,-3.9424,-3.9424,-3.9424,-3.9424,0.0,0.0,0.0,0.0,-3.9424,-3.9424,-3.9424,-3.9424,-3.9424,-3.9424,-3.9424,-3.9424,-3.9424,0.0,0.0,0.0,0.0,0.0,0.0,0.0,0.0,0.0,0.0,-1.6585,-1.6255,-1.6255,-1.6255,-1.6134,0.0,0.0,0.0,0.0,0.0,0.0,0.0,0.0,0.0,0.0,-2.059,-2.059,-2.059,-2.059,-2.059,-2.059,-2.059,-2.059,-2.0655,-2.1302,0.0,0.0,0.0,0.0,0.0,0.0,0.0,0.0,0.0,0.0,0.0,-2.6101,-2.6352,0.0,0.0,0.0,0.0,0.0,0.0,0.0,0.0,-2.6533,-2.6533,-2.6533,0.0,-2.6533,-2.6533,-2.6533,-2.6533,0.0,0.0,0.0,0.0,0.0,-2.6533,-2.6533,-2.6533,-2.671,-2.7193,-2.7745,-2.8791,-3.0837,0.0,0.0,-3.7334,-3.8383,-3.8708,0.0,0.0,0.0,0.0,0.0,-3.9424,-3.9424,-3.9424,-3.9424,-3.9424,-3.9424,-3.9424,-3.9424,-3.9424,-3.9424,-3.9424,-3.9424,-3.9424,-3.9424,-3.9424,-3.9424,0.0,0.0,0.0,-3.9424,-3.9424,-3.9424,-3.9424,-3.9424,-3.9424,-3.9424,-3.9424,-3.9424,-3.9424,0.0,0.0,0.0,0.0,0.0,0.0,0.0,0.0,0.0,0.0,0.0,0.0,0.0,0.0,0.0,0.0,0.0,0.0,0.0,0.0,0.0,0.0,0.0,0.0,-2.1741,-2.1729,-2.1729,-2.1729,-2.1729,-2.1729,-2.1729,-2.1729,-2.1729,-2.1803,-2.2249,-2.2445,-2.2445,0.0,0.0,0.0,-2.3013,0.0,0.0,0.0,0.0,0.0,-2.6352,-2.6533,0.0,-2.6533,-2.6533,-2.6533,0.0,0.0,0.0,0.0,-2.6533,-2.6533,-2.6533,-2.6533,-2.6533,-2.6533,-2.6533,-2.6533,-2.6533,0.0,0.0,0.0,0.0,-2.6533,-2.6533,-2.7054,-2.7536,-2.7641,-2.8866,0.0,0.0,0.0,0.0,-3.7681,-3.8308,-3.862,0.0,0.0,0.0,0.0,0.0,-3.9424,-3.9424,-3.9424,-3.9424,-3.9424,-3.9424,-3.9424,-3.9424,-3.9424,-3.9424,-3.9424,-3.9424,-3.9424,-3.9424,-3.9424,-3.9424,0.0,0.0,0.0,-3.9424,-3.9424,-3.9424,-3.9424,-3.9424,-3.9424,-3.9424,-3.9424,-3.9424,-3.9424,0.0,0.0,0.0,0.0,0.0,0.0,0.0,0.0,0.0,0.0,0.0,0.0,0.0,0.0,0.0,0.0,0.0,0.0,0.0,0.0,0.0,0.0,0.0,-2.2299,-2.3065,-2.3078,-2.3078,-2.3078,-2.3078,-2.3078,-2.3078,-2.3078,-2.3078,-2.3078,-2.3078,-2.3078,-2.3078,-2.3226,0.0,0.0,-2.418,0.0,0.0,0.0,0.0,0.0,0.0,0.0,0.0,-2.6533,-2.6533,-2.6533,-2.6533,0.0,0.0,0.0,0.0,0.0,-2.6533,-2.6533,-2.6533,-2.6533,-2.6533,-2.6533,-2.6533,0.0,0.0,0.0,0.0,0.0,-2.6634,-2.761,0.0,0.0,0.0,0.0,-3.4404,-3.5404,-3.638,-3.762,-3.7919,0.0,0.0,0.0,0.0,0.0,0.0,-3.9424,-3.9424,-3.9424,-3.9424,-3.9424,-3.9424,-3.9424,-3.9424,-3.9424,-3.9424,-3.9424,-3.9424,-3.9424,-3.9424,-3.9424,-3.9424,-3.9424,0.0,0.0,-3.9424,-3.9424,-3.9424,-3.9424,-3.9424,-3.9424,-3.9424,-3.9424,-3.9424,-3.9424,0.0,0.0,0.0,0.0,0.0,0.0,0.0,0.0,0.0,0.0,0.0,0.0,0.0,0.0,0.0,0.0,0.0,0.0,0.0,0.0,0.0,0.0,-2.196,-2.253,-2.3065,-2.3078,-2.3078,-2.3078,-2.3078,-2.3078,-2.3078,-2.3078,-2.3078,-2.3078,-2.3078,-2.3078,-2.3103,-2.3665,-2.3916,-2.4079,-2.4983,0.0,0.0,0.0,0.0,0.0,0.0,0.0,0.0,-2.6533,-2.6533,-2.6533,-2.6533,0.0,0.0,0.0,0.0,0.0,-2.6533,-2.6533,-2.6533,-2.6533,-2.6533,-2.6533,-2.6533,0.0,0.0,0.0,0.0,0.0,0.0,-2.7359,-2.7822,0.0,0.0,-3.4556,0.0,0.0,-3.8517,-3.7904,0.0,0.0,0.0,0.0,0.0,0.0,0.0,-3.9424,-3.9424,-3.9424,-3.9424,-3.9424,-3.9424,-3.9424,-3.9424,-3.9424,-3.9424,-3.9424,-3.9424,-3.9424,-3.9424,-3.9424,-3.9424,-3.9424,0.0,-3.9424,-3.9424,-3.9424,-3.9424,-3.9424,-3.9424,-3.9424,-3.9424,-3.9424,-3.9424,-3.9424,0.0,0.0,0.0,0.0,0.0,0.0,0.0,0.0,0.0,0.0,0.0,0.0,0.0,0.0,0.0,0.0,0.0,0.0,0.0,0.0,0.0,-2.1455,-2.1732,-2.2259,-2.3053,-2.3078,-2.3078,-2.3078,-2.3078,-2.3078,-2.3078,-2.3078,-2.3078,-2.309,-2.3464,-2.3602,-2.364,-2.4205,-2.4607,-2.4908,0.0,0.0,0.0,0.0,0.0,0.0,0.0,0.0,0.0,0.0,-2.6533,-2.6533,-2.6533,0.0,0.0,0.0,0.0,0.0,-2.7162,-2.685,-2.6714,-2.7604,-2.7484,-2.7162,-2.7162,0.0,0.0,0.0,0.0,0.0,0.0,0.0,-2.9843,-3.1436,0.0,-3.3963,-3.4997,-3.6155,0.0,0.0,0.0,0.0,0.0,0.0,0.0,0.0,0.0,0.0,-3.9424,-3.9424,-3.9424,-3.9424,-3.9424,-3.9424,-3.9424,-3.9424,-3.9424,-3.9424,-3.9424,-3.9424,-3.9424,-3.9424,-3.9424,-3.9424,0.0,-3.9424,-3.9424,-3.9424,-3.9424,-3.9424,-3.9424,-3.9424,-3.9424,-3.9424,-3.9424,-3.9424,0.0,0.0,0.0,0.0,0.0,0.0,0.0,0.0,0.0,0.0,0.0,0.0,0.0,0.0,0.0,0.0,0.0,0.0,0.0,0.0,-2.0451,-2.1443,-2.1606,-2.2133,-2.3053,-2.3078,-2.3078,-2.3078,-2.3078,-2.3078,-2.3078,-2.3215,-2.3339,-2.3364,-2.3941,-2.4192,-2.423,-2.477,-2.5234,-2.5598,0.0,0.0,0.0,0.0,0.0,0.0,0.0,0.0,0.0,0.0,0.0,0.0,0.0,0.0,0.0,-2.6782,-2.7229,-2.7986,-2.7736,-2.7229,-2.7162,-2.862,0.0,0.0,0.0,0.0,0.0,0.0,0.0,0.0,0.0,-2.9581,0.0,-3.3269,-3.3564,-3.3851,-3.4821,0.0,0.0,0.0,0.0,0.0,0.0,0.0,0.0,0.0,0.0,0.0,-3.9424,-3.9424,-3.9424,-3.9424,-3.9424,-3.9424,-3.9424,-3.9424,-3.9424,-3.9424,-3.9424,-3.9424,-3.9424,-3.9424,-3.9424,-3.9424,-3.9424,-3.9424,-3.9424,-3.9424,-3.9424,-3.9424,-3.9424,-3.9424,-3.9424,-3.9424,-3.9424,-3.9424,0.0,0.0,0.0,0.0,0.0,0.0,0.0,0.0,0.0,0.0,0.0,0.0,0.0,0.0,0.0,0.0,0.0,0.0,0.0,0.0,-2.0865,-2.1455,-2.1983,-2.2523,-2.3065,-2.3078,-2.3078,-2.3078,-2.3078,-2.3078,-2.3078,-2.369,-2.3941,-2.3966,-2.4519,-2.4757,-2.4795,-2.5322,-2.5561,-2.5636,-2.6189,0.0,0.0,0.0,0.0,0.0,0.0,0.0,0.0,0.0,0.0,0.0,0.0,0.0,-2.862,-2.6973,-2.767,-2.8748,-2.792,-2.767,-2.7868,-2.8748,-2.7802,0.0,-2.755,-2.7095,0.0,-2.7484,0.0,0.0,0.0,-3.0296,-3.1394,-3.2018,-3.4196,-3.5956,0.0,0.0,0.0,0.0,0.0,0.0,0.0,0.0,0.0,0.0,0.0,0.0,-3.9424,-3.9424,-3.9424,-3.9424,-3.9424,-3.9424,-3.9424,-3.9424,-3.9424,-3.9424,-3.9424,-3.9424,-3.9424,-3.9424,-3.9424,-3.9424,-3.9424,-3.9424,-3.9424,-3.9424,-3.9424,-3.9424,-3.9424,-3.9424,-3.9424,-3.9424,-3.9424,-3.9424,0.0,0.0,0.0,0.0,0.0,0.0,0.0,0.0,0.0,0.0,0.0,0.0,0.0,0.0,0.0,0.0,0.0,0.0,0.0,0.0,-2.097,-2.1468,-2.202,-2.2573,-2.3065,-2.3078,-2.3078,-2.3078,-2.3078,-2.3314,-2.3678,-2.3891,-2.418,-2.4531,-2.5071,-2.531,-2.5335,-2.59,-2.6138,-2.6151,-2.6445,-2.6533,0.0,0.0,0.0,0.0,0.0,0.0,0.0,0.0,-2.7484,-2.7736,-2.7986,-2.8876,-2.9566,-2.8427,-2.8876,-2.9766,-2.938,-2.8939,-2.8812,-3.0208,-2.8876,0.0,0.0,-2.8233,-2.8079,-2.8172,-2.8082,0.0,0.0,0.0,-3.1365,-3.1945,-3.3114,-3.4472,0.0,0.0,0.0,0.0,0.0,0.0,0.0,0.0,0.0,0.0,0.0,0.0,-3.9337,-3.9424,-3.9424,-3.9424,-3.9424,-3.9424,-3.9424,-3.9424,-3.9424,-3.9424,-3.9424,-3.9424,-3.9424,-3.9424,-3.9424,-3.9424,-3.9424,-3.9424,-3.9424,-3.9424,-3.9424,-3.9424,-3.9424,-3.9424,-3.9424,-3.9424,-3.9424,-3.9424,0.0,0.0,0.0,0.0,0.0,0.0,0.0,0.0,0.0,0.0,0.0,0.0,0.0,0.0,0.0,0.0,0.0,0.0,0.0,-2.0514,-2.1091,-2.1468,-2.2184,-2.2749,-2.3065,-2.3078,-2.3078,-2.3078,-2.3314,-2.3615,-2.4004,-2.4343,-2.4707,-2.5096,-2.5636,-2.5875,-2.59,-2.6289,-2.6533,-2.6533,-2.6533,-2.6533,0.0,0.0,0.0,0.0,0.0,0.0,0.0,0.0,-2.8298,-2.8556,-2.8876,-2.9766,-3.045,-2.9317,-2.9827,-3.0644,-3.0389,-2.9889,-2.969,-3.0837,0.0,0.0,-2.9192,-2.8899,-2.8557,-2.8879,-2.8982,-2.9285,-3.0103,0.0,0.0,0.0,-3.2645,0.0,0.0,0.0,0.0,0.0,0.0,0.0,0.0,0.0,0.0,0.0,0.0,0.0,0.0,-3.9424,-3.9424,-3.9424,-3.9424,-3.9424,-3.9424,-3.9424,-3.9424,-3.9424,-3.9424,-3.9424,-3.9424,-3.9424,-3.9424,-3.9424,-3.9424,-3.9424,-3.9424,-3.9424,-3.9424,-3.9424,-3.9424,-3.9424,-3.9424,-3.9424,-3.9424,-3.9424,0.0,0.0,0.0,0.0,0.0,0.0,0.0,0.0,0.0,0.0,0.0,0.0,0.0,0.0,0.0,0.0,0.0,0.0,-1.9811,-2.0865,-2.1493,-2.1493,-2.2548,-2.3078,-2.3078,-2.3078,-2.3078,-2.3078,-2.3715,-2.4004,-2.4042,-2.5096,-2.5598,-2.5624,-2.6201,-2.6533,-2.6533,-2.6533,-2.6533,-2.6533,-2.6533,-2.6533,-2.6533,0.0,0.0,0.0,0.0,0.0,0.0,0.0,-2.9566,-3.0133,-2.9317,-3.0147,-3.1161,-2.9504,-3.0208,-3.1351,-3.0524,-3.0329,-3.0329,-3.0329,0.0,0.0,-3.0072,-2.8756,-2.7818,-2.9454,-2.9992,-3.0095,-2.9833,-3.0558,0.0,-3.136,0.0,0.0,0.0,0.0,0.0,0.0,0.0,0.0,0.0,0.0,0.0,0.0,0.0,0.0,0.0,-3.9424,-3.9424,-3.9424,-3.9424,-3.9424,-3.9424,-3.9424,-3.9424,-3.9424,-3.9424,-3.9424,-3.9424,-3.9424,-3.9424,-3.9424,-3.9424,-3.9424,-3.9424,-3.9424,-3.9424,-3.9424,-3.9424,-3.9424,-3.9424,-3.9424,-3.9424,-3.9424,0.0,0.0,0.0,0.0,0.0,0.0,0.0,0.0,0.0,0.0,0.0,0.0,0.0,0.0,0.0,0.0,0.0,0.0,-2.0388,-2.1091,-2.1656,-2.2046,-2.2761,-2.3078,-2.3078,-2.3078,-2.3339,-2.374,-2.3916,-2.4381,-2.5121,-2.5448,-2.5812,-2.6214,-2.6445,-2.6533,-2.6533,-2.6533,-2.6533,-2.6533,-2.6533,-2.6533,-2.6533,0.0,0.0,0.0,0.0,0.0,0.0,0.0,0.0,0.0,-3.0644,-3.1087,-3.1409,-3.0896,-3.1087,-3.1467,-3.1219,-3.1161,0.0,-3.1161,0.0,0.0,0.0,-2.9664,0.0,0.0,-3.0415,-3.0075,-3.0657,0.0,0.0,-3.1291,0.0,0.0,0.0,0.0,0.0,0.0,0.0,0.0,0.0,0.0,0.0,0.0,0.0,0.0,0.0,-3.9424,-3.9424,-3.9424,-3.9424,-3.9424,-3.9424,-3.9424,-3.9424,-3.9424,-3.9424,-3.9424,-3.9424,-3.9424,-3.9424,-3.9424,-3.9424,-3.9424,-3.9424,-3.9424,-3.9424,-3.9424,-3.9424,-3.9424,-3.9424,-3.9424,-3.9424,-3.9424,0.0,0.0,0.0,0.0,0.0,0.0,0.0,0.0,0.0,0.0,0.0,0.0,0.0,0.0,0.0,0.0,0.0,0.0,0.0,0.0,-2.197,-2.2297,-2.2836,-2.3078,-2.3078,-2.3364,-2.3753,-2.433,-2.433,-2.4757,-2.5598,-2.5837,-2.6126,-2.6533,-2.6533,-2.6533,-2.6521,-2.685,-2.6973,-2.704,-2.7351,-2.7484,-2.7484,0.0,0.0,0.0,0.0,0.0,0.0,0.0,0.0,0.0,-3.1351,-3.1482,-3.1482,-3.1482,-3.1482,-3.1482,-3.1482,-3.1482,0.0,-3.1482,-3.1161,-3.0715,-3.0452,0.0,0.0,0.0,-3.0338,-2.9998,-3.0558,-3.0216,0.0,0.0,0.0,0.0,0.0,0.0,0.0,0.0,0.0,0.0,0.0,0.0,0.0,0.0,0.0,0.0,0.0,-3.9017,-3.8943,-3.9424,-3.9424,-3.9424,-3.9424,-3.9424,-3.9424,-3.9424,-3.9424,-3.9424,-3.9424,-3.9424,-3.9424,-3.9424,-3.9424,-3.9424,-3.9424,-3.9424,-3.9424,-3.9424,-3.9424,-3.9424,-3.9424,-3.9424,-3.9424,-3.9424,0.0,0.0,0.0,0.0,0.0,0.0,0.0,0.0,0.0,0.0,0.0,0.0,0.0,0.0,0.0,0.0,0.0,0.0,0.0,0.0,-2.2392,-2.2385,-2.2921,-2.321,-2.3153,-2.3789,-2.4406,-2.5012,-2.4895,-2.5159,-2.5686,-2.6214,-2.6521,-2.6589,-2.6521,-2.6589,-2.6782,-2.7417,-2.7736,-2.7855,-2.8684,-2.9002,-2.9002,-2.9002,0.0,0.0,0.0,0.0,0.0,0.0,0.0,0.0,-3.1482,-3.1482,-3.1482,-3.1482,-3.1482,-3.1482,-3.1482,-3.1482,-3.1482,-3.1482,-3.1409,0.0,-3.0588,-2.9856,-2.9379,-2.9847,0.0,-2.9869,-2.9934,-2.9869,-3.0143,0.0,0.0,0.0,0.0,0.0,0.0,0.0,0.0,0.0,0.0,0.0,0.0,0.0,0.0,0.0,0.0,-3.8308,-3.8308,-3.9337,-3.9424,-3.9424,-3.9424,-3.9424,-3.9424,-3.9424,-3.9424,-3.9424,-3.9424,-3.9424,-3.9424,-3.9424,-3.9424,-3.9424,-3.9424,-3.9424,-3.9424,-3.9424,-3.9424,-3.9424,-3.9424,-3.9424,-3.9424,-3.9424,0.0,0.0,0.0,0.0,0.0,0.0,0.0,0.0,0.0,0.0,0.0,0.0,0.0,0.0,0.0,0.0,0.0,0.0,0.0,0.0,-2.3096,-2.2937,-2.3644,-2.3986,-2.3803,-2.4506,-2.5357,-2.6438,-2.5752,-2.5724,-2.6276,-2.6471,-2.685,-2.7417,-2.6782,-2.7229,-2.8427,-2.792,-2.8117,-2.8748,-2.8939,-2.9002,-2.9002,-2.9002,-2.9002,0.0,0.0,0.0,0.0,0.0,0.0,0.0,-3.1482,-3.1482,-3.1482,-3.1482,-3.1482,-3.1482,-3.1482,-3.1482,0.0,0.0,-3.0524,-2.9575,-2.9657,-2.8983,-2.8826,-3.0524,-3.0279,-2.9998,-3.0758,-3.0279,-3.0143,0.0,0.0,0.0,0.0,0.0,0.0,0.0,0.0,0.0,0.0,0.0,0.0,0.0,0.0,0.0,-3.8069,-3.7919,-3.8308,-3.9337,-3.9424,-3.9424,-3.9424,-3.9424,-3.9424,0.0,-3.9424,-3.9424,-3.9424,-3.9424,-3.9424,-3.9424,-3.9424,-3.9424,-3.9424,-3.9424,-3.9424,-3.9424,-3.9424,-3.9424,-3.9424,-3.9424,-3.9424,-3.9424,0.0,0.0,0.0,0.0,0.0,0.0,0.0,0.0,0.0,0.0,0.0,0.0,0.0,0.0,0.0,0.0,0.0,0.0,0.0,0.0,0.0,-2.3695,-2.406,-2.4569,-2.5137,-2.5775,-2.6593,-2.7547,-2.6883,-2.6799,-2.7095,-2.7095,-2.7095,-2.7095,-2.7095,-2.7761,-2.8847,-2.8847,-2.9467,-3.0581,-3.0974,-3.1161,-3.1161,-3.1161,-3.0974,-3.0715,-3.117,0.0,0.0,0.0,0.0,0.0,0.0,0.0,-3.1482,-3.1482,-3.1482,-3.1482,-3.1482,0.0,0.0,-3.1029,0.0,-2.9575,-2.9464,-2.9054,-2.9044,-3.025,-3.0139,-2.9934,-3.0419,-3.0139,0.0,0.0,0.0,0.0,0.0,0.0,0.0,0.0,0.0,0.0,0.0,0.0,0.0,0.0,0.0,-3.5346,-3.693,-3.7021,-3.7496,-3.862,-3.9104,-3.9424,-3.9424,-3.9424,-3.9424,-3.9424,-3.9424,-3.9424,-3.9424,-3.9424,-3.9424,-3.9424,-3.9424,-3.9424,-3.9424,-3.9424,-3.9424,-3.9424,-3.9424,-3.9424,-3.9424,-3.9424,-3.9424,-3.9424,0.0,0.0,0.0,0.0,0.0,0.0,0.0,0.0,0.0,0.0,0.0,0.0,0.0,0.0,0.0,0.0,0.0,0.0,0.0,0.0,0.0,0.0,-2.4775,-2.5385,-2.6491,-2.7218,-2.7889,-2.8563,-2.8133,-2.792,-2.792,-2.7604,-2.7351,-2.7162,-2.7642,-2.8399,-2.9387,-3.0076,-3.114,-3.2489,-3.3223,-3.3499,-3.3499,-3.3499,-3.3155,-3.2677,-3.2677,-3.2258,-3.1646,-3.1646,0.0,0.0,0.0,0.0,-3.1482,-3.1482,-3.1482,-3.1482,-3.1482,0.0,-3.1307,-3.064,-3.0488,0.0,-2.968,-2.9539,-2.964,-2.9796,-2.9792,-2.9792,-2.9792,0.0,0.0,0.0,0.0,0.0,0.0,0.0,0.0,0.0,0.0,0.0,0.0,0.0,0.0,0.0,0.0,-3.4108,-3.5814,-3.5974,-3.6462,-3.751,-3.8546,-3.9104,-3.9104,-3.9337,-3.9424,-3.9424,-3.9424,-3.9424,-3.9424,-3.9424,-3.9424,-3.9424,-3.9424,-3.9424,-3.9424,-3.9424,-3.9424,-3.9424,-3.9424,-3.9424,-3.9424,-3.9424,-3.9424,-3.9424,0.0,0.0,0.0,0.0,0.0,0.0,0.0,0.0,0.0,0.0,0.0,0.0,0.0,0.0,0.0,0.0,0.0,0.0,-2.508,0.0,0.0,-2.6176,-2.6743,-2.7103,-2.7069,-2.8333,-2.9328,-3.0018,-2.9213,-2.8812,0.0,0.0,-2.7802,-2.978,-2.8903,-2.9831,-3.197,-3.1922,-3.248,-3.3362,-3.3423,-3.3499,-3.3499,-3.3499,-3.344,-3.3365,-3.3365,-3.2946,-3.2377,-3.2377,-3.2003,0.0,0.0,0.0,-3.1482,-3.1482,-3.1482,-3.1482,-3.1482,0.0,-3.1411,0.0,-3.1094,-3.092,0.0,0.0,-3.015,0.0,-2.9792,-2.9792,0.0,0.0,0.0,0.0,0.0,0.0,0.0,0.0,0.0,0.0,0.0,0.0,0.0,0.0,0.0,0.0,-3.4037,-3.4581,-3.4897,-3.4897,-3.5359,-3.6369,-3.742,-3.7994,-3.7994,-3.8943,-3.9424,-3.9424,-3.9424,-3.9424,-3.9424,-3.9424,-3.9424,-3.9424,-3.9424,-3.9424,-3.9424,-3.9424,-3.9424,-3.9424,-3.9424,-3.9424,-3.9424,-3.9424,-3.9424,-3.9424,0.0,0.0,0.0,0.0,0.0,0.0,0.0,0.0,0.0,0.0,0.0,0.0,0.0,0.0,0.0,-2.4403,-2.5219,-2.5756,-2.5986,-2.6014,-2.6176,-2.651,-2.7169,-2.7804,-2.8552,-2.9475,-3.0293,-3.097,-3.0133,0.0,0.0,-2.8684,-2.8421,0.0,0.0,0.0,-3.2889,-3.2832,-3.3504,-3.4622,-3.4622,-3.4622,-3.4622,-3.4622,-3.4382,-3.4038,-3.4038,-3.3619,-3.3066,-3.3066,-3.2871,-3.2572,-3.2198,0.0,0.0,0.0,-3.1482,-3.1556,-3.1988,-3.2078,-3.1976,0.0,-3.2115,-3.2095,-3.072,0.0,-3.0855,-2.9961,-2.9792,0.0,0.0,0.0,0.0,0.0,0.0,0.0,0.0,0.0,0.0,0.0,0.0,0.0,0.0,0.0,0.0,0.0,-3.26,-3.2834,-3.2834,-3.3666,-3.4714,-3.5728,-3.6515,-3.7175,-3.7753,-3.8308,-3.8782,-3.9424,-3.9424,-3.9424,-3.9424,-3.9424,-3.9424,-3.9424,-3.9424,-3.9424,-3.9424,-3.9424,-3.9424,-3.9424,-3.9424,-3.9424,-3.9424,-3.9424,-3.9424,-3.9424,0.0,0.0,0.0,0.0,0.0,0.0,0.0,0.0,0.0,0.0,0.0,0.0,0.0,0.0,0.0,0.0,-2.6208,-2.6774,-2.6774,-2.6774,-2.6846,-2.7021,-2.77,-2.863,-2.9804,-3.0447,-3.1016,-3.1482,0.0,0.0,-3.1161,-3.0133,-2.9595,0.0,-3.0899,-3.2231,0.0,0.0,-3.4463,-3.5504,-3.5504,-3.5504,-3.5504,-3.5504,-3.519,-3.4741,-3.4741,-3.4307,-3.3739,-3.3739,-3.3634,-3.341,-3.2916,-3.2766,0.0,0.0,0.0,-3.1884,0.0,0.0,-3.2526,-3.2723,-3.3258,-3.3231,0.0,0.0,-3.1392,0.0,-2.9691,0.0,0.0,0.0,0.0,0.0,0.0,0.0,0.0,0.0,0.0,0.0,0.0,0.0,0.0,0.0,0.0,0.0,-3.1386,-3.1386,-3.1386,-3.2542,-3.3555,-3.4346,-3.5288,-3.6144,-3.6949,-3.7428,-3.8121,-3.8916,-3.8916,-3.8916,-3.8916,-3.8916,-3.8916,-3.8931,-3.9275,-3.9424,-3.9424,-3.9424,-3.9424,-3.9424,-3.9424,-3.9424,-3.9424,-3.9424,-3.9424,-3.9424,0.0,0.0,0.0,0.0,0.0,0.0,0.0,0.0,0.0,0.0,0.0,0.0,0.0,-2.6035,-2.6679,-2.7354,-2.7494,-2.756,-2.756,-2.756,-2.7808,-2.8465,-2.9122,0.0,-3.0447,-3.1135,-3.1437,0.0,0.0,0.0,-3.0389,-3.1029,-3.1632,-3.2019,-3.2097,-3.3001,-3.4454,0.0,0.0,0.0,0.0,-3.5504,-3.5504,-3.5504,-3.5489,-3.5444,-3.5444,-3.5011,-3.4427,-3.4427,-3.4008,-3.3484,-3.3455,-3.344,-3.344,0.0,0.0,0.0,0.0,-3.2512,0.0,-3.4098,-3.4412,0.0,0.0,0.0,0.0,0.0,0.0,0.0,0.0,0.0,0.0,0.0,0.0,0.0,0.0,0.0,0.0,0.0,0.0,0.0,0.0,0.0,0.0,0.0,-3.1386,-3.1386,-3.1386,-3.1493,-3.1587,-3.1587,-3.3493,-3.4499,-3.4574,-3.6458,-3.744,-3.7509,-3.7509,-3.7509,-3.7509,-3.7509,-3.7509,-3.7584,-3.8871,-3.9424,-3.9424,-3.9424,-3.9424,-3.9424,-3.9424,-3.9424,-3.9424,-3.9424,-3.9424,-3.9424,0.0,0.0,0.0,0.0,0.0,0.0,0.0,0.0,0.0,0.0,0.0,0.0,0.0,-2.6373,-2.6835,-2.7545,-2.7625,-2.7754,-2.8203,-2.8233,-2.8532,-2.9205,-2.9834,-3.0283,-3.0507,-3.118,-3.1482,0.0,0.0,-3.1351,-3.1102,-3.1782,-3.2452,-3.3022,-3.3022,-3.3832,-3.516,-3.54,0.0,0.0,0.0,0.0,0.0,0.0,0.0,0.0,0.0,0.0,0.0,-3.513,-3.4981,-3.4711,-3.4262,0.0,0.0,0.0,0.0,0.0,0.0,0.0,0.0,-3.4105,-3.4682,-3.4545,-3.2195,-3.2177,-3.1928,-2.9389,0.0,0.0,0.0,0.0,0.0,0.0,0.0,0.0,0.0,0.0,0.0,0.0,0.0,0.0,0.0,0.0,0.0,0.0,0.0,-3.0369,-3.0369,-3.0696,-3.1191,-3.185,-3.2866,-3.4039,-3.5334,-3.6086,-3.6752,-3.7404,-3.7404,-3.7404,-3.7404,-3.7404,-3.7404,-3.7434,-3.7913,-3.8138,-3.8138,-3.8138,-3.8138,-3.8138,-3.8138,-3.8138,-3.8138,-3.8138,-3.8138,-3.8138,0.0,0.0,0.0,0.0,0.0,0.0,0.0,0.0,0.0,0.0,0.0,0.0,0.0,0.0,-2.7086,-2.7575,-2.7784,-2.8113,-2.8562,-2.8801,-2.922,-2.9864,-3.0283,-3.0612,-3.0851,-3.1076,-3.1243,0.0,0.0,0.0,0.0,-3.2213,-3.2871,-3.3499,-3.3724,-3.4457,0.0,0.0,0.0,-3.5504,0.0,0.0,-3.5504,0.0,0.0,0.0,0.0,0.0,0.0,0.0,0.0,0.0,0.0,0.0,0.0,0.0,0.0,0.0,-3.4352,0.0,0.0,0.0,0.0,-3.4409,-3.2177,0.0,-3.137,0.0,0.0,0.0,0.0,0.0,0.0,0.0,0.0,0.0,0.0,0.0,0.0,0.0,0.0,0.0,0.0,0.0,0.0,0.0,0.0,0.0,-2.9792,-3.0143,-3.0764,-3.1849,-3.2421,-3.3512,-3.5238,-3.5619,-3.6119,-3.6761,-3.6761,-3.6761,-3.6761,-3.6761,-3.6761,-3.6761,-3.6761,-3.7015,-3.7404,-3.7404,-3.7404,-3.7404,-3.7404,-3.7404,-3.7404,-3.7404,-3.7404,-3.7404,0.0,0.0,0.0,0.0,0.0,0.0,0.0,0.0,0.0,0.0,0.0,0.0,0.0,0.0,0.0,-2.7655,-2.8233,-2.8637,-2.8652,-2.925,-2.9879,-3.0507,-3.0537,-3.0851,-3.1467,-3.0881,-3.0866,0.0,0.0,0.0,0.0,0.0,-3.2886,-3.3529,-3.4203,-3.4876,-3.5504,0.0,-3.5504,-3.5504,0.0,-3.5504,-3.5504,0.0,0.0,0.0,-3.5504,-3.5504,0.0,-3.5504,0.0,0.0,0.0,0.0,0.0,0.0,0.0,0.0,0.0,0.0,0.0,0.0,0.0,0.0,-3.2749,0.0,-3.0204,0.0,0.0,0.0,0.0,0.0,0.0,0.0,0.0,0.0,0.0,0.0,0.0,0.0,0.0,0.0,0.0,0.0,0.0,0.0,-2.9792,-2.9792,-2.9792,-2.9792,-3.0203,-3.118,-3.2105,-3.3031,-3.3959,-3.492,-3.5439,-3.5439,-3.5439,-3.5439,-3.5504,-3.5504,-3.5504,-3.5504,-3.5504,-3.6207,-3.7345,-3.7345,-3.7345,-3.7345,-3.7345,-3.7345,-3.7345,-3.7345,-3.7345,-3.7345,0.0,0.0,0.0,0.0,0.0,0.0,0.0,0.0,0.0,0.0,0.0,0.0,0.0,0.0,-2.8308,-2.8308,-2.8921,-2.9505,-2.9953,-3.0148,-3.0552,-3.1168,-3.124,-3.1345,-3.1482,-3.1287,-3.1345,0.0,0.0,0.0,0.0,0.0,0.0,0.0,-3.4711,-3.5325,-3.5504,-3.5504,0.0,-3.5504,-3.5504,-3.5504,0.0,0.0,0.0,0.0,0.0,-3.5504,-3.5504,0.0,-3.5504,-3.5504,0.0,0.0,0.0,0.0,0.0,0.0,-3.522,0.0,0.0,0.0,0.0,0.0,0.0,0.0,0.0,0.0,0.0,0.0,0.0,0.0,0.0,0.0,0.0,0.0,0.0,0.0,0.0,0.0,0.0,0.0,0.0,0.0,0.0,0.0,-2.9792,-2.9792,-2.9792,-2.9792,-3.0203,-3.118,-3.1462,-3.2033,-3.2961,-3.3255,-3.3754,-3.4394,-3.4394,-3.4773,-3.5504,-3.5504,-3.5504,-3.5504,-3.5504,-3.5714,-3.6028,-3.6028,-3.6028,-3.6028,-3.6028,-3.6028,-3.6028,-3.6028,-3.6028,-3.6028,0.0,0.0,0.0,0.0,0.0,0.0,0.0,0.0,0.0,0.0,0.0,0.0,0.0,0.0,-2.9011,-2.9011,-2.9594,-3.0118,-3.0477,-3.0776,-3.1106,-3.1452,-3.1482,-3.1482,-3.1482,-3.1255,-3.124,0.0,0.0,0.0,0.0,0.0,0.0,0.0,0.0,0.0,0.0,0.0,0.0,0.0,-3.5504,0.0,0.0,-3.5504,-3.5504,0.0,0.0,0.0,-3.5504,-3.5504,-3.5504,0.0,0.0,0.0,0.0,0.0,0.0,0.0,0.0,0.0,0.0,0.0,0.0,0.0,-3.0963,-3.0225,0.0,0.0,0.0,0.0,0.0,0.0,0.0,0.0,0.0,0.0,0.0,0.0,0.0,0.0,0.0,0.0,0.0,-2.9654,-2.9792,-2.9792,-2.9792,-2.9792,-2.9792,-2.9792,-3.0075,-3.062,-3.097,-3.1462,-3.2033,-3.2393,-3.289,-3.3449,-3.3808,-3.4312,-3.4905,-3.5294,-3.5504,-3.5504,-3.5504,-3.5504,-3.5504,-3.5504,-3.5504,-3.5504,-3.5504,-3.5504,-3.5504,-3.5504,-3.5504,-3.5504,0.0,0.0,0.0,0.0,0.0,0.0,0.0,0.0,0.0,0.0,0.0,0.0,0.0,0.0,0.0,0.0,-3.0253,-3.0612,-3.0612,-3.1195,-3.1482,-3.1482,-3.1482,-3.1482,-3.1482,-3.0926,-3.0911,0.0,0.0,0.0,0.0,0.0,0.0,0.0,0.0,0.0,0.0,0.0,0.0,-3.5504,-3.5504,-3.5504,0.0,0.0,-3.5504,-3.5504,-3.5504,-3.5504,-3.5504,-3.5504,-3.5504,0.0,0.0,0.0,0.0,0.0,-3.5504,0.0,0.0,0.0,0.0,0.0,0.0,0.0,-3.186,-2.9966,-2.8384,0.0,0.0,0.0,0.0,0.0,0.0,0.0,0.0,0.0,0.0,0.0,0.0,0.0,0.0,0.0,-2.8837,-2.9302,-2.9603,-2.9603,-2.9666,-2.9691,-2.9691,-2.9754,-2.9792,-2.9792,-3.062,-3.1044,-3.1044,-3.1888,-3.2393,-3.2593,-3.331,-3.3891,-3.4177,-3.4986,-3.5359,-3.5504,-3.5504,-3.5504,-3.5504,-3.5504,-3.5504,-3.5504,-3.5504,-3.5504,-3.5504,-3.5504,-3.5504,-3.5504,0.0,0.0,0.0,0.0,0.0,0.0,0.0,0.0,0.0,0.0,0.0,0.0,0.0,0.0,0.0,0.0,-3.0941,-3.133,-3.133,-3.1465,-3.1482,-3.1482,-3.1482,-3.1482,-3.1482,-3.1405,-3.1405,-3.1482,0.0,0.0,0.0,0.0,0.0,0.0,0.0,0.0,0.0,0.0,0.0,-3.5504,-3.5504,0.0,-3.5504,-3.5504,-3.5504,-3.5504,-3.5504,-3.5504,-3.5504,-3.5504,-3.5504,-3.5504,0.0,0.0,0.0,0.0,0.0,0.0,0.0,0.0,0.0,0.0,0.0,0.0,-3.1535,-3.0586,-2.96,0.0,0.0,0.0,0.0,0.0,0.0,0.0,0.0,0.0,0.0,0.0,0.0,0.0,0.0,0.0,-2.8273,-2.836,-2.8436,-2.8436,-2.885,-2.9101,-2.9101,-2.9541,-2.9792,-2.9792,-3.0011,-3.0075,-3.0075,-3.0216,-3.1132,-3.2593,-3.2033,-3.2975,-3.5213,-3.4543,-3.4758,-3.5504,-3.5504,-3.5504,-3.5504,-3.5504,-3.5504,-3.5504,-3.5504,-3.5504,-3.5504,-3.5504,-3.5504,-3.5504,0.0,0.0,0.0,0.0,0.0,0.0,0.0,0.0,0.0,0.0,0.0,0.0,0.0,0.0,0.0,0.0,0.0,0.0,0.0,0.0,-3.1482,-3.1482,-3.1482,-3.1482,-3.1482,-3.1482,-3.1631,-3.2018,0.0,0.0,0.0,0.0,0.0,0.0,0.0,0.0,0.0,0.0,-3.5504,-3.5504,-3.5504,0.0,-3.5504,-3.5504,-3.5504,-3.5504,-3.5504,-3.5504,-3.5504,-3.5504,-3.5504,0.0,0.0,-3.5504,-3.5504,0.0,-3.5504,-3.5504,0.0,0.0,0.0,-3.4758,0.0,0.0,0.0,-3.0309,-2.8993,-2.7952,-2.7256,-2.6791,-2.6584,-2.6533,-2.6533,0.0,0.0,0.0,0.0,0.0,0.0,0.0,0.0,0.0,-2.7695,-2.7946,-2.8109,-2.8109,-2.836,-2.8511,-2.8511,-2.88,-2.9076,-2.9352,-2.9365,-2.9503,-2.9792,-2.9792,-3.0495,-3.1888,-3.1888,-3.289,-3.4758,-3.4758,-3.4986,-3.5504,-3.5504,-3.5504,-3.5504,-3.5504,-3.5504,-3.5504,-3.5504,-3.5504,-3.5504,-3.5504,-3.5504,-3.5504,-2.7071,0.0,0.0,0.0,0.0,0.0,0.0,0.0,0.0,0.0,0.0,0.0,0.0,0.0,0.0,0.0,0.0,0.0,0.0,0.0,0.0,-3.1482,-3.1482,-3.1482,-3.1482,-3.1601,-3.1988,-3.2512,0.0,0.0,0.0,0.0,0.0,0.0,0.0,0.0,0.0,0.0,0.0,-3.5504,0.0,-3.5504,-3.5504,-3.5504,-3.5504,-3.5504,-3.5504,-3.5504,-3.5504,-3.5504,-3.5504,-3.5504,-3.5504,-3.5504,0.0,0.0,0.0,0.0,0.0,0.0,0.0,0.0,0.0,-3.2947,0.0,0.0,0.0,-2.7465,-2.6841,-2.6533,-2.6533,-2.6533,0.0,0.0,0.0,0.0,0.0,0.0,0.0,0.0,0.0,0.0,-2.713,-2.7532,-2.7783,-2.7783,-2.7883,-2.7946,-2.7946,-2.8047,-2.831,-2.875,-2.8775,-2.9001,-2.9465,-2.9578,-3.0113,-3.1022,-3.1775,-3.2678,-3.3739,-3.4409,-3.4854,-3.5213,-3.5213,-3.5294,-3.5504,-3.5504,-3.5504,-3.5504,-3.5504,-3.5504,-3.5504,-3.5504,-3.5504,-3.5504,-2.5063,-2.4624,0.0,0.0,0.0,0.0,0.0,0.0,0.0,0.0,0.0,0.0,0.0,0.0,0.0,0.0,0.0,0.0,-3.1482,0.0,0.0,-3.1482,-3.1482,-3.1482,-3.1482,-3.2108,-3.2437,-3.2512,-3.3679,0.0,0.0,0.0,0.0,0.0,-3.5504,0.0,0.0,0.0,-3.5504,0.0,-3.5504,-3.5504,0.0,-3.5504,-3.5504,-3.5504,-3.5504,-3.5504,-3.5504,0.0,-3.5504,-3.5504,0.0,-3.5504,-3.5504,-3.5504,0.0,0.0,0.0,0.0,0.0,0.0,-3.5359,0.0,0.0,0.0,-3.0025,-2.7793,0.0,-2.6533,-2.6533,0.0,0.0,0.0,0.0,0.0,0.0,0.0,0.0,0.0,0.0,0.0,0.0,-2.6684,-2.6653,-2.6653,-2.7105,-2.7369,-2.7369,-2.7846,-2.8134,-2.8197,-2.8197,-2.8235,-2.8298,-2.8787,-2.9525,-3.0467,-3.0263,-3.1057,-3.2749,-3.2033,-3.2607,-3.4177,-3.4177,-3.4691,-3.5504,-3.5504,-3.5504,-3.5504,-3.5504,-3.5504,-3.5504,-3.5504,-3.5504,-3.5504,-2.6181,-2.6515,0.0,0.0,0.0,0.0,0.0,0.0,0.0,0.0,0.0,0.0,0.0,0.0,0.0,0.0,0.0,-3.1482,0.0,0.0,0.0,0.0,0.0,0.0,-3.2034,-3.1337,-3.183,-3.3649,-3.3667,0.0,0.0,0.0,0.0,0.0,-3.5504,0.0,-3.5504,0.0,-3.5504,0.0,0.0,0.0,0.0,-3.5504,-3.5504,-3.5504,-3.5504,-3.5504,-3.5504,0.0,-3.5504,0.0,0.0,0.0,0.0,0.0,0.0,0.0,0.0,0.0,0.0,0.0,0.0,0.0,-3.1441,0.0,-2.8956,0.0,0.0,0.0,0.0,0.0,0.0,0.0,-2.6302,0.0,0.0,0.0,0.0,0.0,0.0,0.0,0.0,0.0,0.0,0.0,-2.6747,-2.6804,-2.6804,-2.703,-2.7293,-2.762,-2.7632,-2.7783,-2.8109,-2.8335,-2.8937,-2.9918,-3.009,-3.0851,-3.2166,-3.2014,-3.2464,-3.3241,-3.3739,-3.4245,-3.4691,-3.5279,-3.5504,-3.5504,-3.5504,-3.5504,-3.5504,-3.5504,-3.5504,-3.5504,-2.7564,0.0,0.0,0.0,0.0,0.0,0.0,0.0,0.0,0.0,0.0,0.0,-3.1482,-3.1482,0.0,0.0,-3.1482,-3.1482,0.0,0.0,-3.0896,0.0,0.0,0.0,0.0,-3.1409,-3.2105,-3.414,-3.3864,-3.4332,0.0,0.0,0.0,0.0,0.0,-3.5504,-3.5504,0.0,-3.5504,-3.5504,-3.5504,-3.5504,-3.5504,-3.5504,-3.5504,-3.5504,-3.5504,-3.5504,-3.5504,-3.5504,-3.5504,0.0,-3.5504,0.0,0.0,0.0,0.0,0.0,-3.5133,0.0,0.0,0.0,0.0,0.0,0.0,0.0,0.0,0.0,0.0,0.0,0.0,0.0,-2.6483,0.0,0.0,-2.6471,0.0,0.0,0.0,0.0,0.0,0.0,0.0,0.0,0.0,0.0,0.0,-2.6533,-2.6533,-2.6533,-2.671,-2.7042,-2.7055,-2.7256,-2.7657,-2.7808,-2.8206,-2.889,-2.949,-3.0098,-3.078,-3.1213,-3.1711,-3.2429,-3.3125,-3.3801,-3.4461,-3.5213,-3.5504,-3.5504,-3.5504,-3.5504,-3.5504,-3.5504,-3.5504,-3.5504,-2.8452,-2.6445,0.0,0.0,0.0,0.0,0.0,0.0,0.0,0.0,0.0,0.0,0.0,0.0,0.0,0.0,0.0,-3.1482,-3.1482,0.0,-3.1467,0.0,0.0,-3.1972,0.0,0.0,-3.3952,-3.3134,-3.4661,-3.5474,0.0,0.0,0.0,0.0,-3.5504,-3.5504,-3.5504,-3.5504,-3.5504,-3.5504,-3.5504,-3.5504,-3.5504,0.0,-3.5504,-3.5504,-3.5504,0.0,0.0,-3.5504,-3.5504,0.0,0.0,0.0,0.0,0.0,0.0,0.0,0.0,0.0,0.0,-3.289,0.0,0.0,0.0,0.0,-2.8869,0.0,0.0,0.0,0.0,-2.6533,0.0,0.0,0.0,0.0,0.0,0.0,0.0,0.0,0.0,0.0,0.0,0.0,0.0,0.0,-2.6533,0.0,-2.6533,-2.6533,-2.6533,-2.6559,-2.6559,-2.6559,-2.6584,-2.7042,-2.7306,-2.7389,-2.7943,-2.8195,-2.8195,-2.822,-2.9536,-3.1806,-3.1875,-3.3197,-3.5424,-3.5504,-3.5504,-3.5504,-3.5504,-3.5504,-3.5504,-3.5504,-3.5504,-3.5504,0.0,0.0,0.0,0.0,0.0,0.0,0.0,-3.0147,0.0,0.0,0.0,0.0,0.0,-3.1482,-3.1278,0.0,0.0,-3.045,-2.9889,-2.9827,0.0,0.0,0.0,-3.0871,0.0,0.0,-3.2414,-3.3725,-3.3017,-3.3255,-3.4461,0.0,0.0,0.0,0.0,-3.4905,0.0,0.0,0.0,0.0,0.0,-3.5504,-3.5504,0.0,0.0,-3.5504,-3.5504,-3.5504,0.0,-3.5504,-3.5504,-3.5359,-3.4691,-3.4543,-3.4543,-3.4543,-3.4041,0.0,0.0,0.0,-3.289,-3.1888,0.0,0.0,0.0,0.0,0.0,0.0,0.0,0.0,0.0,0.0,0.0,0.0,0.0,0.0,0.0,0.0,0.0,0.0,0.0,0.0,0.0,0.0,0.0,0.0,-2.6533,0.0,-2.6533,-2.6533,-2.6533,-2.6533,-2.6533,-2.6533,-2.6533,-2.671,-2.6741,-2.6753,-2.7293,-2.7557,-2.757,-2.7946,-2.8549,-2.9412,-3.0024,-3.1089,-3.2459,-3.3064,-3.3623,-3.4173,-3.4173,-3.4173,-3.4277,-3.5175,-3.5504,-3.5504,-2.704,0.0,0.0,0.0,0.0,0.0,0.0,0.0,0.0,0.0,-3.0896,0.0,-3.1353,0.0,-3.0747,0.0,-3.0219,-3.0114,-3.0073,-2.9428,0.0,-2.9736,-3.0081,0.0,0.0,0.0,0.0,-3.3031,-3.2105,-3.2321,-3.3518,0.0,0.0,0.0,0.0,-3.4543,-3.5504,0.0,-3.5504,0.0,0.0,-3.5504,0.0,0.0,-3.5504,-3.5424,0.0,-3.5213,-3.5439,-3.5067,-3.5213,-3.5359,-3.4758,-3.4312,-3.4027,-3.4027,-3.331,-3.2664,-3.2961,-3.2522,0.0,-3.0634,-3.0112,0.0,-2.8116,0.0,0.0,0.0,0.0,0.0,0.0,0.0,0.0,0.0,0.0,0.0,0.0,-2.6533,0.0,0.0,0.0,0.0,0.0,0.0,0.0,-2.6533,-2.6533,-2.6533,0.0,0.0,-2.6533,-2.6533,-2.6533,-2.6533,-2.6533,-2.6533,-2.6533,-2.6533,-2.6816,-2.6992,-2.7005,-2.7356,-2.7835,-2.8344,-2.8952,-2.9875,-3.0932,-3.1803,-3.2553,-3.3084,-3.3362,-3.3499,-3.3604,-3.4472,-3.4801,-3.4801,0.0,0.0,0.0,0.0,-2.7162,0.0,0.0,0.0,-2.9964,0.0,-2.9808,-3.0557,-3.0988,-3.0331,-3.0044,-3.0487,-3.0074,-3.0387,-3.184,-3.0093,0.0,0.0,-3.0876,-3.0337,-2.9434,0.0,0.0,0.0,-3.2033,-3.2464,-3.2522,0.0,0.0,0.0,-3.3876,0.0,-3.5439,-3.5504,-3.5504,-3.5504,-3.5504,-3.5504,-3.5504,-3.5424,-3.5439,-3.5294,-3.4394,-3.4691,-3.5279,-3.4312,-3.4624,-3.5439,-3.5294,-3.4691,-3.3945,-3.3876,-3.3171,-3.2249,-3.1462,-3.118,-3.0751,-2.9277,0.0,0.0,0.0,0.0,-2.7092,0.0,0.0,0.0,0.0,0.0,0.0,0.0,0.0,0.0,0.0,0.0,0.0,0.0,0.0,0.0,0.0,0.0,-2.6589,-2.6589,-2.6589,-2.6589,0.0,0.0,-2.6533,-2.6533,-2.6533,-2.6533,-2.6533,-2.6533,-2.6533,-2.6533,-2.6533,-2.6533,-2.6533,-2.6533,-2.7255,-2.8622,-2.8622,-2.9457,-3.0982,-3.1718,-3.2118,-3.2246,-3.3057,-3.3395,-3.341,-3.3469,-3.3499,-3.3499,-2.6905,-2.6973,-2.704,0.0,-2.7162,-2.767,0.0,0.0,0.0,0.0,-3.0383,-3.0877,-3.0773,-3.051,-3.0228,-2.9774,-2.9584,0.0,0.0,0.0,0.0,-2.8864,-3.0106,-3.0265,-2.9045,-3.0664,0.0,-3.118,0.0,0.0,-3.1536,0.0,0.0,0.0,0.0,0.0,-3.4461,-3.5213,-3.5504,-3.5504,-3.5504,-3.5504,0.0,0.0,-3.4394,-3.4461,-3.492,-3.4839,-3.4327,-3.4095,-3.4177,-3.4109,-3.2749,-3.2607,-3.282,-3.2105,-3.1267,-3.0646,-3.1119,-3.0696,-2.9935,-2.9139,-2.8624,-2.8134,0.0,0.0,0.0,0.0,0.0,0.0,0.0,0.0,0.0,0.0,0.0,0.0,0.0,0.0,0.0,-2.6533,0.0,0.0,0.0,-2.704,-2.7417,-2.7417,-2.7417,-2.7417,-2.7417,0.0,0.0,-2.6533,-2.6533,-2.6533,-2.6533,-2.6533,-2.6533,-2.6533,-2.6533,-2.6533,-2.6533,-2.6533,-2.6734,-2.7054,-2.7054,-2.7973,-2.9522,-2.9728,-3.0559,-3.1708,-3.1916,-3.2033,-3.2153,-3.314,-3.3499,-3.3499,-2.6589,0.0,0.0,-2.6533,0.0,0.0,-2.7162,0.0,0.0,-2.9187,-2.9923,0.0,-3.0456,-3.0104,-2.9797,-2.9589,-2.937,0.0,-2.943,0.0,0.0,-2.907,-2.9633,-2.9634,-2.8925,-2.9972,0.0,-3.0558,0.0,0.0,-3.0558,0.0,0.0,0.0,0.0,-3.2749,-3.4095,-3.5067,-3.5504,-3.5504,-3.5504,-3.5504,0.0,-3.4839,-3.4394,-3.4095,-3.461,-3.4192,-3.331,-3.289,-3.3031,-3.3171,-3.2177,-3.1888,-3.1888,-3.1389,-3.0558,-2.9934,-3.0419,-3.0024,-2.9277,-2.8712,-2.816,-2.7607,-2.7055,-2.6747,-2.6533,0.0,0.0,0.0,0.0,0.0,0.0,0.0,0.0,0.0,0.0,0.0,0.0,0.0,-2.6905,0.0,0.0,-2.7537,-2.7986,-2.7229,-2.7484,-2.7537,0.0,0.0,0.0,-2.6533,-2.6533,-2.6533,-2.6533,-2.6533,-2.6533,-2.6533,-2.6533,-2.6533,-2.6533,-2.6533,-2.6533,-2.6533,-2.6533,-2.704,-2.792,-2.8298,-2.9192,-3.0464,-3.1219,-3.1482,-3.1556,-3.2362,-3.2647,-3.2647,0.0,0.0,0.0,0.0,0.0,0.0,0.0,-2.7704,0.0,-2.8559,0.0,-2.9652,-3.0098,-2.9463,-2.9252,-2.9741,0.0,-2.9592,-3.0944,-2.9269,-2.8816,-3.0236,-2.94,-2.8963,-2.9038,-2.9528,-2.9792,0.0,0.0,0.0,0.0,0.0,0.0,0.0,0.0,0.0,0.0,-3.4905,-3.5213,-3.5148,-3.5148,-3.5148,-3.5133,-3.4986,-3.4409,-3.3602,-3.3463,-3.3101,-3.2464,-3.1536,-3.1815,-3.2522,-3.2321,-3.1756,-3.118,-3.1044,-3.0419,-2.9792,-2.9792,-2.9365,-2.88,-2.8247,-2.7695,-2.713,-2.6647,-2.6533,-2.6533,-2.6533,-2.6533,-2.6533,0.0,0.0,0.0,0.0,0.0,0.0,0.0,0.0,0.0,0.0,0.0,0.0,0.0,0.0,-2.8247,-2.6782,-2.7284,-2.7417,0.0,0.0,0.0,-2.6533,-2.6533,-2.6533,-2.6533,0.0,-2.6533,-2.6533,-2.6533,-2.6533,-2.6533,-2.6533,-2.6533,-2.6533,-2.6533,-2.6589,-2.6714,-2.7417,-2.8298,-2.9317,-3.0896,-3.1482,-3.1482,-3.1482,-3.1482,-3.1482,0.0,0.0,0.0,0.0,0.0,-2.7293,-2.7745,-2.8221,-2.8565,-2.8781,-2.9546,-2.9978,-2.9859,-2.9705,-2.9679,-2.9779,-2.9691,0.0,0.0,0.0,0.0,-2.9834,-2.9252,-2.9151,-2.9628,-2.9741,-2.9792,0.0,0.0,0.0,0.0,0.0,0.0,0.0,0.0,0.0,-3.289,-3.3891,0.0,-3.3101,-3.3101,-3.3101,-3.3031,-3.2249,-3.1829,-3.1609,-3.0771,-3.1415,-3.2464,-3.1536,-3.1815,-3.2321,-3.0784,-3.0696,-3.1044,-3.0279,-2.9934,-2.9792,-2.9792,-2.9365,-2.88,-2.8247,-2.7695,-2.713,-2.6647,-2.6533,-2.6533,-2.6533,-2.6533,-2.6533,-2.6533,0.0,0.0,0.0,0.0,0.0,0.0,0.0,0.0,0.0,0.0,-2.7229,0.0,0.0,0.0,-2.7484,-2.7604,0.0,0.0,0.0,0.0,0.0,-2.6533,0.0,0.0,0.0,-2.6533,-2.6533,-2.6533,-2.6533,-2.6533,-2.6533,-2.6533,-2.6533,-2.6533,-2.6905,-2.7484,-2.767,-2.862,-3.0147,-3.1146,-3.1482,-3.1482,-3.1482,-3.1482,-3.1482,0.0,0.0,0.0,0.0,0.0,0.0,0.0,-2.8638,0.0,-2.885,-2.9541,-2.991,-2.9831,-2.9792,-2.9792,-2.9792,-2.9792,-2.9792,-2.9792,-2.9528,-2.9503,-2.9779,-2.9528,0.0,-2.9779,-2.9792,-2.9792,-2.9792,0.0,0.0,0.0,0.0,0.0,0.0,0.0,-3.1462,0.0,0.0,0.0,-3.2593,-3.2593,-3.2593,-3.2522,-3.2105,-3.1609,-3.1106,-3.0696,-3.1119,-3.1742,-3.0771,-3.0771,-3.0996,-3.0075,-3.0139,-3.0419,-2.9934,-2.9792,-2.9729,-2.9428,-2.8938,-2.8373,-2.7821,-2.7268,-2.6791,-2.6584,-2.6533,-2.6533,-2.6533,-2.6533,-2.6533,-2.6533,-2.6533,0.0,0.0,0.0,0.0,0.0,0.0,0.0,0.0,0.0,0.0,0.0,0.0,0.0,0.0,0.0,0.0,0.0,0.0,0.0,0.0,0.0,0.0,0.0,0.0,0.0,-2.6533,-2.6533,-2.6533,-2.6533,-2.6533,-2.6533,-2.6533,-2.6533,-2.6714,-2.7162,-2.8051,-2.8876,-2.9766,-3.1029,-3.1482,-3.1482,-3.1482,-3.1482,-3.1482,0.0,-2.7457,0.0,0.0,-2.8285,0.0,-2.9026,-2.9114,-2.9114,-2.9114,-2.9503,-2.9792,-2.9792,-2.9792,-2.9792,-2.9792,-2.9792,-2.9792,-2.9792,-2.9792,-2.9792,-2.9792,-2.9792,-2.9792,-2.9792,-2.9792,-2.9792,0.0,0.0,0.0,0.0,0.0,0.0,0.0,0.0,0.0,0.0,0.0,-3.2177,-3.1974,-3.1974,-3.1974,-3.1974,-3.1974,-3.1549,-3.0895,-3.0895,-3.0895,-3.0758,-3.0075,-2.9934,-3.0075,-2.9856,-2.9792,-2.9792,-2.9792,-2.9792,-2.9666,-2.9089,-2.8524,-2.7971,-2.7419,-2.6866,-2.6533,-2.6533,-2.6533,-2.6533,-2.6533,-2.6533,-2.6533,-2.6533,-2.6533,0.0,0.0,0.0,0.0,0.0,0.0,0.0,0.0,0.0,0.0,-2.6533,0.0,0.0,0.0,0.0,0.0,0.0,0.0,0.0,0.0,0.0,-2.6533,-2.6533,0.0,-2.6533,-2.6533,-2.6533,-2.6533,-2.6533,-2.6533,-2.6533,-2.6533,-2.6533,-2.6533,-2.6589,-2.8117,-2.8748,-2.8876,-3.0389,-3.1087,-3.1219,-3.1219,-3.1351,-3.1482,0.0,0.0,0.0,0.0,0.0,0.0,-2.9616,-2.9716,-2.9716,-2.9716,-2.9754,-2.9792,-2.9792,-2.9792,-2.9792,-2.9792,-2.9792,-2.9792,-2.9792,-2.9792,-2.9792,-2.9792,-2.9792,-2.9792,-2.9792,-2.9792,-2.9792,0.0,0.0,-2.9528,0.0,0.0,0.0,0.0,0.0,0.0,0.0,-3.0895,-3.0833,-3.0075,-3.0075,-3.0075,-3.0075,-3.0075,-2.9998,-2.9934,-2.9934,-2.9934,-2.9934,-2.9869,-3.0343,-3.0895,-3.0075,-2.9792,-2.9792,-2.9792,-2.9792,-2.9666,-2.9089,-2.8524,-2.7971,-2.7419,-2.6866,-2.6533,-2.6533,-2.6533,-2.6533,-2.6533,-2.6533,-2.6533,-2.6533,-2.6533,-2.6533,0.0,0.0,0.0,0.0,0.0,0.0,0.0,0.0,0.0,0.0,-2.6533,0.0,0.0,-2.6589,0.0,0.0,0.0,0.0,-2.6533,0.0,-2.6533,-2.6533,-2.6533,-2.6533,-2.6533,-2.6533,-2.6533,-2.6533,-2.6533,-2.6533,-2.6533,-2.6533,-2.6533,-2.6589,-2.7484,-2.7802,-2.792,-2.8876,-2.969,-3.0389,-3.0389,-3.0896,-3.1482,0.0,0.0,0.0,0.0,0.0,0.0,0.0,-3.0068,-3.0281,-3.0281,-3.0281,-3.0407,-3.0721,-3.0746,-3.0746,-3.0746,-3.047,-3.0281,-3.0281,-2.998,-2.9792,-2.9792,-2.9792,-2.9792,-2.9792,-2.9792,-2.9792,0.0,0.0,0.0,0.0,0.0,0.0,0.0,0.0,-3.0139,-2.9792,-3.0216,-3.0139,-2.9792,-2.9792,-2.9792,-2.9792,-2.9792,-2.9792,-2.9792,-2.9792,-2.9792,-2.9792,-2.9792,-3.0075,-3.0279,-2.9934,-2.9792,-2.9792,-2.9792,-2.9553,-2.9151,-2.8586,-2.8034,-2.7482,-2.6929,-2.6697,-2.6533,-2.6533,-2.6533,-2.6533,-2.6533,-2.6533,-2.6533,-2.6533,-2.6533,-2.6533,0.0,0.0,0.0,0.0,0.0,0.0,0.0,0.0,0.0,0.0,0.0,0.0,0.0,0.0,0.0,0.0,0.0,0.0,-2.6533,0.0,-2.6533,-2.6533,-2.6533,-2.6533,-2.6533,-2.6533,-2.6533,-2.6533,-2.6533,-2.6533,-2.6533,-2.6533,-2.6533,-2.6589,-2.7351,-2.767,-2.7868,-2.9254,-3.0011,-3.0329,-3.0837,-3.1219,-3.1482,-2.9101,0.0,-2.9315,0.0,-2.993,-3.003,-3.003,-3.0495,-3.0909,-3.106,-3.1085,-3.116,-3.1373,-3.1386,-3.1386,-3.1386,-3.0922,-3.062,-3.062,-3.0093,-2.9792,-2.9792,-2.9792,0.0,-2.9792,-2.9792,-2.9792,-2.9792,-2.9792,0.0,0.0,0.0,0.0,0.0,-2.9792,-2.9792,-2.9792,-2.9792,-2.9792,-2.9792,-2.9792,-2.9792,-2.9792,-2.9792,-2.9792,-2.9792,-2.9792,-2.9792,-2.9792,-2.9792,-2.9792,-2.9792,-2.9792,-2.9792,-2.9792,-2.9792,-2.939,-2.88,-2.826,-2.7708,-2.7155,-2.6603,-2.6533,-2.6533,-2.6533,-2.6533,-2.6533,-2.6533,-2.6533,-2.6533,-2.6533,-2.6533,-2.6533,-2.6533,0.0,0.0,0.0,0.0,0.0,0.0,-2.6533,-2.6533,-2.6533,-2.6533,0.0,0.0,0.0,0.0,0.0,0.0,0.0,0.0,0.0,0.0,-2.6533,-2.6533,-2.6533,-2.6533,-2.6533,-2.6533,-2.6533,-2.6533,-2.6533,-2.6533,-2.6533,-2.6533,-2.6521,-2.7095,-2.7351,-2.7484,-2.8939,-2.9566,-2.969,-3.0777,-3.1161,-3.1161,-2.9779,-2.9779,-2.9779,-2.9792,-3.0244,-3.0608,-3.0608,-3.1047,-3.1574,-3.2127,-3.219,-3.1989,-3.1449,-3.1386,-3.1386,-3.1386,-3.0922,-3.062,-3.062,-3.0093,-2.9792,0.0,0.0,-2.9792,-2.9792,-2.9792,-2.9792,-2.9792,0.0,0.0,-2.8938,0.0,-2.9252,-2.9792,-2.9792,-2.9792,-2.9792,-2.9792,-2.9792,-2.9792,-2.9792,-2.9792,-2.9792,-2.9792,-2.9792,-2.9792,-2.9792,-2.9792,-2.9792,-2.9792,-2.9792,-2.9792,-2.9792,-2.9792,-2.9792,-2.9792,-2.939,-2.88,-2.826,-2.7708,-2.7155,-2.6603,-2.6533,-2.6533,-2.6533,-2.6533,-2.6533,-2.6533,-2.6533,-2.6533,-2.6533,-2.6533,-2.6533,-2.6533,0.0,0.0,0.0,0.0,0.0,0.0,-2.6533,-2.6533,-2.6533,-2.6533,0.0,0.0,0.0,0.0,0.0,0.0,0.0,-2.6533,-2.6533,0.0,-2.6533,-2.6533,-2.6533,-2.6533,-2.6533,-2.6533,-2.6533,-2.6533,-2.6533,-2.6533,-2.6533,-2.6533,-2.6533,-2.6533,-2.6533,-2.6589,-2.7417,-2.7736,-2.792,-2.969,-3.0329,-3.045,-2.9792,-2.9792,-2.9917,-3.0281,-3.0507,-3.0733,-3.1085,-3.1599,-3.2014,-3.219,-3.2554,-3.2729,-3.2566,-3.2541,-3.2541,0.0,-3.1687,-3.1148,0.0,-3.0294,-2.9792,-2.9792,-2.9792,-2.9792,-2.9792,-2.9792,-2.9792,-2.9792,0.0,0.0,0.0,-2.9515,-2.9616,-2.9792,-2.9792,-2.9792,-2.9792,-2.9792,-2.9792,-2.9792,-2.9792,-2.9792,-2.9792,-2.9792,-2.9792,-2.9792,-2.9792,-2.9792,-2.9792,-2.9792,-2.9792,-2.9792,-2.9792,-2.9792,-2.9716,-2.9315,-2.88,-2.8247,-2.7695,-2.7143,-2.6678,-2.6571,-2.6533,-2.6533,-2.6533,-2.6533,-2.6533,-2.6533,-2.6533,-2.6533,-2.6533,-2.6533,-2.6533,-2.6533,-2.6533,0.0,0.0,0.0,0.0,0.0,-2.6533,-2.6533,-2.6533,-2.6533,0.0,0.0,0.0,0.0,0.0,0.0,0.0,0.0,-2.5875,0.0,-2.5875,-2.5875,-2.6063,-2.6533,-2.6533,-2.6533,-2.6533,-2.6533,-2.6533,-2.6533,-2.6533,-2.6533,-2.6533,-2.6533,-2.6533,-2.6589,-2.7417,-2.767,-2.7868,-2.9002,-2.9766,-3.0329,-3.0068,-3.0105,-3.0269,-3.0821,-3.1085,-3.1323,-3.165,-3.2177,-3.2541,-3.2541,-3.2855,-3.3081,-3.3081,-3.3081,0.0,-3.3081,-3.2039,-3.1386,-3.1386,-3.0394,-2.9792,-2.9792,-2.9792,-2.9792,-2.9792,-2.9792,0.0,-2.9792,-2.9792,-2.9792,-2.9792,-2.9792,-2.9792,-2.9792,-2.9792,-2.9792,-2.9792,-2.9792,-2.9792,-2.9792,-2.9792,-2.9792,-2.9792,-2.9792,-2.9792,-2.9792,-2.9792,-2.9792,-2.9792,-2.9792,-2.9792,-2.9792,-2.9792,-2.9641,-2.9402,-2.9038,-2.8398,-2.772,-2.7369,-2.6879,-2.6533,-2.6533,-2.6533,-2.6533,-2.6533,-2.6533,-2.6533,-2.6533,-2.6533,-2.6533,-2.6533,-2.6533,-2.6533,-2.6533,-2.6533,-2.6533,-2.6533,0.0,0.0,0.0,0.0,0.0,0.0,-2.6533,-2.6214,0.0,0.0,0.0,0.0,0.0,0.0,-2.5322,-2.5485,0.0,-2.5598,-2.5812,-2.6101,-2.6533,-2.6533,-2.6533,-2.6533,-2.6533,-2.6533,-2.6533,-2.6533,-2.6533,-2.6533,-2.6533,-2.6533,-2.6589,-2.7417,-2.755,-2.7417,-2.8939,-2.9628,-2.9889,-3.052,-3.0645,-3.0834,0.0,-3.1876,0.0,-3.2265,-3.2729,-3.3081,-3.3081,-3.3081,-3.3081,-3.3081,-3.3081,-3.3081,-3.3081,0.0,0.0,0.0,-3.0394,-2.9792,-2.9792,-2.9792,-2.9792,-2.9792,-2.9792,-2.9792,-2.9792,-2.9792,-2.9792,-2.9792,-2.9792,-2.9792,-2.9792,-2.9792,-2.9792,-2.9792,-2.9792,-2.9792,-2.9792,-2.9792,-2.9792,-2.9792,-2.9792,-2.9792,-2.9792,-2.9792,-2.9792,-2.9792,-2.9792,-2.9792,-2.9779,-2.9741,-2.934,-2.8875,-2.8875,-2.8109,-2.7268,-2.7231,-2.6854,-2.6533,-2.6533,-2.6533,-2.6533,-2.6533,-2.6533,-2.6533,-2.6533,-2.6533,-2.6533,-2.6533,-2.6533,-2.6533,-2.6533,-2.6533,-2.6533,-2.6533,0.0,0.0,0.0,0.0,0.0,0.0,-2.6496,-2.6163,0.0,0.0,0.0,0.0,0.0,-2.472,-2.4757,-2.5272,-2.5536,-2.5536,-2.6113,-2.6483,-2.6533,-2.6533,-2.6533,-2.6533,-2.6533,-2.6533,-2.6533,-2.6533,-2.6533,-2.6533,-2.6533,-2.6533,-2.6589,-2.7284,-2.7162,-2.6782,-2.9192,-2.9566,-2.9192,0.0,0.0,-3.1373,-3.1926,-3.2127,-3.2365,-3.2805,-3.2993,-3.3081,-3.3081,-3.3081,-3.3081,-3.3081,-3.3081,-3.3081,-3.3081,-3.2039,-3.1386,-3.1386,-3.0394,-2.9792,-2.9792,-2.9792,-2.9792,-2.9792,-2.9792,-2.9792,-2.9792,-2.9792,-2.9792,-2.9792,-2.9792,-2.9792,-2.9792,-2.9792,-2.9792,-2.9792,-2.9792,-2.9792,-2.9792,-2.9792,-2.9792,-2.9792,-2.9792,-2.9792,-2.9792,-2.9792,-2.9792,-2.9792,-2.9792,-2.9792,-2.9716,-2.9277,-2.875,-2.8298,-2.8298,-2.7821,-2.7193,-2.6766,-2.6634,-2.6533,-2.6533,-2.6533,-2.6533,-2.6533,-2.6533,-2.6533,-2.6533,-2.6533,-2.6533,-2.6533,-2.6533,-2.6533,-2.6533,-2.6533,-2.6533,-2.6533,-2.6533,0.0,0.0,-2.6533,-2.6533,-2.6533,-2.6063,-2.5573,0.0,0.0,0.0,0.0,-2.3466,-2.374,-2.418,-2.472,-2.5008,-2.5008,-2.5536,-2.6013,-2.6533,-2.6533,-2.6533,-2.6533,-2.6533,-2.6533,-2.6533,-2.6533,-2.6533,-2.6533,-2.6533,-2.6533,-2.6521,-2.6714,-2.6658,-2.6589,-2.7162,-2.8051,-2.9066,-3.1248,-3.1574,-3.1938,-3.2503,-3.2604,-3.2717,-3.3031,-3.3081,-3.3081,-3.3081,-3.3081,-3.3081,-3.3081,-3.3081,-3.2968,-3.2704,-3.1888,-3.1386,-3.1386,-3.0394,-2.9792,-2.9792,-2.9792,-2.9792,-2.9792,-2.9792,-2.9792,-2.9792,-2.9792,-2.9792,-2.9792,-2.9792,-2.9792,-2.9792,-2.9792,-2.9792,-2.9792,-2.9792,-2.9792,-2.9792,-2.9792,-2.9792,-2.9792,-2.9792,-2.9792,-2.9792,-2.9792,-2.9792,-2.9792,-2.9792,-2.9616,-2.934,-2.9026,-2.8373,-2.772,-2.772,-2.7344,-2.6841,-2.6609,-2.6533,-2.6533,-2.6533,-2.6533,-2.6533,-2.6533,-2.6533,-2.6533,-2.6533,-2.6533,-2.6533,-2.6533,-2.6533,-2.6533,-2.6533,-2.6533,-2.6533,-2.6533,-2.6533,0.0,-2.6533,-2.6533,-2.642,-2.6088,-2.5774,-2.5272,-2.4506,-2.4167,0.0,-2.3103,-2.3389,-2.3665,-2.3991,-2.4531,-2.4933,-2.5172,-2.5724,-2.6151,-2.6533,-2.6533,-2.6533,-2.6533,-2.6533,-2.6533,-2.6533,-2.6533,-2.6533,-2.6533,-2.6533,-2.6533,-2.6533,-2.6533,-2.6533,-2.6521,-2.6905,-2.7604,-2.8427,-3.2026,-3.2277,-3.2503,-3.2993,-3.3081,-3.3081,-3.3081,-3.3081,-3.3081,-3.3081,-3.3081,-3.3043,-3.2955,-3.2943,-3.2717,-3.2139,-3.1587,-3.1273,-3.1273,-3.0344,-2.9792,-2.9792,-2.9792,-2.9792,-2.9792,-2.9792,-2.9792,-2.9792,-2.9792,-2.9792,-2.9792,-2.9792,-2.9792,-2.9792,-2.9792,-2.9792,-2.9792,-2.9792,-2.9792,-2.9792,-2.9792,-2.9792,-2.9792,-2.9792,-2.9792,-2.9792,-2.9792,-2.9729,-2.9666,-2.9666,-2.9277,-2.8787,-2.8699,-2.8034,-2.7268,-2.718,-2.6829,-2.6533,-2.6533,-2.6533,-2.6533,-2.6533,-2.6533,-2.6533,-2.6533,-2.6533,-2.6533,-2.6533,-2.6533,-2.6533,-2.6533,-2.6533,-2.6533,-2.6533,-2.6533,-2.6533,-2.6533,0.0,-2.6533,-2.6533,-2.6445,-2.6138,-2.5649,-2.5448,-2.4971,-2.4067,-2.3916,-2.369,-2.3288,-2.3728,-2.4067,-2.423,-2.4695,-2.5197,-2.5724,-2.6214,-2.6533,-2.6533,-2.6533,-2.6533,-2.6533,-2.6533,-2.6533,-2.6533,-2.6533,-2.6533,-2.6533,-2.6533,-2.6533,-2.6533,-2.6533,-2.6533,-2.6589,-2.7297,-2.7604,-2.7802,-3.2089,-3.2604,-3.2968,-3.3056,-3.3081,-3.3081,-3.3081,-3.3081,-3.3081,-3.3081,-3.3081,-3.2893,-3.2403,-3.2353,-3.2127,-3.1562,-3.1035,-3.0733,-3.0733,-3.0143,-2.9792,-2.9792,-2.9792,-2.9792,-2.9792,-2.9792,-2.9792,-2.9792,-2.9792,-2.9792,-2.9792,-2.9792,-2.9792,-2.9792,-2.9792,-2.9792,-2.9792,-2.9792,-2.9792,-2.9792,-2.9792,-2.9792,-2.9792,-2.9792,-2.9792,-2.9792,-2.9792,-2.9478,-2.9063,-2.9063,-2.8699,-2.816,-2.7682,-2.7419,-2.7193,-2.6798,-2.6596,-2.6533,-2.6533,-2.6533,-2.6533,-2.6533,-2.6533,-2.6533,-2.6533,-2.6533,-2.6533,-2.6533,-2.6533,-2.6533,-2.6533,-2.6533,-2.6533,-2.6533,-2.6533,-2.6533,-2.6533,0.0,-2.6533,-2.6533,-2.6025,-2.5686,-2.5598,-2.4782,-2.418,-2.4004,-2.3552,-2.3439,-2.3841,-2.3954,-2.4418,-2.5322,-2.5435,-2.5749,-2.6314,-2.6483,-2.6533,-2.6533,-2.6533,-2.6533,-2.6533,-2.6533,-2.6533,-2.6533,-2.6533,-2.6533,-2.6533,-2.6533,-2.6533,-2.6533,-2.6533,-2.6533,-2.6521,-2.6658,-2.7095,-2.7736,-3.2102,-3.2679,-3.3081,-3.3081,-3.3081,-3.3081,-3.3081,-3.3081,-3.2968,-3.2654,-3.2616,-3.2403,-3.1825,-3.1763,-3.1549,-3.1022,-3.0758,-3.0495,-3.0193,-2.993,-2.9792,-2.9792,-2.9792,-2.9792,-2.9792,-2.9792,-2.9792,-2.9792,-2.9792,-2.9792,-2.9792,-2.9792,-2.9792,-2.9792,-2.9792,-2.9792,-2.9792,-2.9792,-2.9792,-2.9792,-2.9792,-2.9792,-2.9792,-2.9792,-2.9792,-2.9792,-2.9792,-2.9616,-2.9352,-2.9038,-2.8561,-2.8009,-2.7457,-2.708,-2.6791,-2.6596,-2.6533,-2.6533,-2.6533,-2.6533,-2.6533,-2.6533,-2.6533,-2.6533,-2.6533,-2.6533,-2.6533,-2.6533,-2.6533,-2.6533,-2.6533,-2.6533,-2.6533,-2.6533,-2.6533,0.0,0.0,-2.6533,-2.6533,-2.6533,-2.6226,-2.5937,-2.5624,-2.5146,-2.4745,-2.4456,-2.4192,-2.4155,-2.4431,-2.4707,-2.5084,-2.5573,-2.59,-2.6189,-2.6533,-2.6533,-2.6533,-2.6533,-2.6533,-2.6533,-2.6533,-2.6533,-2.6533,-2.6533,-2.6533,-2.6533,-2.6533,-2.6533,-2.6533,-2.6533,-2.6533,-2.6533,-2.6533,-2.6533,-2.6523,-2.6565,-3.1472,-3.2027,-3.2424,-3.2679,-3.2679,-3.2679,-3.2679,-3.2679,-3.2528,-3.2077,-3.2026,-3.1813,-3.1273,-3.121,-3.0997,-3.047,-3.0419,-3.0244,-2.9817,-2.9792,-2.9792,-2.9792,-2.9792,-2.9792,-2.9792,-2.9792,-2.9792,-2.9792,-2.9792,-2.9792,-2.9792,-2.9792,-2.9792,-2.9792,-2.9792,-2.9792,-2.9792,-2.9792,-2.9792,-2.9792,-2.9792,-2.9792,-2.9792,-2.9792,-2.9792,-2.9792,-2.9792,-2.9704,-2.9503,-2.8925,-2.8373,-2.7821,-2.7268,-2.6804,-2.6533,-2.6533,-2.6533,-2.6533,-2.6533,-2.6533,-2.6533,-2.6533,-2.6533,-2.6533,-2.6533,-2.6533,-2.6533,-2.6533,-2.6533,-2.6533,-2.6533,-2.6533,-2.6533,-2.6533,0.0,0.0,0.0,-2.6533,-2.6533,-2.6533,-2.6408,-2.6088,-2.5636,-2.5485,-2.5247,-2.4845,-2.482,-2.487,-2.4996,-2.5385,-2.5649,-2.5787,-2.6226,-2.6533,-2.6533,-2.6533,-2.6533,-2.6533,-2.6533,-2.6533,-2.6533,-2.6533,-2.6533,-2.6533,-2.6533,-2.6533,-2.6533,-2.6533,-2.6533,-2.6533,-2.6533,-2.6445,-2.6264,-2.6264,-2.59,-2.541,-2.9629,-3.0037,-3.0398,-3.1347,-3.1512,-3.1512,-3.1512,-3.1512,-3.1499,-3.1449,-3.1449,-3.1248,-3.0733,-3.067,-3.0457,-2.9905,-2.9854,-2.9829,-2.9792,-2.9792,-2.9792,-2.9792,-2.9792,-2.9792,-2.9792,-2.9792,-2.9792,-2.9792,-2.9792,-2.9792,-2.9792,-2.9792,-2.9792,-2.9792,-2.9792,-2.9792,-2.9792,-2.9792,-2.9792,-2.9792,-2.9792,-2.9792,-2.9792,-2.9792,-2.9792,-2.9792,-2.9792,-2.9453,-2.89,-2.8348,-2.7795,-2.7256,-2.6703,-2.6559,-2.6533,-2.6533,-2.6533,-2.6533,-2.6533,-2.6533,-2.6533,-2.6533,-2.6533,-2.6533,-2.6533,-2.6533,-2.6533,-2.6533,-2.6533,-2.6533,-2.6533,-2.6533,-2.6533,-2.6533,0.0,0.0,-2.6533,-2.6533,-2.6533,-2.6533,-2.5988,-2.5636,-2.5598,-2.5159,-2.4858,-2.482,-2.482,-2.5034,-2.5511,-2.5573,-2.5837,-2.6445,-2.6508,-2.6533,-2.6533,-2.6533,-2.6533,-2.6533,-2.6533,-2.6533,-2.6533,-2.6533,-2.6533,-2.6533,-2.6533,-2.6533,-2.6533,-2.6533,-2.6533,-2.6533,-2.6533,-2.6138,-2.5661,-2.5661,-2.5322,-2.4883,-2.8138,-2.851,-2.89,-2.9315,-2.9327,-2.9327,-2.9327,-2.9327,-2.9209,-2.888,-2.9426,-2.9654,-2.9132,-2.9675,-3.0018,-2.9817,-2.9792,-2.9792,-2.9792,-2.9792,-2.9792,-2.9792,-2.9792,-2.9792,-2.9792,-2.9792,-2.9792,-2.9792,-2.9792,-2.9792,-2.9792,-2.9792,-2.9792,-2.9792,-2.9792,-2.9792,-2.9792,-2.9792,-2.9792,-2.9792,-2.9792,-2.9792,-2.9792,-2.9792,-2.9792,-2.9792,-2.9792,-2.9654,-2.9327,-2.8411,-2.7959,-2.7632,-2.6741,-2.6533,-2.6533,-2.6533,-2.6533,-2.6533,-2.6533,-2.6533,-2.6533,-2.6533,-2.6533,-2.6533,-2.6533,-2.6533,-2.6533,-2.6533,-2.6533,-2.6533,-2.6533,-2.6533,-2.6533,-2.6533,0.0,-2.6533,-2.6533,-2.6533,-2.6533,-2.6533,-2.6264,-2.6138,-2.6138,-2.595,-2.5837,-2.5837,-2.5837,-2.5925,-2.6126,-2.6138,-2.6239,-2.6521,-2.6533,-2.6533,-2.6533,-2.6533,-2.6533,-2.6533,-2.6533,-2.6533,-2.6533,-2.6533,-2.6533,-2.6533,-2.6533,-2.6533,-2.6533,-2.6533,-2.6533,-2.6496,-2.6063,-2.5787,-2.5548,-2.5234,-2.477,-2.4305,-2.6458,-2.6819,-2.7212,-2.7566,-2.7566,-2.7566,-2.7566,-2.7566,-2.7453,-2.7116,-2.7727,-2.8,-2.7649,-2.8291,-2.8791,-2.8791,-2.8791,-2.8791,-2.8791,-2.9118,-2.9443,-2.9792,-2.9792,-2.9792,-2.9792,-2.9792,-2.9792,-2.9792,-2.9792,-2.9792,-2.9792,-2.9792,-2.9792,-2.9792,-2.9792,-2.9792,-2.9792,-2.9792,-2.9792,-2.9792,-2.9792,-2.9792,-2.9792,-2.9792,-2.9792,-2.9792,-2.9792,-2.9792,-2.9628,-2.8486,-2.8109,-2.7908,-2.6804,-2.6533,-2.6533,-2.6533,-2.6533,-2.6533,-2.6533,-2.6533,-2.6533,-2.6533,-2.6533,-2.6533,-2.6533,-2.6533,-2.6533,-2.6533,-2.6533,-2.6533,-2.6533,-2.6533,-2.6533,-2.6533,-2.6533,-2.6533,-2.6533,-2.6533,-2.6533,-2.6533,-2.6533,-2.6533,-2.6533,-2.6533,-2.6533,-2.6533,-2.6533,-2.6533,-2.6533,-2.6533,-2.6533,-2.6533,-2.6533,-2.6533,-2.6533,-2.6533,-2.6533,-2.6533,-2.6533,-2.6533,-2.6533,-2.6533,-2.6533,-2.6533,-2.6533,-2.6533,-2.6508,-2.6332,-2.6189,-2.6138,-2.5573,-2.5247,-2.5046,-2.4695,-2.4205,-2.3728,-2.4542,-2.4787,-2.5126,-2.6307,-2.6483,-2.6483,-2.6483,-2.6483,-2.6483,-2.6483,-2.6472,-2.6483,-2.6483,-2.6472,-2.6483,-2.6483,-2.6483,-2.6483,-2.6483,-2.7522,-2.8597,-2.9702,-2.9792,-2.9792,-2.9792,-2.9792,-2.9792,-2.9792,-2.9792,-2.9792,-2.9792,-2.9792,-2.9792,-2.9792,-2.9792,-2.9792,-2.9792,-2.9792,-2.9792,-2.9792,-2.9792,-2.9792,-2.9792,-2.9792,-2.9792,-2.9792,-2.9792,-2.9792,-2.9628,-2.8486,-2.8109,-2.7908,-2.6804,-2.6533,-2.6533,-2.6533,-2.6533,-2.6533,-2.6533,-2.6533,-2.6533,-2.6533,-2.6533,-2.6533,-2.6533,-2.6533,-2.6533,-2.6533,-2.6533,-2.6533,-2.6533,-2.6533,-2.6533,-2.6533,-2.6533,-2.6533,-2.6533,-2.6533,-2.6533,-2.6533,-2.6533,-2.6533,-2.6533,-2.6533,-2.6533,-2.6533,-2.6533,-2.6533,-2.6465,-2.6465,-2.6465,-2.6465,-2.6452,-2.6452,-2.6465,-2.6533,-2.6533,-2.6533,-2.6533,-2.6533,-2.6533,-2.6533,-2.6533,-2.6533,-2.6533,-2.6533,-2.6483,-2.5837,-2.5598,-2.5536,-2.5021,-2.4481,-2.4004,-2.3991,-2.3627,-2.3078,-2.3551,-2.3637,-2.3714,-2.4059,-2.4135,-2.4135,-2.4135,-2.4135,-2.4135,-2.4135,-2.4798,-2.5294,-2.5294,-2.6058,-2.6483,-2.6483,-2.6483,-2.6483,-2.6483,-2.6801,-2.7128,-2.7464,-2.8961,-2.9792,-2.9792,-2.9792,-2.9792,-2.9792,-2.9792,-2.9792,-2.9792,-2.9792,-2.9792,-2.9792,-2.9792,-2.9792,-2.9792,-2.9792,-2.9792,-2.9792,-2.9792,-2.9792,-2.9792,-2.9792,-2.9792,-2.9792,-2.9792,-2.9792,-2.9628,-2.8486,-2.8109,-2.7908,-2.6804,-2.6533,-2.6533,-2.6533,-2.6533,-2.6533,-2.6533,-2.6533,-2.6533,-2.6533,-2.6533,-2.6533,-2.6533,-2.6533,-2.6533,-2.6533,-2.6533,-2.6533,-2.6533,-2.6533,-2.6533,-2.6533,-2.6533,-2.6533,-2.6533,-2.6533,-2.6533,-2.6533,-2.6533,-2.6533,-2.6533,-2.6533,-2.6533,-2.6533,-2.6533,-2.6164,-2.5511,-2.5441,-2.5441,-2.5441,-2.4767,-2.4696,-2.5441,-2.6164,-2.6533,-2.6533,-2.6533,-2.6533,-2.6533,-2.6533,-2.6533,-2.6533,-2.6533,-2.6226,-2.5837,-2.5661,-2.5385,-2.4996,-2.4456,-2.4142,-2.3954,-2.354,-2.3215,-2.3078,-2.3135,-2.3135,-2.3135,-2.3135,-2.3135,-2.3135,-2.3135,-2.3135,-2.3135,-2.3135,-2.3714,-2.4125,-2.4125,-2.4723,-2.5147,-2.5147,-2.5147,-2.5389,-2.5808,-2.5808,-2.6058,-2.6472,-2.7799,-2.87,-2.9106,-2.9118,-2.9365,-2.9792,-2.9792,-2.9792,-2.9792,-2.9792,-2.9792,-2.9792,-2.9792,-2.9792,-2.9792,-2.9792,-2.9792,-2.9792,-2.9792,-2.9792,-2.9792,-2.9792,-2.9792,-2.9792,-2.9792,-2.9792,-2.9628,-2.8486,-2.7821,-2.7344,-2.6666,-2.6533,-2.6533,-2.6533,-2.6533,-2.6533,-2.6533,-2.6233,-2.5886,-2.5886,-2.6245,-2.6533,-2.6533,-2.6533,-2.6533,-2.6533,-2.6533,-2.6533,-2.6533,-2.6533,-2.6533,-2.6533,-2.6533,-2.6383,-2.5943,-2.6233,-2.6383,-2.5943,-2.6245,-2.6314,-2.5955,-2.6245,-2.6314,-2.5955,-2.5569,-2.5063,-2.4409,-2.442,-2.442,-2.442,-2.3818,-2.3818,-2.4409,-2.4992,-2.5276,-2.5346,-2.6094,-2.6314,-2.5955,-2.6314,-2.6533,-2.6521,-2.6214,-2.5912,-2.5561,-2.5134,-2.4782,-2.4443,-2.3879,-2.3653,-2.3615,-2.3203,-2.3078,-2.3078,-2.3135,-2.3135,-2.3135,-2.3135,-2.3135,-2.3135,-2.3135,-2.3135,-2.3135,-2.3135,-2.3135,-2.3135,-2.3135,-2.3135,-2.3135,-2.3135,-2.3135,-2.3551,-2.4542,-2.4628,-2.5126,-2.6141,-2.6235,-2.6707,-2.7763,-2.7924,-2.8438,-2.9546,-2.9546,-2.9546,-2.9546,-2.9546,-2.9546,-2.9534,-2.9624,-2.9624,-2.9546,-2.9714,-2.9714,-2.9624,-2.9624,-2.9702,-2.9792,-2.9546,-2.9546,-2.9624,-2.9546,-2.9509,-2.9374,-2.825,-2.7176,-2.6383,-2.6233,-2.6233,-2.6233,-2.6233,-2.6233,-2.6233,-2.6233,-2.5581,-2.4862,-2.4862,-2.5581,-2.6383,-2.6383,-2.6383,-2.6383,-2.6452,-2.6533,-2.6452,-2.6383,-2.6383,-2.6314,-2.6233,-2.6233,-2.5943,-2.5158,-2.5804,-2.6025,-2.5087,-2.5804,-2.5955,-2.4933,-2.5721,-2.5873,-2.4933,-2.4036,-2.3441,-2.3368,-2.3368,-2.3368,-2.3368,-2.3294,-2.3294,-2.3368,-2.3441,-2.3526,-2.3672,-2.5499,-2.5955,-2.5158,-2.6045,-2.6445,-2.642,-2.5774,-2.5498,-2.5372,-2.4406,-2.3966,-2.3866,-2.3339,-2.3078,-2.3078,-2.3078,-2.3078,-2.3078,-2.3135,-2.3135,-2.3135,-2.3135,-2.3135,-2.3135,-2.3135,-2.3135,-2.3135,-2.3135,-2.3135,-2.3135,-2.3135,-2.3135,-2.3135,-2.3135,-2.3135,-2.3222,-2.3464,-2.3464,-2.3551,-2.381,-2.381,-2.4382,-2.5535,-2.6378,-2.6964,-2.7221,-2.7221,-2.7221,-2.7221,-2.7221,-2.7221,-2.7221,-2.8108,-2.8028,-2.7302,-2.904,-2.9275,-2.8426,-2.8426,-2.9028,-2.9624,-2.7879,-2.7706,-2.8347,-2.7545,-2.7528,-2.7657,-2.6661,-2.5877,-2.5217,-2.4397,-2.4181,-2.4181,-2.4181,-2.4181,-2.4181,-2.4181,-2.3963,-2.3818,-2.3818,-2.4552,-2.53,-2.53,-2.53,-2.5523,-2.6314,-2.6533,-2.6245,-2.5441,-2.53,-2.5075,-2.4253,-2.4181,-2.4337,-2.4933,-2.5229,-2.5229,-2.5016,-2.5229,-2.4921,-2.3891,-2.4036,-2.4036,-2.3818,-2.3599,-2.3147,-2.2403,-2.2328,-2.2328,-2.2328,-2.1593,-2.1593,-2.2328,-2.3147,-2.3891,-2.4707,-2.5158,-2.5581,-2.6151,-2.592,-2.5787,-2.5749,-2.5222,-2.4745,-2.433,-2.4092,-2.3728,-2.3314,-2.3128,-2.3078,-2.3078,-2.3078,-2.3078,-2.3078,-2.3135,-2.3135,-2.3135,-2.3135,-2.3135,-2.3135,-2.3135,-2.3135,-2.3135,-2.3135,-2.3135,-2.3135,-2.3135,-2.3135,-2.3135,-2.3135,-2.3135,-2.3135,-2.3135,-2.3135,-2.3135,-2.3135,-2.3135,-2.3387,-2.3963,-2.4553,-2.54,-2.6483,-2.6483,-2.6483,-2.6483,-2.6483,-2.6483,-2.6554,-2.7128,-2.7046,-2.6565,-2.7718,-2.7879,-2.736,-2.736,-2.7706,-2.8131,-2.6976,-2.6883,-2.729,-2.6719,-2.6405,-2.612,-2.5333,-2.4742,-2.4192,-2.3672,-2.3514,-2.3514,-2.3514,-2.3514,-2.3514,-2.3514,-2.3147,-2.2776,-2.2776,-2.285,-2.3158,-2.4036,-2.4636,-2.5004,-2.5063,-2.5063,-2.4909,-2.4409,-2.4264,-2.4264,-2.4192,-2.3818,-2.3672,-2.4192,-2.4264,-2.412,-2.3599,-2.3963,-2.4108,-2.3526,-2.2638,-2.2339,-2.2776,-2.2339,-2.1897,-2.1375,-2.1298,-2.1298,-2.1298,-2.0867,-2.0867,-2.1298,-2.1821,-2.2638,-2.3588,-2.4992,-2.5599,-2.5411,-2.5523,-2.546,-2.5197,-2.4657,-2.4268,-2.3979,-2.3703,-2.3414,-2.3078,-2.3078,-2.3078,-2.3078,-2.3078,-2.3078,-2.3078,-2.3135,-2.3135,-2.3135,-2.3135,-2.3135,-2.3135,-2.3135,-2.3135,-2.3135,-2.3135,-2.3135,-2.3135,-2.3135,-2.3135,-2.3135,-2.3135,-2.3135,-2.3135,-2.3135,-2.3135,-2.3135,-2.3135,-2.3135,-2.3135,-2.3135,-2.3135,-2.4059,-2.5891,-2.5891,-2.5891,-2.5891,-2.5891,-2.5891,-2.5891,-2.6141,-2.6141,-2.5975,-2.6307,-2.6389,-2.6224,-2.6224,-2.6307,-2.6483,-2.6058,-2.6058,-2.613,-2.5887,-2.5308,-2.4559,-2.4071,-2.3627,-2.322,-2.3073,-2.2999,-2.2999,-2.2999,-2.2999,-2.2999,-2.2999,-2.2414,-2.1735,-2.1735,-2.1298,-2.1231,-2.2638,-2.3745,-2.4264,-2.3672,-2.3514,-2.3452,-2.3294,-2.322,-2.3441,-2.412,-2.3526,-2.3073,-2.322,-2.322,-2.2925,-2.2103,-2.2627,-2.2999,-2.2999,-2.1527,-2.0934,-2.1735,-2.1011,-2.0566,-2.0566,-2.0566,-2.0566,-2.0566,-2.0566,-2.0566,-2.0566,-2.0789,-2.1298,-2.2253,-2.4885,-2.5436,-2.4232,-2.4884,-2.5028,-2.4644,-2.4092,-2.3853,-2.3816,-2.3339,-2.3078,-2.3078,-2.3078,-2.3078,-2.3078,-2.3078,-2.3078,-2.3078,-2.3135,-2.3135,-2.3135,-2.3135,-2.3135,-2.3135,-2.3135,-2.3135,-2.3135,-2.3135,-2.3135,-2.3135,-2.3135,-2.3135,-2.3135,-2.3135,-2.3135,-2.3135,-2.3135,-2.3135,-2.3135,-2.3135,-2.3135,-2.3135,-2.3135,-2.3135,-2.3222,-2.356,-2.356,-2.356,-2.356,-2.356,-2.356,-2.3637,-2.4628,-2.4467,-2.3724,-2.5641,-2.5975,-2.5041,-2.5041,-2.563,-2.6307,-2.4307,-2.4135,-2.483,-2.3547,-2.2992,-2.2907,-2.2431,-2.2231,-2.2038,-2.1231,-2.1011,-2.1011,-2.1011,-2.1011,-2.1011,-2.1011,-2.0867,-2.0789,-2.0789,-2.1298,-2.1669,-2.1088,-2.1745,-2.2627,-2.3368,-2.3514,-2.322,-2.2328,-2.2178,-2.1962,-2.1308,-2.1088,-2.1308,-2.2113,-2.2178,-2.2178,-2.2027,-2.1375,-2.1011,-2.1011,-2.0789,-2.0634,-2.0789,-2.0634,-2.0566,-2.0566,-2.0566,-2.0566,-2.0566,-2.0566,-2.0566,-2.0566,-2.1451,-2.2328,-2.3294,-2.4108,-2.4372,-2.422,-2.3811,-2.3794,-2.4079,-2.3502,-2.319,-2.3251,-2.3103,-2.3078,-2.3078,-2.3078,-2.3078,-2.3078,-2.3078,-2.3078,-2.3078,-2.3135,-2.3135,-2.3135,-2.3135,-2.3135,-2.3135,-2.3135,-2.3135,-2.3135,-2.3135,-2.3135,-2.3135,-2.3135,-2.3135,-2.3135,-2.3135,-2.3135,-2.3135,-2.3135,-2.3135,-2.3135,-2.3135,-2.3135,-2.3135,-2.3135,-2.3135,-2.3135,-2.3135,-2.3135,-2.3135,-2.3135,-2.3135,-2.3135,-2.3135,-2.3637,-2.3551,-2.3135,-2.4135,-2.4307,-2.3887,-2.3887,-2.4135,-2.4478,-2.3474,-2.3238,-2.3348,-2.2197,-2.1777,-2.1768,-2.1383,-2.1231,-2.1155,-2.0712,-2.0566,-2.0566,-2.0566,-2.0566,-2.0566,-2.0566,-2.0566,-2.0566,-2.0566,-2.0934,-2.1078,-2.0712,-2.0934,-2.1375,-2.1821,-2.1897,-2.1745,-2.1298,-2.1231,-2.1221,-2.1375,-2.0934,-2.0934,-2.1886,-2.1517,-2.1231,-2.1231,-2.0857,-2.0566,-2.0566,-2.0566,-2.0566,-2.0566,-2.0566,-2.0566,-2.0566,-2.0566,-2.0566,-2.0566,-2.0566,-2.0566,-2.0566,-2.1011,-2.1318,-2.1511,-2.167,-2.2499,-2.3835,-2.3717,-2.3386,-2.2861,-2.2996,-2.3078,-2.3078,-2.3078,-2.3078,-2.3078,-2.3078,-2.3078,-2.3078,-2.3078,-2.3078,-2.3078]}]]